GFSSW_prec_cloud_003.txt.gz
Cloud_Cover
0 0 0 2 7 5 6 0 20 88 100 3 5 16 28 16 30 80 60 0 0 0 1 2 0 0 0 0 5 98 100 49 74 34 5 5 5 5 5 6 6 5 5 24 41
1 16 7 0 0 4 1 5 3 0 0 17 10 16 5 45 83 100 6 0 0 0 0 17 2 0 0 0 0 47 86 15 5 5 9 98 21 5 4 5 2 5 44 82 5
4 0 0 0 0 0 1 100 10 3 3 24 11 6 60 16 99 90 1 0 0 0 0 74 6 62 0 0 0 2 12 5 5 5 5 63 100 97 25 36 64 30 5 5 5
4 1 0 0 1 20 96 5 5 99 100 99 17 5 53 72 45 5 2 0 0 5 0 19 78 82 12 0 0 0 0 0 5 5 5 0 5 5 6 5 4 5 5 5 5
5 4 7 2 2 41 80 1 4 74 75 100 100 77 45 100 48 5 5 0 2 80 10 38 99 67 0 0 0 0 0 0 3 5 5 5 5 3 5 4 0 1 2 5 5
5 5 5 8 6 45 0 5 80 75 100 100 100 93 75 95 20 5 5 5 0 97 17 1 9 80 9 0 1 0 4 0 0 5 5 3 0 0 0 0 0 0 0 4 5
5 5 5 73 83 5 3 38 6 96 100 100 100 90 84 43 4 5 5 17 5 45 10 3 45 100 99 8 0 3 25 3 0 0 0 0 0 0 0 0 0 0 0 5 2
5 5 83 100 100 95 7 69 100 100 100 100 99 34 69 75 100 58 58 46 99 49 5 20 56 100 100 17 8 78 100 13 0 0 0 0 0 0 0 0 0 0 0 0 4
5 6 100 100 100 98 99 76 100 100 100 100 91 28 85 100 100 100 100 71 100 84 85 93 90 100 100 100 84 94 26 4 0 0 0 0 0 0 0 0 0 0 0 0 5
6 38 92 100 100 97 95 100 100 100 100 100 88 56 13 82 100 82 79 93 99 94 100 100 100 100 81 49 83 96 91 86 3 0 0 0 1 5 0 0 0 0 0 0 0
30 32 100 100 100 100 100 100 100 100 100 100 92 92 17 75 75 12 35 85 100 100 71 96 100 100 90 8 10 100 24 4 0 5 5 3 0 5 0 0 0 0 0 0 4
29 38 100 100 100 100 100 100 100 100 100 100 100 100 98 31 71 95 83 83 96 100 100 100 100 100 100 100 56 6 98 5 4 21 26 0 0 0 0 0 0 0 0 4 5
52 100 100 100 100 100 100 100 100 100 100 100 100 100 100 49 100 100 90 98 93 100 100 34 100 100 100 99 13 5 5 5 5 54 37 0 0 0 0 3 0 0 4 5 63
100 19 17 100 100 100 100 100 100 100 100 100 100 100 100 52 100 100 100 54 100 100 100 98 100 100 100 100 12 5 59 5 26 51 5 5 3 0 0 3 1 0 5 5 5
100 52 96 100 100 100 100 100 100 100 100 100 100 100 100 49 100 100 100 43 100 100 99 98 100 63 94 92 6 22 18 56 81 70 5 2 4 0 5 0 5 0 3 5 6
80 77 5 76 100 100 100 100 100 100 100 100 100 100 100 84 100 100 37 99 100 100 100 100 88 100 89 100 80 25 100 61 18 60 68 0 3 5 4 0 5 0 3 5 93
80 75 62 9 100 100 100 100 100 100 100 100 100 100 85 78 98 62 5 100 100 100 100 100 100 100 100 94 100 100 82 78 86 99 16 0 0 4 2 0 2 0 0 2 5
83 89 99 85 100 100 100 100 100 100 100 100 66 94 99 64 100 35 98 100 100 55 94 100 100 81 100 100 100 100 59 65 100 40 5 1 0 0 0 0 0 0 0 0 0
100 100 100 100 100 100 100 100 100 100 100 92 8 25 96 86 98 14 38 83 100 43 94 99 100 59 100 100 92 100 89 58 67 5 2 0 0 0 0 0 0 0 0 0 0
100 100 100 100 100 100 100 100 100 100 89 1 3 6 56 42 100 15 16 88 100 81 5 44 90 92 54 100 100 32 21 100 93 5 5 0 0 0 0 0 0 0 0 0 0
100 90 97 100 100 100 100 100 100 100 83 3 4 9 5 32 100 77 9 86 100 100 26 5 5 38 100 100 100 59 87 30 100 6 5 3 0 0 0 0 0 0 0 0 0
93 92 100 100 100 100 100 100 100 100 100 5 48 100 78 98 22 65 37 83 72 75 5 29 4 5 60 100 48 22 7 96 10 5 4 4 1 0 0 0 0 0 0 0 0
100 100 100 100 100 100 100 100 100 78 100 17 5 6 93 93 100 33 65 83 100 100 14 21 5 20 92 44 11 70 85 87 12 5 5 5 1 0 0 0 0 0 0 0 0
100 100 100 100 100 100 100 100 100 100 98 46 72 58 13 28 99 100 97 100 100 100 100 94 99 8 28 45 87 48 78 40 10 20 5 0 0 0 0 0 0 0 0 0 0
100 63 66 100 100 100 100 100 100 100 100 100 96 76 86 80 97 100 99 54 100 100 100 100 94 84 98 100 25 6 2 100 26 27 28 0 0 0 0 0 0 0 0 1 5
100 99 5 88 100 100 100 100 100 100 100 100 100 86 100 31 90 100 100 92 100 100 88 67 99 99 75 59 26 34 5 5 48 7 3 0 0 0 0 0 0 0 0 0 26
100 100 12 89 96 94 100 100 100 100 100 100 86 98 100 100 79 100 100 100 99 98 74 92 61 84 100 83 95 10 5 10 15 5 4 4 3 0 0 0 0 0 4 77 100

GFSSW_prec_cloud_006.txt.gz
Cloud_Cover
0 0 1 0 0 0 0 0 7 99 100 82 100 38 23 6 15 89 60 0 0 0 1 0 0 0 0 0 0 46 100 100 99 95 52 7 9 6 83 48 5 5 3 0 5
0 2 3 0 0 0 0 0 6 21 3 47 93 75 5 6 78 100 7 1 0 0 13 10 0 0 0 0 0 0 7 100 100 78 66 18 9 92 11 5 3 1 3 5 5
0 0 0 0 0 2 0 0 1 3 4 5 5 0 4 59 97 50 0 5 5 0 0 2 96 42 44 8 0 0 0 1 15 100 100 12 5 9 5 5 5 3 5 5 5
1 0 1 0 0 0 0 7 7 2 65 68 5 2 7 40 20 74 28 1 3 29 62 0 95 100 98 97 5 0 0 0 0 5 88 100 38 5 5 5 5 3 5 36 5
2 0 5 0 0 0 0 0 0 12 5 4 83 97 98 100 65 98 10 0 0 21 99 5 24 4 41 67 67 0 0 0 0 32 100 100 17 52 5 0 0 1 4 4 4
0 6 5 1 0 4 0 4 3 4 5 15 42 82 86 97 13 2 7 5 3 3 70 2 41 39 5 19 60 7 0 0 0 0 48 97 6 5 0 0 43 5 3 0 2
2 4 5 5 5 16 6 5 0 6 69 100 90 96 99 100 43 5 79 99 66 100 5 1 5 82 7 65 45 60 27 3 0 0 5 34 14 0 4 5 0 4 4 0 0
4 10 5 5 5 5 38 43 5 29 100 90 100 32 75 70 30 96 40 0 0 83 83 56 76 100 100 50 79 54 84 53 1 4 3 3 1 0 0 0 3 0 0 0 4
5 5 5 5 5 29 81 42 71 71 66 100 60 63 100 84 87 75 5 5 0 2 92 90 98 100 67 48 94 70 29 8 37 9 0 0 0 0 0 0 0 0 0 0 0
5 6 7 5 8 100 96 98 83 100 99 100 96 62 100 100 100 58 48 18 35 5 100 43 49 100 100 86 92 100 41 63 47 5 0 0 0 0 0 0 0 0 0 0 0
5 10 52 5 86 100 100 96 100 100 100 97 96 100 100 100 59 14 98 87 97 5 90 43 94 100 45 100 87 97 33 79 24 7 4 4 0 5 0 0 0 0 0 0 0
53 42 100 28 86 100 100 100 100 100 100 100 100 100 100 100 81 5 68 68 100 86 100 100 96 100 100 100 98 100 27 59 90 3 5 4 0 5 0 0 0 0 5 0 0
96 92 100 5 90 98 100 100 100 100 100 100 100 100 100 100 100 70 61 100 100 100 100 94 71 100 100 99 100 73 99 72 21 5 27 3 0 4 0 0 0 0 1 0 0
82 100 100 5 48 94 100 100 100 100 100 100 100 100 100 100 99 32 100 100 100 100 100 100 97 100 100 100 100 100 77 60 5 62 94 6 4 0 0 0 0 0 0 0 5
100 100 100 8 53 100 100 100 100 100 100 100 100 100 100 100 78 13 86 100 100 100 100 100 100 100 100 100 100 100 92 5 8 100 61 6 5 0 5 0 0 5 2 4 2
100 100 99 77 52 75 100 100 100 100 100 100 100 100 100 100 100 58 100 100 100 100 100 100 100 100 99 100 100 100 69 36 44 96 73 28 2 0 4 0 0 5 5 5 5
100 100 100 100 26 88 100 100 100 100 100 100 100 100 100 100 100 100 100 100 100 100 100 100 100 100 100 100 100 100 92 99 100 95 48 3 0 0 4 2 5 1 5 5 2
100 100 100 100 7 100 100 100 100 100 100 100 100 100 100 100 100 100 100 100 100 100 100 100 100 100 100 100 100 57 62 79 88 19 15 4 0 0 5 5 0 0 5 5 0
100 100 100 100 71 100 100 100 100 100 100 100 100 96 100 100 100 100 100 100 100 100 100 100 100 100 88 92 100 100 88 64 5 5 5 2 0 0 4 0 0 0 0 2 0
100 100 98 100 100 100 100 100 100 100 100 99 20 61 71 88 88 100 71 96 100 100 100 100 100 100 100 90 82 100 43 55 5 39 42 2 0 1 1 0 0 0 0 0 0
100 100 100 100 100 100 100 100 100 100 100 40 4 31 12 21 40 76 54 90 100 100 100 100 100 100 100 100 87 100 93 69 5 5 64 5 2 0 0 0 0 0 0 0 0
100 100 100 100 100 100 100 100 100 100 100 97 4 0 0 6 36 100 10 55 76 97 74 95 100 100 97 97 100 100 100 100 89 58 5 5 1 0 0 0 0 0 0 0 0
100 100 100 100 100 100 100 100 100 100 100 98 5 5 6 5 34 76 19 100 98 37 7 30 37 88 100 100 100 100 100 100 60 5 5 17 4 0 0 0 0 0 0 0 0
100 100 100 100 100 100 100 100 100 100 100 100 37 9 38 37 20 4 50 28 87 51 68 61 18 36 5 4 4 82 100 100 81 42 59 2 2 0 5 0 0 0 0 0 0
100 100 100 100 100 100 100 100 100 100 84 100 100 91 28 61 95 81 85 85 100 100 100 96 63 5 1 4 5 5 17 54 5 39 4 15 1 5 0 0 0 0 0 0 0
100 100 98 70 100 100 100 100 100 100 100 100 91 100 86 100 100 100 98 86 100 100 98 100 100 45 5 3 1 3 0 5 1 5 5 5 0 0 0 0 0 0 0 0 0
100 100 99 96 85 100 100 100 100 100 100 100 100 96 76 81 88 100 89 100 100 100 100 99 87 90 32 5 5 5 0 0 0 0 2 2 4 0 0 0 0 0 0 0 0

GFSSW_prec_cloud_009.txt.gz
Cloud_Cover
0 0 8 0 0 0 0 0 0 0 100 100 42 16 18 54 64 75 29 0 0 0 0 0 0 0 2 0 0 0 72 100 100 100 100 100 100 100 100 100 100 89 9 8 5
0 3 0 0 0 0 0 0 0 0 21 30 52 100 40 100 71 100 8 5 0 0 0 0 0 0 10 41 26 0 0 20 85 100 100 97 100 94 100 100 100 11 5 25 25
3 3 0 0 0 0 0 0 0 0 0 0 0 12 95 100 97 64 5 5 4 0 0 0 0 4 41 44 15 12 0 2 4 69 100 100 73 56 92 100 87 56 56 12 1
5 4 6 3 5 0 0 0 0 0 0 0 0 0 0 4 43 35 5 0 0 10 4 0 0 32 72 93 50 75 1 3 16 26 42 100 100 97 65 100 14 28 5 19 5
5 21 6 5 48 2 0 0 0 0 0 0 4 1 10 68 43 25 13 36 1 25 72 18 0 0 14 80 100 100 7 6 2 8 0 99 100 100 87 15 90 14 46 5 5
8 5 5 40 42 5 5 3 0 0 0 0 5 14 9 96 20 87 70 100 100 37 99 64 16 0 11 95 99 95 41 15 32 4 0 0 16 97 100 100 100 97 41 5 5
99 5 5 5 24 9 10 5 5 0 0 0 3 24 82 100 99 100 100 29 10 5 37 41 98 56 16 5 37 100 100 92 29 39 3 2 0 2 9 100 93 100 59 24 6
100 100 96 5 5 5 12 5 5 5 5 5 2 49 100 100 100 100 100 85 32 46 55 40 100 34 100 29 18 99 100 93 90 47 2 9 1 0 3 9 5 86 38 51 5
100 100 70 5 24 95 95 100 8 8 11 5 6 68 75 100 70 34 5 9 68 100 91 83 100 97 55 100 61 100 97 68 84 77 5 29 0 0 2 15 51 100 77 5 4
99 90 65 96 5 80 100 100 78 65 87 61 90 70 80 98 35 23 20 97 72 100 100 100 100 100 94 93 90 100 100 97 10 65 15 25 2 0 0 5 53 80 15 1 0
100 78 24 100 67 69 100 100 99 100 100 97 51 16 93 100 95 100 99 90 100 100 100 68 90 100 9 2 40 54 98 100 47 62 100 50 4 0 5 5 35 5 0 0 0
100 12 97 100 100 97 100 100 100 100 100 100 100 90 98 94 100 77 97 100 100 97 94 100 100 5 6 72 84 75 100 90 96 100 47 7 5 0 7 3 5 0 0 0 0
90 30 100 100 100 100 97 97 100 100 100 100 100 100 100 95 68 99 100 100 100 95 100 99 50 5 62 84 100 78 91 100 68 100 4 21 7 2 9 0 0 0 0 0 0
80 100 100 100 100 99 88 91 100 100 100 81 100 100 100 100 100 100 100 100 100 100 100 98 99 100 97 99 100 90 86 100 100 100 16 47 3 3 5 0 0 0 0 0 0
100 75 100 100 100 100 81 100 100 100 100 58 100 100 100 100 100 100 100 100 100 100 71 68 96 100 100 33 100 99 100 100 100 96 86 63 29 0 33 0 0 0 0 4 0
100 100 100 97 100 97 93 100 100 100 100 100 100 100 100 100 100 100 100 99 98 100 100 99 100 100 9 100 100 100 100 100 100 100 26 28 42 5 21 1 0 2 5 1 0
100 100 100 100 100 100 100 100 100 100 100 100 100 100 100 100 100 100 100 88 88 100 100 100 100 100 100 100 100 100 100 100 100 89 36 87 77 4 5 0 0 5 5 1 0
100 100 100 100 100 100 100 100 100 100 100 100 100 100 100 100 100 100 100 100 100 100 100 100 100 100 100 100 100 100 100 100 82 59 34 5 4 5 0 1 5 5 5 5 5
100 100 100 100 100 100 100 100 100 100 100 100 100 100 100 100 100 99 99 100 98 100 100 100 59 100 100 100 100 100 100 100 73 18 91 3 1 0 1 5 5 5 5 5 5
100 100 100 100 100 100 100 100 100 100 100 100 82 34 66 81 98 94 100 73 92 100 100 99 100 100 100 100 100 100 98 87 25 12 92 27 57 16 0 0 3 0 2 5 5
100 100 100 100 100 100 100 100 100 100 100 100 74 48 100 93 82 100 100 96 100 100 100 100 100 100 100 100 100 100 100 65 76 6 99 82 36 2 0 3 0 0 5 5 2
100 100 100 100 100 100 100 100 100 100 100 100 70 99 88 16 100 100 96 100 100 100 100 100 100 100 100 100 100 100 98 91 10 23 1 9 40 0 0 0 5 5 0 0 0
100 100 100 100 100 100 100 100 100 100 100 100 96 36 8 32 64 100 100 100 100 100 100 100 100 100 100 100 100 88 100 100 29 64 25 5 46 0 0 0 0 5 0 2 0
100 100 100 100 100 100 100 100 100 100 100 100 100 36 69 59 12 16 57 100 98 71 100 100 100 100 100 100 82 99 94 100 35 5 6 75 82 5 5 2 0 0 0 0 0
100 100 100 100 100 100 100 100 100 100 100 100 100 89 81 5 6 88 8 89 46 46 72 79 98 100 100 62 100 100 98 99 6 100 49 18 7 7 28 0 1 0 0 0 0
100 100 100 100 100 100 100 100 100 100 100 100 100 100 17 89 100 100 100 100 62 84 48 100 77 5 80 5 52 100 5 6 11 7 5 28 25 45 5 0 0 0 0 0 0
100 100 100 100 100 100 100 100 100 100 100 100 100 100 100 75 73 34 91 100 100 100 100 100 93 64 95 5 5 6 4 5 5 5 5 10 100 8 4 0 0 0 0 0 0

GFSSW_prec_cloud_012.txt.gz
Cloud_Cover
97 5 0 2 2 0 0 0 0 0 72 100 99 14 49 60 75 72 18 0 0 0 0 0 0 0 0 15 0 8 0 0 0 73 100 61 95 65 100 100 100 100 74 5 98
8 5 1 5 8 3 0 0 0 0 0 13 100 100 100 2 30 98 2 1 1 0 0 0 0 0 0 0 19 1 0 0 0 0 100 100 100 60 99 100 100 100 99 31 64
32 5 5 10 5 10 4 2 0 0 0 0 1 81 97 2 83 5 4 0 0 3 0 0 0 0 0 0 0 0 0 0 0 0 6 100 100 55 90 100 100 92 84 94 100
87 26 46 7 5 5 5 5 3 0 0 0 0 0 0 1 14 14 3 0 15 97 9 6 2 0 16 0 0 33 0 1 0 10 85 84 100 100 100 64 100 100 75 39 100
100 95 77 79 80 13 5 4 2 0 4 1 0 0 0 22 0 6 1 0 0 0 30 6 10 4 21 0 59 66 32 53 9 0 18 87 100 100 100 99 95 18 100 100 100
100 99 41 15 16 43 5 5 4 6 1 0 1 4 12 48 0 0 22 9 0 98 32 12 94 36 4 25 38 64 86 98 91 20 27 17 39 100 100 100 98 100 98 78 15
92 72 99 6 95 97 15 5 5 5 5 3 0 13 69 2 0 0 21 78 18 97 100 98 97 56 97 29 99 98 82 100 57 78 96 70 0 0 0 4 82 100 100 97 44
100 100 81 77 97 93 100 24 98 7 18 5 0 46 100 0 5 2 6 0 0 24 84 100 100 97 91 97 75 21 100 5 3 100 17 98 1 0 0 1 0 90 100 100 80
100 100 100 100 87 68 88 100 31 13 96 62 10 19 27 5 5 5 4 2 8 95 83 13 5 14 100 88 70 5 11 4 1 33 93 18 1 0 0 3 1 0 51 100 99
100 100 100 100 100 77 6 90 39 22 100 100 18 69 5 46 30 5 5 10 21 75 100 90 78 86 45 73 60 83 45 2 5 4 9 5 17 0 3 0 0 0 18 24 5
100 100 100 100 100 100 19 76 61 71 97 100 100 59 9 30 5 5 5 26 73 100 100 100 88 27 96 96 58 8 71 5 4 5 53 6 2 2 1 0 0 2 78 12 5
100 100 100 100 99 97 85 79 11 77 100 100 100 100 89 49 95 100 74 61 100 100 100 100 24 75 100 90 34 7 34 32 43 61 87 25 21 1 2 0 0 3 4 5 5
100 100 100 100 79 100 100 100 61 42 100 100 100 100 99 100 97 96 42 72 67 100 82 61 13 100 100 100 89 75 25 19 86 48 100 76 26 25 1 0 4 0 0 5 5
100 100 100 100 100 99 100 100 79 98 100 88 100 100 100 100 100 100 100 89 92 9 62 61 45 100 99 11 100 100 4 9 39 87 87 17 49 0 0 0 0 0 0 5 4
100 100 100 100 100 100 100 100 99 100 100 72 100 72 100 100 100 98 100 100 100 100 100 35 100 100 88 11 5 13 47 40 100 100 99 6 60 0 4 0 1 0 0 0 0
100 100 100 100 100 100 100 100 100 100 65 64 100 100 100 100 100 100 100 100 100 100 99 100 100 32 2 64 24 27 78 100 100 100 99 90 37 0 4 0 0 0 2 4 5
100 100 100 100 100 100 100 100 100 100 11 90 100 100 94 100 100 100 100 100 100 100 86 100 84 97 96 100 77 100 95 100 100 100 96 81 89 0 0 5 5 0 4 5 5
100 100 100 100 100 100 100 99 100 51 66 100 100 100 100 100 100 100 100 100 98 95 72 96 93 99 95 86 16 100 100 100 100 100 38 80 18 5 5 4 5 3 5 5 5
100 100 100 100 100 100 100 100 62 81 94 100 100 100 100 100 100 100 96 85 85 100 100 100 100 100 63 57 100 100 100 100 100 100 37 47 54 0 0 2 5 5 0 5 5
100 100 100 100 100 100 100 100 94 100 100 100 100 100 97 82 95 93 82 56 100 100 100 100 100 100 100 100 100 100 100 100 100 66 85 94 15 0 0 0 0 5 0 0 5
100 100 100 100 100 100 100 100 100 100 100 100 100 100 16 43 20 50 100 100 86 44 100 100 100 100 100 100 100 100 100 100 100 100 94 53 86 0 0 0 0 0 0 3 5
100 100 100 100 100 100 100 100 100 100 100 100 100 98 34 100 5 53 68 100 100 100 100 100 100 100 100 100 100 100 100 77 100 100 100 58 4 0 0 0 0 0 0 5 5
100 100 100 100 100 100 100 100 100 100 100 100 100 97 4 100 98 100 100 100 100 100 100 100 100 100 100 100 100 100 100 99 100 100 100 65 32 5 0 0 0 0 0 0 0
100 100 100 100 100 100 100 100 100 100 100 100 100 98 21 62 67 100 100 100 100 100 100 100 100 100 100 100 100 81 100 100 100 94 70 8 5 5 1 4 0 0 0 0 0
100 100 100 100 100 100 100 100 100 100 100 100 100 100 6 85 98 66 100 100 100 100 100 100 100 100 100 100 100 100 100 100 82 89 21 26 5 5 5 5 1 0 1 5 5
100 100 100 100 100 100 100 100 100 100 100 100 100 100 68 15 24 66 100 100 100 100 100 100 100 100 100 100 100 100 44 71 100 26 83 24 5 30 5 2 2 3 0 0 0
100 100 100 100 100 100 100 100 100 100 100 100 100 100 99 95 100 99 100 77 100 100 100 100 100 75 86 76 100 100 100 100 100 100 93 100 100 9 52 5 5 0 0 0 0

GFSSW_prec_cloud_015.txt.gz
Cloud_Cover
100 100 53 5 1 26 35 5 0 0 0 60 100 100 70 92 94 55 6 0 0 0 0 0 0 0 0 0 0 0 0 0 0 0 0 0 44 100 100 100 100 100 87 9 88
100 100 100 58 32 86 93 7 0 1 0 0 95 63 100 100 99 78 0 0 0 0 0 0 0 0 0 0 0 0 0 0 0 0 0 0 1 100 100 100 100 100 82 6 81
100 100 100 100 69 100 100 14 5 2 4 0 0 0 13 100 85 1 0 0 0 5 1 0 0 0 0 0 0 0 0 0 0 0 0 0 4 5 100 100 100 100 94 5 100
100 100 100 100 100 92 100 45 7 7 4 3 0 0 0 0 22 0 0 0 0 3 3 2 0 0 0 0 0 42 0 0 0 0 0 0 1 1 23 100 100 100 100 16 98
100 100 100 100 100 86 81 35 100 43 19 5 5 5 0 0 17 0 0 0 0 0 1 3 5 1 0 0 0 1 0 0 0 0 0 0 1 0 0 1 48 100 100 35 78
100 100 100 100 100 100 100 100 84 6 5 12 5 5 5 65 0 0 0 0 0 0 0 0 3 5 8 0 59 20 2 0 0 0 0 3 5 5 0 0 0 22 82 71 51
100 100 100 100 100 100 100 100 100 71 64 6 19 39 5 0 0 0 6 0 0 0 2 36 4 41 5 4 2 5 1 2 0 2 1 0 9 5 0 0 0 3 100 100 68
100 100 100 100 100 100 100 100 100 76 18 20 5 100 100 2 0 0 3 0 0 0 3 69 91 65 100 17 22 4 32 5 0 5 2 94 6 4 0 0 0 2 100 100 99
100 100 100 100 100 100 100 100 100 98 63 48 64 100 100 8 0 0 0 0 0 0 4 4 45 99 18 65 37 13 19 18 5 0 12 59 4 4 0 0 0 0 95 100 100
100 100 93 100 100 100 100 100 100 100 100 100 98 100 81 42 5 0 1 5 5 3 3 3 1 5 5 36 100 68 54 12 4 5 7 5 5 1 0 0 0 0 1 100 100
100 100 69 4 15 99 100 100 100 100 100 18 96 99 5 71 5 5 4 6 5 21 59 5 14 93 27 9 7 5 5 5 4 4 4 4 5 0 0 5 0 0 0 0 0
95 100 99 85 21 45 90 82 100 100 100 91 84 100 100 81 100 11 54 32 74 100 20 37 93 75 5 5 5 5 22 6 5 7 4 4 5 0 0 0 0 0 0 0 0
100 100 100 99 100 100 100 100 66 54 100 100 100 97 100 72 100 100 97 97 51 78 21 7 6 98 5 5 6 5 22 14 18 12 6 43 5 0 0 2 0 0 0 1 0
100 100 100 6 100 100 100 100 100 96 100 99 100 100 100 100 100 99 100 100 100 46 90 15 27 50 30 5 8 29 49 6 5 82 98 90 78 0 2 5 2 0 0 0 0
100 100 100 25 42 100 70 42 100 100 86 99 99 100 100 100 100 92 99 100 100 84 92 28 35 100 5 37 96 8 87 11 87 12 98 100 100 2 2 4 0 0 0 0 0
100 100 100 100 100 92 66 9 42 82 100 64 83 100 91 99 100 100 100 100 100 100 100 88 81 50 100 100 100 47 72 100 100 100 98 94 96 93 2 0 0 0 0 0 0
100 100 100 100 77 90 89 91 60 100 100 70 100 88 100 100 100 100 100 100 100 100 100 100 100 100 100 100 77 6 70 85 52 100 67 62 100 100 3 0 0 0 0 0 0
94 100 100 100 100 100 100 99 98 100 99 97 100 100 100 100 97 100 100 100 100 100 100 100 100 100 100 82 91 77 100 97 55 7 100 100 100 100 18 0 0 0 0 0 3
100 100 100 100 100 100 100 100 100 80 82 100 100 100 100 99 94 100 100 100 81 96 78 100 97 95 52 100 95 10 87 9 100 98 100 100 100 100 97 74 2 0 0 0 0
100 100 100 100 100 100 100 100 100 95 100 100 100 100 100 41 100 100 84 17 55 90 100 100 98 100 100 100 73 100 19 69 100 100 100 100 100 100 98 24 1 0 0 0 0
100 100 100 100 100 100 100 100 100 100 100 100 100 100 100 8 46 33 74 39 10 53 100 100 100 100 100 100 45 88 98 98 100 100 100 93 100 99 100 88 5 0 0 0 0
100 100 100 100 100 100 100 100 100 100 100 100 100 100 100 5 5 5 5 92 100 100 100 98 100 100 100 99 100 100 100 100 100 100 100 100 100 10 5 39 4 0 0 1 0
100 100 100 100 100 100 100 100 100 100 100 100 100 100 6 88 86 88 100 100 100 100 100 100 100 100 100 100 100 100 100 100 100 100 98 100 100 36 5 4 0 0 0 4 0
100 100 100 100 100 100 100 100 100 100 100 100 100 100 91 27 100 100 100 100 100 100 100 100 100 100 100 100 100 100 100 100 100 100 100 100 100 99 72 5 0 0 0 0 0
100 100 100 100 100 100 100 100 100 100 100 100 100 100 100 96 100 100 100 100 100 100 100 100 100 100 100 100 100 100 100 100 100 100 100 100 100 100 100 33 4 0 0 0 0
85 100 100 100 100 100 100 100 100 100 100 100 100 100 100 100 77 90 100 100 100 100 100 100 100 100 100 100 100 100 100 100 100 100 100 100 100 95 12 2 0 0 0 0 0
100 100 100 100 100 100 100 100 100 100 100 100 100 100 100 100 100 100 100 100 100 100 100 100 100 100 100 100 100 100 100 100 100 100 100 33 60 6 5 4 3 0 0 0 0

GFSSW_prec_cloud_018.txt.gz
Cloud_Cover
1 2 0 98 100 100 100 64 6 5 32 28 60 73 100 100 100 86 33 0 0 0 0 0 0 0 0 0 0 0 0 2 0 0 0 0 0 0 0 0 84 100 100 100 100
8 99 9 100 100 100 100 100 83 51 54 39 5 77 96 97 72 78 1 0 0 0 0 0 0 0 0 0 0 0 7 0 0 0 0 0 3 0 0 0 0 12 100 52 100
96 100 100 100 100 100 100 100 97 6 99 100 79 6 77 55 94 48 0 0 0 15 0 0 0 0 0 0 0 0 15 0 0 0 0 0 0 0 0 0 0 2 96 79 100
100 100 100 100 100 100 100 100 98 19 63 100 99 25 5 5 18 2 0 0 0 21 7 0 0 0 0 0 0 0 0 0 0 0 0 0 0 0 0 0 0 0 1 89 100
100 100 100 100 100 100 100 100 100 100 100 100 100 99 5 31 23 51 1 0 0 0 7 0 0 1 0 0 0 0 0 0 0 0 0 0 0 0 0 0 0 0 0 24 100
100 100 100 100 100 100 100 100 100 100 100 100 100 100 100 37 5 12 5 0 0 0 5 1 2 2 3 1 0 0 0 0 0 0 0 0 0 0 0 0 0 0 0 0 91
100 100 100 100 100 100 100 100 100 100 100 100 100 100 100 85 15 88 43 2 4 0 0 0 0 2 28 5 3 2 0 0 0 0 0 0 0 0 0 0 0 0 0 0 0
100 96 100 100 100 100 100 100 100 100 100 100 100 100 100 78 27 32 8 1 2 5 3 78 70 55 99 80 6 6 2 1 0 0 0 23 0 0 0 0 0 0 0 0 0
100 96 93 100 100 100 100 100 100 100 100 100 100 100 100 100 28 35 89 5 5 5 25 100 99 95 100 96 98 36 36 4 5 6 3 1 0 0 0 0 0 0 0 0 0
97 100 100 100 100 100 100 100 100 100 100 100 100 100 100 100 94 14 5 71 8 11 10 96 100 86 74 95 90 100 5 5 5 4 4 1 0 0 0 0 0 0 0 0 0
5 68 88 100 100 48 100 100 100 100 100 100 100 100 100 100 100 60 58 75 5 5 5 2 28 40 5 3 5 5 32 6 5 23 4 9 0 2 4 0 0 0 0 0 0
27 40 100 100 100 58 12 100 100 100 100 100 100 100 100 100 100 100 21 5 5 18 6 67 64 5 5 2 5 5 26 22 5 5 19 6 3 1 0 0 0 0 0 0 0
84 17 63 100 100 69 29 52 4 17 52 50 31 100 100 100 100 100 98 18 12 82 80 99 24 3 5 5 15 5 12 24 48 32 5 81 8 0 0 0 0 0 0 0 0
100 48 84 100 97 18 97 13 25 17 92 100 100 86 100 100 100 100 100 100 100 68 100 100 68 50 41 50 7 32 5 5 19 53 73 22 51 5 3 0 0 0 4 0 0
100 99 76 100 15 18 5 5 17 90 14 100 98 76 100 97 70 100 81 100 100 94 100 51 76 90 47 95 89 15 6 5 5 31 67 4 78 7 0 0 0 0 0 0 0
100 100 99 100 99 66 94 92 84 64 34 100 88 76 74 100 100 100 100 100 100 100 96 91 83 72 8 97 61 54 18 56 36 89 96 3 6 2 0 0 0 0 0 0 0
100 100 94 84 36 100 100 100 56 41 95 99 68 16 77 100 100 71 59 100 100 100 100 100 100 100 80 100 100 100 100 100 87 85 38 2 2 0 0 0 0 0 0 0 0
100 100 100 40 100 100 95 94 61 59 93 69 67 100 100 100 99 97 100 99 100 100 100 100 100 100 100 100 100 100 100 100 98 62 7 39 6 3 33 0 0 0 0 0 0
100 100 100 100 87 95 100 98 95 100 8 60 100 100 100 100 77 90 94 100 100 97 100 99 91 99 100 100 100 100 100 100 100 100 100 2 0 99 26 0 0 0 0 0 0
100 100 100 100 100 100 100 57 100 68 14 36 85 100 100 100 85 100 86 4 63 98 100 99 82 72 96 97 95 100 100 100 74 66 41 10 80 6 62 51 10 0 0 0 2
100 100 100 100 100 100 100 82 64 50 68 94 100 100 100 99 33 91 38 2 4 5 49 91 100 100 87 99 97 95 100 67 5 2 91 98 100 100 100 100 100 28 12 5 1
100 100 100 100 100 100 100 61 32 96 100 100 100 100 100 99 71 13 9 97 8 78 74 86 100 100 100 100 100 100 18 8 86 99 100 100 100 100 100 98 100 100 97 64 1
100 100 100 100 100 100 100 85 100 100 100 100 100 100 100 92 50 58 99 100 100 100 100 100 100 100 100 100 100 100 99 100 100 100 100 100 100 100 100 100 100 100 100 65 0
100 100 100 100 100 100 100 100 100 100 100 100 100 100 99 76 61 39 100 100 100 100 100 100 100 100 100 100 100 100 100 100 100 100 100 100 100 100 100 100 100 100 100 20 0
100 100 100 100 100 100 100 100 100 100 100 100 100 100 100 99 71 98 100 100 100 100 100 100 100 100 100 100 100 100 100 100 100 100 100 100 100 100 100 100 100 100 91 4 5
100 100 58 53 100 100 100 100 100 100 100 100 100 100 100 100 100 99 100 100 100 100 100 100 100 100 100 100 100 100 100 100 100 100 100 100 100 100 100 100 100 100 94 5 5
100 93 46 100 100 100 100 100 100 100 100 100 100 100 100 100 100 100 82 100 100 100 100 100 100 100 100 100 100 100 100 100 100 100 100 100 100 100 100 100 100 94 32 5 5

GFSSW_prec_cloud_021.txt.gz
Cloud_Cover
77 5 5 7 5 2 4 10 25 100 100 98 95 49 49 29 26 82 82 0 0 0 0 0 0 0 0 0 0 0 0 9 0 0 0 0 0 0 0 0 0 0 5 97 100
100 65 3 5 5 4 5 4 55 91 100 100 20 99 96 100 92 100 12 0 0 0 0 0 0 0 0 0 0 0 20 0 0 0 0 0 0 0 0 0 0 0 0 2 100
100 100 43 5 5 3 12 86 28 98 100 100 99 48 99 90 97 95 2 0 1 2 0 0 0 0 0 0 0 0 0 0 0 0 0 0 0 4 0 0 0 0 0 0 13
99 100 98 1 83 3 45 100 100 100 100 100 100 62 65 98 100 100 13 2 0 59 16 0 0 0 0 0 0 0 0 0 0 0 0 0 0 0 0 0 0 0 0 0 0
98 85 100 8 12 78 100 100 100 100 100 100 100 100 100 69 100 100 100 3 6 68 37 39 0 0 0 0 0 0 0 0 0 0 0 0 0 0 0 0 0 0 0 0 0
100 100 100 100 68 100 100 100 100 100 100 100 100 100 100 86 100 100 99 49 6 52 50 16 2 0 3 2 2 0 0 0 0 0 0 0 0 0 0 0 0 0 0 0 0
100 100 100 100 91 100 100 100 100 100 100 100 100 100 100 100 100 100 100 100 35 5 4 5 0 31 49 5 4 2 0 0 0 0 0 0 0 0 0 0 0 0 0 0 0
100 100 94 100 91 100 100 100 100 100 100 100 100 100 100 100 100 100 100 100 100 100 12 5 22 2 98 62 77 93 38 14 1 0 0 0 0 0 0 0 0 0 0 0 0
100 96 99 94 100 100 100 100 100 100 100 100 100 100 100 100 99 100 100 100 100 100 98 68 100 33 80 100 100 100 49 33 9 0 0 0 0 0 0 0 0 0 0 0 0
100 100 98 79 100 100 100 100 100 100 100 100 100 100 100 100 99 100 100 100 100 100 100 53 98 100 99 96 89 100 87 34 5 3 5 0 1 1 0 0 0 0 0 0 0
100 100 100 36 98 100 64 100 100 100 100 100 100 100 100 100 100 100 100 100 100 96 99 26 62 88 13 74 18 6 53 100 100 69 4 2 3 0 0 0 0 0 0 0 0
100 100 100 100 95 99 100 91 99 68 100 100 100 100 100 100 100 100 100 98 100 100 95 20 35 76 60 48 17 5 77 96 63 6 5 5 1 0 0 0 0 0 0 0 0
100 100 100 100 91 100 100 23 5 7 23 100 97 100 93 99 100 100 49 64 21 35 74 97 97 99 5 5 9 6 52 31 53 5 4 3 0 0 0 0 0 0 0 0 0
100 100 100 100 100 100 100 70 46 17 14 19 51 60 87 36 55 100 100 100 96 92 54 94 95 5 5 20 15 100 30 5 5 22 31 4 12 0 0 0 0 0 0 0 0
100 100 100 100 99 100 100 27 15 37 6 4 66 70 100 98 63 19 53 99 99 100 86 92 89 5 6 25 82 97 12 5 5 6 28 5 89 0 0 0 0 0 0 0 0
100 100 100 100 99 100 78 81 54 76 69 61 99 100 100 100 75 49 20 100 100 100 98 70 35 75 5 16 88 76 100 99 93 67 100 49 55 0 1 0 1 0 0 0 0
98 100 100 100 99 99 34 67 87 85 100 89 100 100 100 97 100 94 92 100 100 100 100 100 100 100 26 93 100 100 100 100 100 100 99 37 17 5 21 14 5 0 0 0 0
98 100 100 100 100 100 85 89 78 100 100 100 67 97 100 34 66 100 100 100 100 100 100 100 88 100 69 15 100 100 100 100 100 43 9 98 4 4 41 58 5 5 0 0 0
96 100 100 100 100 97 97 100 98 100 100 78 100 99 99 100 100 100 100 100 61 92 100 100 84 17 15 100 85 100 100 100 100 100 100 9 0 0 0 16 5 5 5 0 0
77 100 100 100 100 100 91 36 78 100 100 18 88 88 100 100 91 100 63 4 55 5 42 28 89 5 39 66 100 100 100 100 100 100 99 4 4 0 1 77 7 0 5 0 0
100 100 100 100 100 100 100 100 100 100 49 72 100 100 99 78 100 100 100 66 15 4 25 100 100 42 90 100 71 100 100 82 86 84 83 13 3 5 80 98 2 0 0 4 0
100 100 100 100 100 100 100 100 100 100 5 93 100 79 83 95 91 100 100 5 4 68 100 100 100 100 100 100 100 100 100 100 68 8 6 9 93 100 20 5 96 72 22 4 0
100 100 100 100 100 100 100 80 100 98 52 100 98 80 100 100 96 82 99 66 97 100 100 100 100 100 100 100 100 100 100 100 100 87 36 100 90 100 100 100 100 62 56 57 97
100 100 100 100 100 82 81 91 60 98 82 100 100 100 100 100 100 100 100 98 100 100 100 100 100 100 100 100 100 100 100 100 85 100 100 100 100 100 100 100 100 100 100 100 100
100 100 100 100 100 16 82 94 100 100 100 100 100 100 100 100 100 65 46 100 100 100 100 100 100 100 100 100 100 100 100 100 100 100 100 100 100 100 100 100 100 100 100 100 100
100 100 98 100 96 100 80 100 100 100 100 100 100 100 100 100 98 24 28 100 100 100 100 100 100 100 100 100 100 100 100 100 100 100 100 100 100 100 100 100 100 100 100 100 100
100 100 100 100 95 86 100 100 94 100 100 100 100 100 100 100 100 43 97 100 100 100 100 100 100 100 100 100 100 100 100 100 100 100 100 100 100 100 100 100 100 100 100 100 100

GFSSW_prec_cloud_024.txt.gz
Cloud_Cover
100 100 97 88 71 6 28 35 5 5 21 75 98 100 94 100 98 79 73 1 0 0 0 0 0 0 0 0 0 0 0 2 0 0 0 0 0 0 0 0 0 0 0 0 0
100 100 99 26 12 100 70 74 14 69 6 5 5 38 100 100 100 100 94 9 4 2 0 0 0 0 0 0 0 0 27 0 0 0 0 0 0 0 0 0 0 0 0 0 0
100 100 100 100 2 7 100 64 76 10 99 10 5 24 95 100 100 100 5 10 10 11 11 0 0 0 0 0 0 0 11 0 0 0 0 0 0 0 0 0 0 0 0 0 0
100 27 50 100 91 99 92 100 40 7 72 99 95 11 74 99 100 100 5 36 78 72 88 5 0 0 0 0 0 0 0 0 0 0 0 0 0 0 0 0 0 0 0 0 0
96 75 81 99 100 97 62 100 100 11 69 100 93 68 95 94 62 100 44 33 50 40 100 80 4 1 0 0 0 0 0 0 0 0 0 0 0 0 0 0 0 0 0 0 0
99 100 99 100 100 100 100 100 42 8 65 98 30 60 95 100 100 100 100 45 30 91 100 99 19 4 0 0 0 7 0 0 0 0 0 0 0 0 0 0 0 0 0 0 0
100 100 100 100 100 100 100 90 5 5 80 5 48 99 100 100 100 100 100 100 23 60 86 100 92 43 15 3 1 0 4 0 0 0 0 0 0 0 0 0 0 0 0 0 0
100 100 100 100 100 100 78 58 6 8 28 98 100 100 100 100 100 100 100 100 100 13 34 100 100 84 70 13 45 42 74 43 1 0 0 0 0 0 0 0 0 0 0 0 0
100 100 100 100 100 100 100 57 100 100 100 100 100 100 100 100 100 100 100 100 100 60 5 29 97 100 100 95 22 74 54 76 52 5 4 2 0 0 0 0 0 0 0 0 0
53 100 100 100 100 100 98 100 100 100 100 100 100 100 100 100 100 100 100 100 100 100 85 7 89 100 100 100 100 39 39 40 100 73 5 4 4 0 0 0 0 0 0 0 0
5 100 100 100 100 100 100 100 92 100 100 100 100 100 100 100 100 100 100 100 100 100 100 100 74 100 100 100 52 5 33 96 100 74 30 5 1 0 0 0 0 0 0 0 0
1 30 100 100 100 100 98 100 100 100 100 100 100 100 100 100 100 100 100 100 100 97 100 100 100 100 98 61 58 100 100 87 62 4 2 4 4 0 0 0 0 0 0 0 0
39 42 100 100 100 100 100 93 99 94 100 100 100 100 100 100 100 100 100 100 100 100 100 96 78 61 5 26 84 100 100 77 6 1 1 5 1 0 0 0 0 0 0 0 2
66 5 100 100 100 100 100 100 100 50 74 100 100 81 84 100 100 100 100 100 100 95 23 49 6 5 7 5 5 45 52 23 12 67 67 3 13 0 0 0 0 0 0 0 0
68 49 71 100 100 100 100 100 100 63 9 38 62 97 100 37 90 100 51 98 95 73 38 41 13 14 93 7 79 38 5 6 7 71 95 43 70 0 0 0 0 3 0 0 3
96 2 66 100 100 100 100 100 100 79 65 86 96 100 100 98 100 89 100 87 100 100 100 92 54 82 8 5 96 87 87 100 73 81 95 17 49 0 6 5 12 5 3 0 1
96 49 96 100 100 100 100 100 100 100 100 100 100 100 100 100 100 100 99 100 78 99 100 100 100 99 90 95 100 100 100 100 100 100 43 5 24 0 0 69 61 5 5 5 5
62 21 36 100 100 100 100 96 89 100 100 100 100 100 100 100 100 100 100 100 100 100 100 100 54 100 99 21 9 89 100 100 100 46 9 5 2 0 28 1 16 74 2 5 5
14 96 99 100 100 100 100 91 32 100 100 100 100 100 100 100 100 100 100 97 100 100 100 98 89 8 50 66 51 100 99 60 100 100 100 6 1 0 0 5 5 8 6 5 5
100 29 85 100 100 100 100 40 40 100 100 100 100 100 100 100 100 100 100 98 42 74 100 88 92 5 6 95 92 100 68 97 100 100 100 4 0 0 0 37 5 5 5 0 5
100 99 100 100 100 100 98 91 100 100 100 98 100 100 100 100 100 100 100 100 86 62 82 100 100 93 100 90 51 100 100 100 95 100 78 4 4 0 0 4 87 81 4 0 0
100 100 100 100 100 100 100 100 100 100 100 32 98 100 100 100 100 100 78 97 99 71 98 100 100 100 99 100 100 100 100 100 100 100 100 95 2 68 99 7 32 100 4 0 5
100 100 100 100 100 100 72 100 100 100 97 92 100 100 100 100 83 62 45 16 96 100 100 100 100 100 100 100 100 100 100 100 100 100 33 22 64 100 100 100 100 14 2 4 35
100 100 100 100 100 100 100 98 100 95 84 68 100 100 100 100 98 36 17 66 100 96 100 100 100 100 100 100 100 100 100 100 100 100 100 97 100 89 59 100 100 100 72 1 3
100 100 100 100 100 100 100 88 7 71 44 75 100 100 100 100 100 89 97 100 100 100 100 100 100 100 100 100 100 100 100 100 100 32 25 92 100 100 100 100 100 100 100 22 71
100 100 100 100 100 100 100 14 26 99 86 98 100 100 100 100 96 100 97 72 78 100 89 100 100 100 100 100 100 100 100 100 100 100 100 71 99 100 100 100 100 100 100 100 100
100 100 100 100 100 100 89 68 97 54 97 100 98 100 100 100 100 100 100 100 74 59 100 100 100 100 100 100 100 100 100 100 100 100 100 100 100 100 100 100 100 100 100 100 100

GFSSW_prec_cloud_027.txt.gz
Cloud_Cover
100 100 100 100 100 100 98 16 8 5 5 4 4 52 5 42 87 96 45 20 76 66 58 48 5 0 0 0 0 0 5 0 0 0 0 0 0 0 0 0 0 0 0 0 0
100 100 100 100 82 22 80 97 95 16 12 5 4 31 43 76 94 100 65 63 41 5 63 12 0 0 0 0 0 0 9 0 0 0 0 0 0 0 0 0 0 0 0 0 0
100 100 100 100 100 100 79 11 76 100 24 5 6 5 9 100 98 100 99 100 91 74 25 6 5 0 0 0 0 0 0 0 0 0 0 0 0 0 0 0 0 0 0 0 0
100 100 100 100 100 100 100 100 5 7 32 28 6 31 97 51 30 44 96 100 100 100 54 63 10 5 0 0 0 0 0 0 0 0 0 0 0 0 0 0 0 0 0 0 0
100 100 100 100 100 100 100 100 100 90 2 18 97 73 78 87 30 13 14 53 86 100 100 57 27 51 5 5 0 0 0 0 0 0 0 0 0 0 0 0 0 0 0 0 0
100 100 100 99 100 87 100 95 25 0 1 0 100 100 95 89 94 81 7 17 15 51 100 95 88 85 43 7 0 5 0 0 0 0 0 0 0 0 0 0 0 0 0 0 0
100 100 100 100 100 100 100 75 5 96 94 18 95 100 100 100 90 96 52 9 50 86 82 68 100 23 83 13 5 7 8 0 0 0 0 0 0 0 0 0 0 0 0 0 0
100 100 100 100 100 100 100 100 100 100 100 99 96 100 100 100 92 100 72 43 72 91 84 100 100 79 52 34 67 40 15 5 1 0 0 0 0 0 0 0 0 0 0 0 0
80 7 100 100 100 100 100 100 100 100 100 100 100 100 100 100 75 97 100 86 88 100 100 100 100 99 23 26 55 96 100 60 8 2 0 1 0 0 0 0 0 0 0 0 0
8 37 24 100 100 100 100 100 100 100 100 100 100 91 98 100 100 89 99 100 100 100 100 100 100 100 96 69 19 23 100 100 100 95 6 4 4 0 0 0 0 0 0 0 0
5 13 0 100 100 100 100 100 100 100 100 100 66 59 59 95 92 83 91 100 100 100 100 99 100 100 100 63 10 5 32 100 100 100 81 1 0 0 0 0 0 0 0 0 0
96 22 62 5 100 100 100 100 100 100 100 5 59 68 93 94 100 100 100 100 100 100 100 100 100 100 100 100 100 100 100 38 91 100 5 6 0 0 0 0 0 0 0 0 0
100 77 73 11 100 100 100 100 100 100 96 47 100 97 99 100 100 100 100 100 100 100 100 100 100 100 97 90 100 100 51 37 72 64 5 3 0 0 2 0 0 0 0 0 0
100 94 86 38 57 100 100 100 100 100 84 70 71 99 100 100 100 100 100 100 100 100 100 95 75 14 9 36 98 100 100 26 7 51 90 5 4 2 0 0 0 3 0 0 0
100 99 100 35 94 100 100 100 100 100 66 46 80 95 100 100 100 100 100 100 100 100 100 100 100 100 100 100 67 47 63 48 15 24 100 95 100 0 6 55 42 5 2 0 0
82 81 84 92 91 100 100 100 100 100 26 88 93 99 100 100 100 90 89 100 100 100 100 77 53 70 29 8 10 78 46 78 68 87 95 6 79 0 6 96 100 42 5 0 0
100 40 43 100 100 100 100 100 100 74 96 100 100 100 100 100 100 100 100 99 52 98 93 93 75 98 84 88 69 73 100 100 100 100 46 5 33 0 0 36 84 100 5 0 0
98 36 75 100 15 100 100 100 100 93 100 100 100 100 100 100 100 100 100 99 100 100 99 98 91 60 100 86 10 54 44 96 59 40 9 5 5 0 0 0 5 100 6 0 0
32 100 97 89 100 100 100 100 99 100 100 100 100 100 100 99 96 100 100 96 100 100 100 99 73 86 46 46 100 100 100 19 90 16 100 42 1 0 1 1 3 42 100 35 0
89 99 25 100 100 100 100 97 100 100 100 100 100 100 100 100 100 100 100 100 100 100 100 100 92 7 5 61 67 100 100 94 100 100 100 5 4 0 0 3 0 100 92 45 4
100 99 80 100 100 100 100 82 100 100 100 97 100 100 100 100 100 100 100 100 100 100 82 80 84 30 35 75 89 100 100 100 99 95 92 64 1 0 1 4 0 10 22 5 1
100 100 100 100 100 100 100 100 100 100 100 100 100 100 100 100 100 100 100 100 100 91 24 86 95 99 94 49 91 100 100 100 100 99 100 97 2 63 8 94 5 68 60 5 0
100 100 100 100 100 100 100 100 100 100 100 100 100 100 100 100 100 100 100 92 96 26 96 88 99 100 100 100 100 100 100 100 100 100 100 99 28 100 64 0 7 72 99 63 1
97 100 100 100 100 100 100 100 100 100 100 88 100 100 100 100 100 100 99 39 72 93 97 100 100 99 100 100 100 100 100 100 100 100 100 86 93 99 8 37 100 100 100 100 32
100 100 100 100 100 100 100 100 100 100 100 100 100 100 100 100 100 100 97 35 100 50 51 88 100 98 100 97 100 100 100 100 100 82 99 55 31 3 8 100 100 100 100 100 77
100 100 100 100 100 100 100 100 100 100 100 96 87 100 100 100 91 98 24 53 82 96 100 98 100 100 100 100 100 100 100 100 100 100 100 72 100 100 89 100 100 100 100 100 100
100 100 100 100 100 100 52 50 95 97 100 100 100 100 100 100 94 87 100 100 99 100 99 100 100 100 100 100 100 100 100 100 100 100 100 100 24 100 98 89 100 100 100 100 100

GFSSW_prec_cloud_030.txt.gz
Cloud_Cover
100 100 100 100 100 100 96 100 100 76 17 5 33 89 100 100 100 100 100 100 100 100 66 21 41 96 79 13 7 5 14 5 3 0 0 0 0 0 0 0 0 0 0 0 0
100 100 100 100 100 100 96 30 94 100 97 58 5 20 5 81 100 100 100 100 100 100 93 72 28 77 97 54 6 5 5 5 5 0 0 0 0 0 0 0 0 0 0 0 0
100 100 100 100 100 100 100 99 54 94 94 97 81 5 5 5 69 99 98 100 98 100 92 100 100 45 100 100 75 5 5 5 5 0 0 0 0 0 0 0 0 0 0 0 0
100 100 100 100 100 100 100 100 100 99 100 100 100 74 98 35 21 9 5 88 94 95 83 18 18 10 7 45 100 49 5 4 0 0 0 0 0 0 0 0 0 0 0 0 0
100 99 100 100 94 100 100 100 100 100 100 98 100 100 100 78 80 65 18 54 73 100 100 97 78 86 8 44 96 73 16 5 2 0 0 0 0 0 0 0 0 0 0 0 0
100 100 97 100 100 100 100 100 100 100 100 100 99 94 100 100 96 100 12 23 48 99 98 100 100 100 100 78 60 63 31 11 5 0 0 0 0 0 0 0 0 0 0 0 0
36 100 44 100 100 100 100 100 100 100 57 55 100 100 97 100 100 100 99 61 64 76 92 95 100 100 100 95 83 82 43 15 15 5 5 0 0 0 0 0 0 0 0 0 0
82 9 22 5 100 100 100 100 100 100 100 100 100 68 36 20 36 100 100 97 55 78 75 100 97 94 57 27 33 50 66 47 21 5 7 7 34 0 0 0 0 0 0 0 0
9 5 5 1 88 100 100 100 99 100 100 100 100 100 60 17 2 40 100 100 100 100 100 77 58 100 100 68 65 49 42 76 27 5 5 8 13 5 0 0 0 0 0 0 0
65 8 27 5 6 100 100 100 100 100 100 100 100 97 10 4 21 5 14 100 100 100 100 93 41 39 29 18 22 5 20 57 71 5 5 5 5 82 5 5 0 0 0 0 0
5 44 68 29 1 100 100 100 100 100 100 100 100 100 100 100 100 100 77 100 100 100 100 100 100 100 96 35 12 6 6 27 100 63 5 9 68 99 100 82 35 0 0 0 0
37 49 100 100 5 85 100 100 100 100 100 100 100 100 100 100 100 100 100 100 100 100 100 100 100 100 100 100 100 100 67 33 99 100 5 6 25 100 100 100 100 80 9 0 0
5 48 98 88 42 32 100 100 100 100 100 100 100 100 100 100 100 100 100 100 100 100 100 100 100 100 100 100 100 100 100 98 65 40 43 5 19 90 84 100 100 98 72 32 5
100 34 87 38 24 60 100 100 100 100 100 100 100 100 100 100 85 93 100 100 100 100 100 100 99 100 100 100 99 58 40 29 64 86 84 49 13 5 14 100 93 40 24 34 5
100 100 24 97 94 5 52 100 100 100 100 100 97 100 99 90 89 100 100 90 94 100 100 100 100 100 100 100 74 90 71 56 69 100 99 41 99 5 72 24 78 5 0 0 3
100 100 100 64 100 26 100 100 100 100 62 100 88 99 100 89 78 86 93 100 100 100 100 100 100 100 98 43 6 44 66 74 88 100 94 15 84 0 1 5 5 5 0 0 0
100 97 88 75 76 96 100 100 100 100 75 100 100 100 100 100 96 66 100 100 100 100 100 89 90 63 86 87 80 100 100 100 100 100 32 4 82 0 16 0 2 1 0 0 0
100 10 59 47 44 100 100 100 100 83 88 100 100 100 100 100 100 100 100 100 100 100 95 83 100 86 72 73 78 100 100 76 23 20 15 71 14 0 0 0 0 0 0 0 0
100 100 87 64 100 100 100 100 100 100 100 100 100 100 100 100 100 100 100 99 100 95 88 100 100 7 21 12 56 86 97 13 97 76 99 6 0 0 0 0 0 0 0 0 4
100 99 88 98 93 100 100 100 100 100 100 100 100 100 100 100 100 100 96 53 93 86 99 87 88 21 10 71 50 63 47 90 98 88 100 12 32 63 2 0 0 0 0 0 1
100 92 62 14 100 100 100 100 100 100 100 100 100 100 100 94 43 47 37 29 96 100 92 100 100 100 100 80 18 100 100 98 100 100 100 98 83 100 86 48 1 0 0 0 5
100 100 98 45 100 100 100 100 99 100 100 100 100 100 100 100 99 78 88 100 100 100 100 100 100 100 71 0 5 44 93 100 100 100 100 100 44 100 100 78 5 0 0 0 80
100 100 100 100 100 100 100 100 100 100 100 100 100 100 100 100 100 100 100 100 100 100 100 86 95 96 91 15 69 88 86 100 100 100 95 100 42 100 100 93 78 3 0 0 99
100 100 100 100 100 100 100 100 98 100 98 100 100 100 100 100 100 100 100 100 100 93 93 100 73 8 47 52 100 99 100 100 100 100 76 84 59 100 97 100 93 5 0 1 92
100 100 66 100 100 100 100 100 99 100 100 100 100 100 100 100 100 100 100 59 21 85 100 81 100 90 99 38 52 99 99 91 100 95 100 96 96 23 100 95 50 3 3 8 93
100 100 100 100 100 100 100 100 88 100 100 100 100 100 100 100 100 97 81 65 92 100 100 96 91 73 100 91 97 100 100 100 100 100 100 100 100 100 23 100 100 100 100 100 87
100 100 100 100 100 100 100 48 71 100 100 100 100 100 100 100 100 100 100 99 100 100 47 100 100 100 99 98 100 100 100 100 100 100 99 100 100 100 90 100 100 100 100 95 82

GFSSW_prec_cloud_033.txt.gz
Cloud_Cover
100 100 100 100 100 100 100 100 100 100 100 5 40 100 100 100 100 100 100 100 100 100 100 100 100 100 100 90 76 29 19 32 80 4 5 0 1 5 3 0 0 0 0 0 0
100 100 100 100 100 100 100 100 100 100 100 96 5 21 100 100 100 100 100 100 100 100 100 100 100 100 100 100 46 40 73 62 7 5 5 5 4 1 5 3 0 0 0 0 0
100 100 100 100 100 100 100 100 100 100 100 100 100 17 24 46 100 100 100 100 100 100 100 100 100 100 100 73 24 91 77 39 5 5 0 0 0 3 5 5 2 0 0 0 0
49 100 100 100 100 100 100 100 100 100 100 100 100 100 73 21 74 99 90 100 100 100 100 100 100 100 100 97 6 6 47 99 23 5 5 0 0 0 0 0 0 0 0 0 0
4 6 100 100 100 100 100 100 100 100 100 100 76 100 100 76 10 37 51 94 100 100 100 100 100 100 100 100 61 24 33 79 100 61 5 5 5 0 0 0 0 0 0 0 0
2 3 16 97 31 100 100 100 100 100 100 100 100 88 60 100 97 48 83 40 26 100 100 100 100 100 100 100 100 40 5 29 73 100 7 5 5 0 0 0 0 0 0 0 0
2 5 5 82 65 65 100 100 100 100 100 100 100 100 100 46 100 100 100 95 36 46 81 100 100 100 100 100 90 97 24 5 6 26 95 6 12 2 0 0 0 0 0 0 0
3 5 5 5 26 96 100 100 100 100 100 100 100 100 100 100 100 100 100 100 100 100 67 77 53 94 100 100 100 59 27 62 32 7 62 41 6 5 5 4 2 0 0 0 0
0 2 5 4 5 68 100 100 100 100 100 100 100 100 100 100 98 100 100 100 100 100 100 98 45 69 66 100 100 97 100 100 100 100 65 13 9 5 5 5 5 5 0 0 0
1 3 1 0 52 5 98 100 100 100 100 100 100 99 66 79 99 100 100 94 100 100 100 100 100 100 88 99 94 32 57 76 54 8 34 11 5 5 5 6 30 63 80 2 0
74 5 1 4 94 24 21 100 100 100 100 90 100 100 100 100 100 98 100 100 100 100 100 100 100 100 98 57 46 43 45 34 12 5 5 5 32 100 33 6 20 5 6 77 5
99 19 5 54 90 97 44 100 100 100 100 100 100 100 100 100 96 22 75 65 100 100 100 94 100 100 100 100 100 68 29 5 5 5 5 5 5 7 99 24 5 35 74 100 100
73 8 100 5 55 6 35 100 100 100 100 98 58 100 100 100 100 100 100 60 100 100 100 47 98 100 100 100 100 100 54 30 5 5 5 5 10 5 50 8 63 25 73 100 100
84 94 100 86 8 31 37 100 100 100 100 100 99 98 100 100 100 100 92 58 95 100 100 94 89 100 100 100 100 100 100 69 23 29 10 6 2 5 5 7 86 100 100 100 100
36 83 100 100 22 24 15 100 100 100 100 100 100 92 100 100 100 100 100 100 100 100 100 100 100 100 100 100 100 100 100 100 100 92 80 62 45 5 99 74 96 98 100 84 5
100 100 100 100 79 62 58 100 100 100 100 100 100 94 100 100 100 100 100 100 100 100 100 100 100 100 100 100 100 100 100 100 100 100 76 21 5 4 52 7 94 98 5 2 1
100 83 86 98 94 81 99 100 100 100 91 100 100 100 100 100 100 100 100 100 100 100 100 100 100 100 100 100 100 100 100 100 83 98 5 1 15 0 4 0 0 0 2 0 0
100 94 100 11 85 34 100 100 100 100 85 62 100 100 100 100 100 100 99 100 100 100 100 98 100 100 100 100 95 100 95 7 1 2 3 5 1 0 0 2 0 0 0 0 0
100 93 100 100 100 100 100 100 100 100 100 100 99 100 100 99 100 100 100 100 96 100 97 100 100 99 74 49 54 53 94 15 87 57 54 0 0 0 9 0 0 0 0 0 4
100 98 100 45 66 100 100 100 100 100 97 87 100 100 100 100 100 100 90 72 100 96 46 100 76 31 69 82 90 48 36 83 100 86 80 4 3 30 86 95 99 22 48 5 15
100 96 100 100 93 100 100 100 100 100 100 100 100 100 100 100 100 100 89 48 68 94 98 100 92 90 61 35 10 86 89 48 81 89 100 78 42 100 4 5 45 95 100 100 78
100 100 88 100 100 100 100 100 100 100 100 100 100 100 100 100 100 97 73 54 50 42 99 99 99 58 9 13 70 97 58 95 100 41 100 100 100 100 37 97 80 90 99 68 100
88 100 84 100 100 100 100 100 100 100 100 100 100 100 100 100 85 97 73 39 23 21 52 96 97 41 52 86 56 61 41 100 100 100 100 100 100 100 92 83 100 100 96 62 20
100 100 100 100 100 100 100 100 100 100 100 100 100 100 100 100 73 71 34 7 5 46 100 100 99 60 97 44 74 71 52 100 100 100 100 100 85 100 100 100 53 94 98 95 92
100 100 100 100 100 99 100 100 100 100 98 100 100 100 100 100 74 100 100 100 100 100 99 95 93 87 51 23 74 98 100 100 100 100 100 100 99 100 100 100 100 95 100 82 7
100 100 100 100 100 100 90 100 98 81 75 100 100 100 100 83 96 100 100 100 100 83 100 100 98 100 98 57 72 97 100 100 100 100 100 100 100 99 100 100 100 100 100 64 26
100 100 100 100 100 100 98 81 77 74 100 100 100 77 100 100 100 100 100 99 71 98 100 97 100 100 100 100 97 99 100 100 100 100 100 100 87 100 100 100 100 100 100 82 100

GFSSW_prec_cloud_036.txt.gz
Cloud_Cover
17 89 99 100 100 100 100 100 100 100 100 92 13 100 100 100 100 100 100 100 98 100 100 100 100 100 95 25 10 63 6 55 88 4 4 0 0 4 0 4 0 4 0 0 4
0 1 76 100 100 100 100 100 100 100 100 100 100 35 96 100 100 100 100 100 100 100 100 100 100 100 98 100 77 42 5 26 5 5 5 2 0 3 3 5 2 5 0 0 0
5 4 3 41 96 100 98 100 100 100 100 100 100 100 42 57 100 100 100 100 100 100 100 100 100 100 100 100 100 100 98 100 24 5 5 5 0 0 3 5 12 8 4 4 4
5 5 0 2 61 100 100 100 100 100 100 100 100 100 100 36 26 100 100 100 100 100 100 100 100 100 100 100 100 100 100 100 100 13 75 22 4 5 0 2 5 5 1 0 5
15 51 24 5 72 100 100 100 100 100 100 100 100 100 100 100 55 18 91 100 100 100 100 100 100 100 100 100 100 100 100 100 98 11 52 5 24 5 2 0 0 0 0 0 0
26 34 85 49 27 34 63 100 100 100 100 100 100 100 96 100 100 100 26 58 100 100 100 100 100 100 100 100 100 100 100 100 100 77 7 5 13 10 16 5 0 1 2 0 0
3 5 28 59 7 13 22 55 100 100 100 100 100 100 100 96 100 100 100 54 28 100 100 100 100 100 100 100 100 100 100 100 100 100 52 5 5 98 90 7 5 5 4 5 0
68 3 7 8 4 9 4 7 100 100 100 100 100 100 100 100 96 100 100 100 74 100 97 100 100 100 100 100 100 100 100 100 100 100 100 40 59 5 46 15 5 3 0 0 0
82 85 5 5 1 5 44 5 95 100 100 100 100 100 100 100 100 100 100 100 100 97 100 75 99 77 99 100 100 100 100 100 100 100 100 16 5 5 5 5 5 5 3 4 3
28 5 97 10 0 0 6 43 62 100 100 100 100 100 100 100 100 100 100 100 100 100 99 70 100 27 35 80 100 100 100 100 100 64 16 5 5 5 4 5 5 50 6 5 5
65 100 80 5 30 92 31 4 52 99 100 100 100 100 100 100 100 100 100 100 100 100 100 100 100 100 100 44 5 6 92 85 91 77 74 42 5 5 5 5 41 5 5 5 5
60 73 5 13 73 50 97 87 83 99 100 100 100 87 100 100 100 100 100 100 100 100 100 100 100 100 100 100 100 76 23 8 5 5 5 5 4 5 5 5 6 11 48 65 5
8 6 70 93 100 51 6 37 100 100 100 100 100 100 100 100 100 100 100 100 100 100 100 100 100 100 100 100 100 100 88 64 9 5 5 1 1 2 5 10 5 11 5 7 30
5 97 100 100 97 54 11 3 100 100 100 100 100 99 100 41 100 100 100 100 98 100 100 100 100 47 100 100 100 100 100 100 87 6 5 5 3 5 5 69 91 60 7 5 5
93 96 100 100 100 99 91 27 100 100 100 100 100 100 100 91 99 98 100 100 100 100 70 96 99 98 77 65 86 100 100 100 100 100 84 30 5 43 89 50 41 5 19 5 5
74 58 96 100 98 71 32 52 100 100 100 100 100 100 82 96 95 98 100 100 100 100 100 78 87 17 20 31 26 14 56 10 26 88 85 100 28 5 90 98 100 88 26 5 2
76 100 74 97 98 47 58 100 100 100 100 100 100 100 70 100 100 100 100 100 100 100 98 72 73 72 5 30 10 65 98 80 95 99 90 77 27 100 99 100 52 83 7 5 2
99 82 96 100 18 5 88 100 100 100 100 100 100 100 100 100 100 100 100 100 100 100 100 93 92 42 91 99 100 100 100 100 64 100 98 99 100 55 89 96 73 3 2 0 0
100 42 97 100 6 8 100 100 100 100 100 100 100 100 100 99 100 100 100 100 100 100 100 100 100 100 100 100 100 100 95 95 71 26 7 76 100 100 69 34 40 0 0 0 0
100 50 97 100 10 83 100 100 100 100 100 97 100 95 96 100 100 100 100 100 100 100 93 100 100 100 100 100 78 82 100 97 71 56 82 23 5 4 4 3 3 1 1 1 2
86 41 69 96 99 100 100 100 100 100 86 100 79 84 100 100 100 100 100 85 86 100 98 100 93 73 81 33 7 49 97 90 64 99 30 7 4 1 36 82 0 4 0 0 4
94 72 19 100 100 100 100 100 100 100 100 100 72 21 82 100 86 96 100 100 98 78 100 100 99 49 5 1 3 84 69 100 94 5 50 14 52 32 85 29 80 99 47 5 19
100 24 91 100 100 100 100 100 100 100 100 100 100 93 75 100 100 100 100 62 36 12 98 91 65 62 25 64 100 55 5 21 86 80 90 90 50 60 76 100 76 100 100 23 43
40 70 100 100 100 100 100 100 100 100 98 73 79 87 94 100 98 94 97 59 5 51 83 18 95 6 87 100 68 51 7 100 100 100 68 69 5 93 91 90 100 100 100 98 100
34 100 100 97 100 100 100 100 100 77 76 75 74 100 100 100 73 98 100 96 36 6 5 6 67 98 65 5 17 6 28 100 100 96 100 78 86 86 100 100 100 100 100 100 100
76 100 31 100 22 100 100 100 88 94 69 86 79 100 100 100 92 96 71 97 55 60 54 100 100 14 5 5 56 57 100 96 100 100 100 100 100 100 100 100 100 100 100 100 100
100 100 100 98 100 56 95 77 97 52 99 100 100 100 100 100 98 65 44 78 100 100 100 97 79 45 16 39 66 56 97 77 78 100 100 100 100 100 100 100 100 100 100 91 100

GFSSW_prec_cloud_039.txt.gz
Cloud_Cover
0 4 1 21 100 100 100 100 100 100 100 100 100 100 100 100 100 100 100 100 100 100 100 100 100 74 35 33 5 24 5 9 100 100 98 3 0 0 4 0 0 0 0 0 0
100 15 4 1 8 99 100 96 100 100 100 100 100 100 96 100 100 100 100 100 100 100 100 100 100 100 57 94 5 5 32 99 94 94 70 5 0 0 1 2 0 0 0 0 0
5 22 77 86 4 48 100 100 100 100 100 100 100 100 100 97 100 100 100 100 100 100 100 100 100 100 100 100 87 51 80 100 86 35 5 5 4 3 1 0 2 0 0 0 0
55 20 13 89 93 5 41 100 100 100 100 100 100 100 100 100 98 100 100 100 100 100 100 100 100 100 100 100 100 34 38 99 100 15 5 47 65 5 0 0 0 0 0 0 0
5 50 5 5 100 84 43 100 100 100 100 100 100 100 100 100 100 100 100 100 100 100 100 100 100 100 100 100 96 46 57 73 81 30 79 100 81 5 5 0 3 0 0 0 0
92 81 78 13 16 79 4 46 100 100 100 100 100 100 100 100 100 100 86 100 100 100 100 100 100 100 100 100 100 100 92 100 100 100 100 100 100 6 22 5 5 1 2 2 0
100 99 24 5 5 0 56 27 5 96 100 100 100 100 100 100 100 100 100 99 100 100 100 100 100 100 100 100 100 100 100 100 100 100 99 100 100 85 100 47 13 5 5 5 4
100 96 100 60 5 5 4 5 3 2 100 100 100 100 100 100 100 100 100 100 100 100 100 100 100 100 100 100 100 100 100 100 100 100 100 98 97 100 75 5 80 12 10 25 5
100 100 92 7 54 5 5 0 3 0 96 100 100 100 100 100 100 100 100 100 100 100 69 100 100 100 100 100 100 100 100 100 100 100 100 79 95 100 96 9 30 14 40 9 81
99 64 72 91 11 12 5 3 5 3 89 100 100 100 100 100 100 100 100 100 100 100 100 89 100 100 100 100 100 100 100 100 100 91 100 99 90 100 100 100 97 56 18 5 28
74 9 75 99 81 100 7 83 39 71 42 100 100 100 100 100 100 100 100 100 100 100 100 89 100 100 100 100 100 100 100 100 100 100 100 100 100 100 100 100 100 100 55 4 5
4 5 10 100 94 13 94 5 38 100 74 100 100 100 100 100 100 100 100 100 100 100 100 100 100 100 100 96 98 100 100 100 100 100 100 100 100 100 100 100 93 84 5 22 5
9 5 27 39 42 48 68 2 32 92 100 100 100 100 100 100 100 100 100 100 100 100 100 100 100 100 100 92 100 100 97 100 100 100 99 100 98 93 93 86 18 52 10 6 5
5 13 38 23 66 100 74 4 64 98 100 100 100 100 89 79 100 63 100 100 100 100 100 100 100 100 100 100 44 46 50 78 35 5 4 4 6 51 25 26 5 5 5 5 5
6 97 100 93 100 100 97 70 100 100 100 100 100 100 98 98 93 100 100 100 100 100 100 100 100 100 100 100 100 100 100 61 5 5 5 29 4 94 44 83 41 15 5 2 0
100 55 100 100 93 42 71 50 100 100 100 100 100 85 78 72 99 100 100 100 100 100 100 100 100 100 100 100 73 19 52 92 96 37 46 82 7 5 100 100 69 5 5 5 5
99 100 90 95 78 100 21 40 100 100 100 100 100 96 83 97 98 98 100 100 100 100 100 100 100 100 100 94 69 65 75 42 28 96 91 80 62 45 97 80 100 100 95 74 70
98 92 24 77 87 7 49 100 100 100 100 100 100 100 100 96 72 100 100 38 73 100 100 100 100 100 100 64 32 27 7 14 27 54 5 1 2 48 90 35 9 40 100 100 100
80 48 100 58 5 6 100 100 100 100 100 100 100 100 100 96 93 99 77 100 100 100 100 100 100 100 100 100 38 5 19 37 31 5 25 41 79 100 100 100 100 18 5 26 31
11 85 48 40 58 100 100 100 100 100 100 100 100 81 92 100 55 93 100 100 100 100 99 100 100 83 96 86 84 42 8 51 47 48 76 96 100 100 100 48 8 5 5 5 0
5 98 95 59 100 100 100 100 100 100 100 100 97 80 98 100 53 98 100 100 99 68 100 100 100 100 88 24 33 75 92 77 52 56 70 88 87 25 5 5 36 5 15 9 5
5 30 97 100 100 100 100 100 100 100 95 54 80 10 78 98 100 100 32 42 93 97 100 100 100 100 35 71 100 95 34 98 75 76 99 31 40 5 5 7 5 5 5 30 70
18 100 100 100 100 100 100 100 100 100 100 96 40 48 6 97 65 94 90 68 90 100 100 99 87 46 85 73 46 67 33 99 93 80 5 88 29 20 38 97 87 87 78 79 99
28 98 98 100 100 100 100 100 100 100 100 49 58 24 98 88 92 90 75 99 100 100 100 63 55 84 15 44 97 100 86 6 84 100 97 26 32 5 77 100 100 100 82 98 100
75 28 28 77 95 100 84 97 97 92 74 81 100 98 99 100 98 100 100 100 100 78 85 10 5 40 100 100 100 24 5 48 77 86 100 12 74 95 100 100 100 100 100 100 100
73 82 87 100 100 82 82 40 70 48 62 65 70 82 100 100 100 100 100 98 92 54 25 5 55 100 100 57 5 6 30 90 98 89 74 90 100 98 100 100 100 100 100 100 100
100 100 100 12 100 92 33 14 8 66 89 54 100 100 100 100 100 100 100 100 96 82 78 56 94 26 68 57 5 81 100 100 99 83 99 100 100 100 100 100 100 100 100 100 100

GFSSW_prec_cloud_042.txt.gz
Cloud_Cover
8 100 100 12 8 35 100 100 100 100 100 100 100 100 100 100 100 100 100 100 100 100 100 100 100 100 92 86 29 39 1 7 99 78 100 36 0 0 24 5 5 18 5 4 5
99 100 100 100 100 94 51 100 100 98 100 100 100 100 100 100 100 100 100 100 100 100 100 100 100 100 72 100 67 8 5 48 100 100 100 6 0 0 2 5 7 0 0 0 0
5 37 42 8 95 100 98 93 100 100 100 100 100 100 100 100 100 100 100 100 100 100 100 100 100 100 100 100 84 69 40 100 100 97 66 9 5 0 5 5 15 0 0 0 1
20 15 97 88 56 14 98 100 100 72 99 100 100 100 100 100 100 100 100 100 100 100 100 100 100 100 100 100 100 100 100 100 100 54 96 92 6 5 2 20 5 0 2 0 4
100 100 100 57 66 53 2 28 7 100 96 100 100 100 100 100 100 100 100 100 100 100 100 100 100 100 100 100 100 100 95 100 100 21 8 97 100 47 8 33 5 0 0 0 1
68 63 100 100 57 92 17 36 72 91 12 100 100 100 100 100 100 100 100 100 100 100 100 100 100 100 100 100 100 100 100 99 100 100 100 100 100 100 64 5 5 5 2 0 5
5 85 85 100 68 5 86 4 7 6 3 67 81 100 100 100 100 100 100 100 100 100 100 100 100 100 100 100 100 100 100 100 100 100 91 100 74 84 59 5 5 5 36 1 3
62 100 68 23 25 36 49 4 0 0 0 46 97 100 100 100 100 100 100 100 100 100 100 100 100 100 100 100 100 100 100 100 100 98 97 25 100 100 100 13 76 73 10 8 14
19 5 5 75 90 100 20 4 0 0 0 53 100 100 100 100 100 100 100 100 95 100 100 100 100 100 100 100 100 100 100 100 100 100 100 52 100 100 100 100 98 100 100 69 38
5 0 39 100 20 51 55 2 0 0 0 57 83 100 100 100 100 100 100 100 100 100 100 100 100 100 100 100 100 100 100 100 100 89 100 94 100 100 100 100 100 100 93 100 100
5 5 10 5 1 5 35 19 2 4 32 19 100 100 100 100 100 100 100 100 100 100 100 100 100 100 100 100 100 100 100 100 100 100 100 100 100 100 100 100 100 100 100 100 100
10 5 5 5 5 10 16 80 5 90 64 100 100 100 100 100 100 100 100 100 100 100 100 100 100 100 100 100 100 100 100 100 100 100 100 100 100 100 100 100 100 100 100 100 100
48 96 100 61 64 23 73 60 6 92 81 95 100 100 100 100 100 100 100 100 100 100 100 100 100 100 100 100 100 100 100 100 100 100 100 100 100 100 100 100 100 100 100 100 100
95 100 100 94 53 100 43 82 18 98 94 100 100 100 100 100 100 100 100 100 100 99 69 91 100 100 100 100 81 90 100 100 100 100 100 100 100 100 100 100 100 100 100 100 100
100 100 100 100 100 100 99 67 100 96 80 93 100 99 100 95 100 100 82 100 100 100 100 100 100 100 100 100 100 59 6 32 97 100 94 100 99 100 100 100 100 100 100 100 99
100 100 100 100 80 92 96 48 100 99 84 100 94 100 93 98 100 100 100 100 100 100 98 100 100 100 100 100 100 100 52 11 5 5 17 86 99 100 100 100 100 90 48 18 5
99 100 98 84 100 100 71 100 86 86 100 100 100 100 99 100 100 100 100 100 100 100 100 100 100 100 100 100 100 96 46 95 91 97 88 32 5 87 34 100 100 77 13 19 65
14 32 63 81 26 60 60 94 100 100 100 100 98 94 97 100 84 100 100 100 100 100 100 100 100 100 98 100 100 74 100 100 99 58 5 15 5 60 38 86 100 100 76 6 5
16 65 25 34 5 17 100 100 100 100 100 100 100 100 100 90 100 100 100 100 100 100 96 100 100 100 100 100 100 100 69 100 100 100 58 22 92 51 65 5 0 0 0 0 0
37 66 93 100 98 53 100 100 100 100 100 82 100 99 97 99 100 100 100 100 100 100 100 100 99 90 100 100 100 99 100 100 94 34 12 5 23 33 2 0 0 3 5 5 5
2 27 100 100 100 82 100 100 100 100 100 91 100 100 98 100 100 100 100 100 72 37 100 100 100 100 100 100 100 100 100 100 54 5 26 53 24 2 5 5 6 5 5 5 5
5 69 100 99 100 100 100 100 100 100 97 100 46 40 94 99 100 87 100 98 61 100 100 100 100 100 100 100 80 78 73 16 7 76 41 52 67 9 48 58 93 73 60 44 5
13 14 76 89 100 100 96 94 100 100 77 25 30 38 31 87 82 47 98 78 100 100 100 100 84 87 100 100 100 93 60 22 67 78 48 80 72 68 25 78 100 100 100 100 35
4 5 96 100 100 100 100 100 80 83 88 84 27 8 53 100 100 70 95 100 100 100 100 100 100 100 100 100 100 90 87 56 56 96 48 77 25 5 5 32 100 100 100 100 100
51 27 83 89 53 100 94 94 94 76 68 100 98 100 100 100 100 100 100 100 100 100 100 100 100 100 100 97 13 7 43 6 19 13 58 19 12 29 66 100 100 100 100 100 100
80 94 95 100 14 25 6 34 88 91 30 89 99 100 100 100 100 100 100 100 100 100 100 100 100 83 10 71 32 62 21 5 42 69 44 40 18 96 100 100 100 100 100 100 100
100 100 99 24 8 5 11 93 59 53 78 82 100 76 100 100 100 100 100 100 100 100 100 73 11 53 100 100 84 32 14 66 84 63 89 92 94 87 95 100 100 100 100 100 100

GFSSW_prec_cloud_045.txt.gz
Cloud_Cover
20 96 97 100 100 100 100 100 100 100 91 70 100 100 100 100 100 100 100 100 100 100 100 100 100 100 100 100 100 44 99 100 100 100 100 100 78 43 100 100 100 100 99 100 100
5 73 62 46 54 60 100 100 100 72 84 100 100 100 100 100 100 100 100 100 100 100 100 100 100 100 54 100 100 94 9 100 100 100 100 25 87 70 100 100 100 100 100 79 40
30 13 100 100 100 100 32 70 75 99 2 61 94 100 100 100 100 100 100 100 100 100 100 100 100 100 100 100 65 100 93 100 100 100 100 5 96 92 88 100 100 98 93 82 5
5 13 45 99 74 88 99 100 83 93 36 97 86 100 100 100 100 100 100 100 100 100 100 100 100 100 100 97 100 100 100 100 100 100 100 14 5 5 22 100 98 5 5 4 5
16 18 7 44 95 98 77 71 92 5 84 35 100 100 100 100 100 100 100 100 100 100 100 100 100 100 100 100 100 100 100 100 100 100 100 60 5 5 4 6 5 8 5 1 2
28 5 5 22 23 98 100 99 70 5 4 13 100 100 100 100 100 100 100 100 100 100 100 100 100 100 100 100 86 100 100 100 100 100 100 100 100 6 10 2 0 5 5 5 3
4 9 3 5 27 99 39 40 51 5 21 0 100 100 100 100 100 100 100 100 100 100 100 100 100 100 100 100 100 100 100 100 100 100 100 100 100 70 9 5 0 5 5 37 14
46 16 5 0 18 92 96 100 65 1 0 0 100 100 100 100 100 100 100 100 100 100 100 100 100 100 100 100 100 100 100 100 100 100 100 100 100 100 100 69 5 23 32 92 100
5 2 3 0 5 29 70 98 16 29 4 0 93 100 100 100 100 100 100 100 100 100 100 100 100 100 100 100 100 100 100 100 100 100 100 89 100 100 100 100 82 72 100 100 100
5 14 5 5 2 4 13 16 95 5 1 2 43 100 74 99 100 100 100 100 100 100 100 100 100 100 100 100 100 100 100 100 100 100 100 100 100 100 100 100 100 100 100 100 100
37 26 28 99 93 35 73 29 100 34 6 4 36 100 97 99 100 100 100 100 100 100 100 100 100 100 100 100 100 100 100 100 100 100 100 100 100 100 100 100 100 100 99 100 100
53 100 100 100 100 99 28 55 100 5 44 0 100 58 100 100 100 100 100 100 100 100 100 100 100 100 100 100 100 100 100 100 100 100 100 100 100 100 100 100 100 100 100 100 100
100 100 100 89 100 30 17 54 10 36 82 6 100 100 100 100 100 100 100 100 100 100 100 100 100 100 100 100 100 100 100 100 100 100 100 100 100 100 100 100 100 100 100 100 100
30 100 99 99 97 100 98 97 7 93 8 33 100 100 100 100 100 100 100 100 100 100 100 100 100 100 100 100 100 100 100 100 100 94 100 100 100 100 100 100 100 100 100 100 100
90 100 72 92 100 100 100 100 23 100 0 100 100 100 100 67 92 100 100 100 100 100 100 100 100 99 100 100 100 100 100 100 100 90 80 100 100 100 100 100 100 100 100 100 100
34 72 95 94 98 99 100 100 54 89 83 79 99 100 99 100 72 100 100 100 100 100 100 93 100 100 100 100 100 100 100 100 96 100 97 100 100 100 100 100 98 100 86 68 78
5 20 38 87 90 100 94 93 77 90 100 100 100 100 100 100 98 100 100 100 100 100 100 100 100 100 100 100 100 100 100 99 45 8 72 93 97 100 100 100 91 5 25 47 45
8 1 60 84 70 57 54 100 84 94 100 100 100 100 100 100 100 100 100 100 100 100 100 100 100 100 100 100 100 100 37 49 62 81 85 38 59 100 100 94 99 100 60 5 6
5 2 71 100 100 100 100 84 93 88 100 100 100 100 100 100 100 100 100 100 100 100 100 100 100 37 69 99 97 100 97 100 100 100 100 99 98 100 99 7 5 5 5 5 13
1 7 49 100 100 100 95 100 100 100 100 99 100 87 100 100 100 100 100 100 100 100 100 100 100 100 100 97 100 100 100 100 100 82 14 62 100 100 43 5 5 3 5 5 4
5 4 5 8 99 100 100 100 100 100 80 64 100 100 100 100 100 100 100 100 100 100 100 100 100 100 100 97 100 100 100 95 19 31 74 96 100 7 5 8 6 5 5 9 18
5 5 100 5 6 100 100 100 100 85 7 81 72 100 100 100 100 100 100 100 100 100 100 100 100 100 100 100 100 99 83 21 7 55 100 76 100 46 5 5 5 6 90 81 60
2 5 5 7 83 100 97 98 80 17 11 13 74 92 99 89 100 100 100 100 100 100 100 100 100 100 100 100 100 100 100 53 40 100 100 100 100 9 5 10 5 40 75 100 96
3 12 38 7 67 100 100 68 74 5 11 28 51 100 100 100 100 100 100 100 100 100 100 100 100 100 100 100 100 100 100 87 100 81 29 28 82 56 7 88 44 62 100 100 98
13 69 95 78 100 91 100 100 55 24 26 49 100 100 96 100 100 100 100 100 100 100 100 100 100 100 100 100 100 100 100 100 79 48 11 97 14 94 99 94 97 100 90 100 67
89 75 97 43 10 32 64 6 5 5 91 84 84 87 100 94 87 93 100 100 100 97 100 100 100 100 100 100 100 100 100 100 59 72 97 88 72 99 71 100 100 100 100 100 70
59 80 91 11 5 5 34 92 95 45 90 100 99 100 100 100 100 98 100 100 100 100 100 100 100 100 100 95 93 100 72 54 56 87 89 91 88 74 55 99 75 79 100 100 76

GFSSW_prec_cloud_048.txt.gz
Cloud_Cover
100 98 5 46 97 41 44 55 62 97 100 72 100 100 100 100 100 100 100 100 100 100 100 100 100 100 100 100 100 72 26 96 100 100 100 100 7 5 76 100 99 21 38 5 9
48 19 5 23 18 80 88 93 79 51 12 22 89 100 100 100 100 100 100 100 100 100 100 100 100 100 100 100 100 100 100 100 100 100 100 92 29 5 53 100 100 100 100 99 98
62 100 24 53 5 16 46 60 97 93 5 2 6 91 100 100 100 100 100 100 100 100 100 100 100 100 100 100 100 99 70 100 100 100 100 67 6 5 12 100 100 100 100 100 97
91 5 84 59 5 6 3 20 95 100 9 2 4 86 100 100 100 100 100 100 100 100 100 100 100 100 100 100 100 100 100 100 100 100 100 66 63 54 31 100 100 100 100 100 100
26 16 5 61 4 4 1 5 100 99 91 5 12 94 100 100 100 100 100 100 100 100 100 100 100 100 100 100 100 100 100 100 100 100 100 100 56 100 100 100 96 100 74 99 88
51 5 56 5 1 4 36 34 100 100 98 71 5 66 100 100 96 100 100 100 100 100 100 100 100 100 100 100 100 100 100 100 100 100 100 100 42 33 100 89 100 100 100 100 100
100 9 8 5 4 0 30 75 100 89 100 5 5 99 100 97 67 100 100 100 100 100 100 100 100 100 100 100 100 100 100 100 100 100 100 100 100 100 100 40 70 54 82 76 100
7 46 86 98 63 4 5 70 63 80 87 5 9 100 100 100 100 100 100 100 100 100 100 100 100 100 100 100 100 100 100 100 100 100 100 100 95 100 100 96 67 7 47 50 80
92 99 100 66 91 47 28 93 72 97 40 28 14 30 61 39 84 100 100 100 100 100 100 100 100 100 100 100 100 100 100 100 100 100 100 100 100 100 97 82 92 86 90 100 100
97 100 100 100 100 100 100 98 26 99 28 62 4 80 100 74 99 100 100 100 100 100 100 100 100 100 100 100 100 100 100 100 100 100 96 75 76 100 90 77 33 7 55 84 100
100 100 100 100 100 78 99 100 5 5 55 4 51 76 93 89 76 100 100 100 100 100 100 100 100 100 100 100 100 100 100 100 100 100 100 100 100 100 100 100 100 100 23 15 96
74 32 23 100 100 48 82 48 29 62 47 4 69 99 100 94 100 100 100 100 100 100 100 100 100 100 100 100 100 100 100 100 100 100 100 100 100 100 100 100 67 84 91 26 52
92 100 91 100 100 86 33 45 81 30 68 46 57 100 100 72 100 100 100 100 100 100 100 100 100 100 100 100 100 100 100 100 100 100 100 100 100 100 100 100 100 100 100 78 24
7 100 100 100 27 93 91 100 22 99 23 82 53 100 100 100 99 100 100 100 100 100 100 100 100 100 100 100 100 100 100 100 100 100 100 100 100 100 100 100 100 100 100 100 100
5 5 14 99 100 100 82 96 100 58 0 10 65 98 100 100 100 99 100 100 100 100 100 100 100 100 100 100 100 100 100 100 100 100 100 100 100 100 100 100 100 100 100 100 100
5 15 9 49 85 94 6 5 24 46 86 31 100 100 100 100 100 97 100 100 100 100 100 100 100 100 100 100 100 100 100 100 100 100 100 100 100 100 100 100 100 100 100 89 68
11 32 30 41 80 76 45 40 58 60 56 100 100 100 100 72 96 100 100 100 100 100 100 100 100 100 100 98 100 100 100 100 100 100 100 100 100 100 100 100 32 17 7 46 79
2 60 82 100 55 99 100 53 66 100 100 100 100 100 100 87 100 100 100 100 100 100 100 100 100 100 100 100 100 100 100 100 100 100 100 100 100 100 100 58 85 48 5 5 5
0 10 81 100 99 31 42 72 100 100 100 100 100 100 100 94 100 100 100 100 100 100 100 100 100 100 100 100 100 100 100 100 100 100 100 100 100 100 10 5 5 5 5 5 4
5 4 90 97 100 36 5 54 98 100 100 100 100 76 89 100 100 100 100 98 100 100 100 100 100 100 100 100 100 98 56 100 100 100 100 100 100 100 14 5 5 5 4 5 5
1 5 5 21 76 86 98 93 100 77 89 92 65 96 100 100 100 100 100 100 100 100 100 100 100 100 100 100 69 100 100 100 100 93 100 100 100 48 8 5 4 0 1 5 41
0 2 11 5 37 70 100 100 95 52 78 75 100 100 100 100 100 100 100 100 100 100 100 100 100 100 100 94 100 100 100 97 98 100 100 100 95 5 14 98 8 5 5 5 86
0 5 21 8 97 96 84 73 76 5 8 77 85 29 62 92 100 100 100 100 100 100 100 100 100 100 100 100 100 100 76 51 73 100 98 96 100 100 92 17 20 38 6 60 100
0 21 6 15 73 100 100 52 5 22 6 71 64 93 100 100 100 100 100 100 100 100 100 100 100 100 100 100 100 100 100 100 99 99 100 100 98 81 58 18 5 16 59 100 100
13 69 97 92 97 100 77 84 5 5 27 39 100 100 100 100 100 100 100 100 100 100 100 100 100 100 100 100 100 100 100 100 100 8 16 7 7 14 17 32 82 93 71 100 100
96 91 100 99 100 100 95 40 5 5 5 6 36 37 53 100 100 85 17 24 85 100 100 100 100 100 100 100 100 100 100 100 100 56 5 29 29 13 98 100 100 100 100 100 100
95 99 100 10 5 18 35 74 54 5 31 100 76 96 99 83 52 100 100 100 98 100 100 100 100 100 100 100 100 100 100 100 75 15 52 59 95 100 100 75 100 100 100 65 100

GFSSW_prec_cloud_051.txt.gz
Cloud_Cover
92 94 100 100 87 16 62 94 96 93 20 3 0 0 99 100 100 86 96 99 100 100 100 100 100 100 100 99 34 42 26 100 100 100 100 86 5 5 29 32 5 5 5 5 5
97 100 100 85 27 92 5 5 9 95 77 16 0 0 57 66 99 100 92 100 100 100 100 100 100 100 100 93 56 21 89 100 100 100 100 90 5 4 5 49 63 5 5 8 93
100 60 50 10 82 69 62 3 0 2 37 56 27 0 0 100 100 85 42 100 100 100 100 100 100 100 100 100 84 27 100 100 100 100 100 97 7 5 5 23 76 5 5 5 100
100 10 100 96 31 40 5 8 38 0 14 73 81 4 71 100 99 36 39 100 100 100 100 100 100 100 100 100 100 96 100 100 100 100 100 100 28 5 54 85 78 62 38 6 5
94 47 69 34 94 77 14 4 0 1 25 100 100 7 71 100 100 100 81 100 100 100 100 100 100 100 100 100 100 100 100 100 100 100 100 100 53 15 92 24 94 89 100 77 5
93 86 100 68 87 89 100 4 20 90 41 100 94 70 41 100 94 100 98 79 100 100 100 100 100 100 100 100 100 100 100 100 100 100 100 100 100 14 100 10 63 78 92 100 46
59 100 57 74 99 100 100 90 11 16 98 100 100 99 67 11 45 5 4 77 100 100 100 100 100 100 100 100 100 100 100 100 100 100 100 100 100 100 100 96 100 100 100 100 100
5 8 50 100 100 100 100 96 44 99 33 51 100 91 70 66 100 100 71 99 100 100 100 100 100 100 100 100 100 100 100 100 100 100 100 100 100 100 100 100 100 100 100 100 100
5 6 5 93 100 100 100 89 100 80 17 18 79 17 8 16 100 100 100 94 100 100 100 100 100 100 100 100 86 100 100 100 100 100 100 100 100 100 98 100 100 100 100 100 100
5 66 82 5 5 100 100 99 100 78 54 97 91 55 5 79 98 100 100 100 100 100 100 100 100 100 100 100 100 100 100 100 100 100 100 100 100 100 100 100 100 100 100 100 100
100 30 100 32 5 6 100 100 59 88 35 52 42 24 6 22 100 100 100 99 100 100 100 100 100 100 100 100 100 100 100 100 100 100 100 100 100 100 100 100 100 100 100 100 100
80 70 10 100 5 8 92 45 7 62 21 5 2 100 100 100 91 100 100 100 100 100 100 100 82 100 100 100 100 100 100 100 100 100 100 100 100 100 100 100 100 100 100 100 83
8 14 34 100 5 57 43 55 94 72 70 26 87 100 100 100 91 97 100 100 100 100 100 100 100 92 100 100 100 100 100 100 100 100 100 100 100 100 100 100 97 100 94 45 65
99 5 5 5 37 66 62 91 98 96 10 41 100 100 100 88 100 100 100 100 100 100 100 100 100 100 100 100 100 100 100 100 100 100 100 100 100 100 100 96 25 6 25 7 26
83 54 5 9 97 93 80 100 93 70 6 51 100 100 100 100 88 100 100 100 100 100 100 100 100 100 100 100 100 100 100 100 100 100 100 100 100 100 76 67 99 98 86 54 65
5 97 93 62 18 18 5 11 6 5 80 100 92 100 100 96 97 100 100 100 100 100 100 100 100 100 100 100 100 100 100 100 100 100 100 100 100 100 100 100 100 100 100 100 100
2 88 88 16 76 56 39 32 39 76 60 100 100 100 100 100 92 94 100 100 100 100 100 100 100 100 100 100 99 100 100 100 100 100 100 100 100 100 100 100 100 100 100 100 100
0 5 5 7 86 15 100 5 20 93 100 100 99 100 100 100 100 100 100 100 100 100 100 100 100 100 100 100 96 98 100 100 100 100 100 100 100 100 100 100 100 100 100 100 100
0 0 5 7 8 5 77 35 99 90 100 100 100 100 100 97 67 100 100 100 100 100 100 100 100 100 100 46 88 100 100 100 100 100 100 100 100 100 100 96 74 100 78 39 79
1 0 41 5 5 5 21 100 100 100 100 90 90 63 94 97 100 100 83 58 88 93 100 100 100 100 100 100 100 100 100 100 100 100 100 100 100 100 100 99 94 92 25 5 5
0 2 5 5 5 6 96 100 99 71 53 90 90 100 100 100 100 100 100 100 100 100 100 100 100 100 100 100 100 100 99 99 98 100 100 100 100 100 100 100 100 22 5 5 5
0 2 5 0 6 40 100 80 85 5 17 15 25 71 66 69 86 52 92 84 100 100 100 100 100 100 100 91 65 94 80 100 100 100 100 100 100 100 70 81 18 7 5 5 5
9 1 5 0 64 100 96 78 80 5 5 5 5 6 96 96 96 78 100 87 92 75 100 100 100 100 100 100 100 100 100 100 100 100 100 92 79 100 100 96 47 32 9 12 84
4 11 4 5 8 41 99 85 5 5 5 5 5 30 66 100 74 65 73 82 52 99 100 100 100 100 100 100 100 100 100 100 100 71 94 100 100 99 99 21 13 100 83 91 100
85 70 97 72 46 59 86 35 5 23 5 5 5 5 32 98 94 38 59 94 75 99 100 100 100 100 100 100 100 100 100 100 100 94 97 97 94 5 67 100 100 100 100 100 100
100 99 100 82 60 49 96 54 5 5 5 5 5 21 99 99 17 90 99 71 56 61 100 100 100 100 100 100 100 100 100 100 99 100 100 97 38 80 60 83 82 90 100 100 57
100 100 100 18 8 6 40 13 14 5 8 20 32 45 17 54 48 47 82 68 100 100 100 100 100 100 100 100 100 100 100 100 100 100 41 61 100 99 54 34 37 57 9 7 84

GFSSW_prec_cloud_054.txt.gz
Cloud_Cover
5 49 100 100 100 100 52 100 100 31 86 80 5 0 0 81 100 100 100 69 100 100 100 100 100 100 100 97 94 99 100 100 100 100 99 41 0 2 72 13 0 0 0 0 1
10 32 87 81 100 100 89 99 84 6 5 17 35 5 0 1 90 77 88 18 98 100 100 100 100 100 100 95 84 99 95 100 100 100 100 97 5 0 15 90 6 0 0 1 19
6 72 79 5 98 99 41 13 30 49 3 70 94 34 5 0 26 87 100 53 83 78 100 100 100 100 100 100 85 97 88 100 100 100 100 100 8 5 4 4 58 7 5 4 1
9 58 13 5 74 46 23 100 28 48 30 19 43 54 5 8 14 22 39 12 95 100 100 99 100 100 100 100 100 63 100 100 100 100 100 100 40 5 5 5 59 44 71 22 5
84 52 5 5 5 16 100 100 100 100 100 85 20 5 45 58 20 86 27 86 86 90 100 100 100 100 100 100 100 90 89 100 100 100 100 100 94 11 5 5 17 57 59 43 23
39 20 5 5 5 83 79 100 100 74 44 1 2 5 39 63 3 100 100 78 37 100 100 100 100 100 100 100 100 100 100 100 100 100 100 100 100 77 20 5 63 22 26 49 32
23 7 46 5 5 84 70 100 100 100 68 17 5 89 68 2 3 16 100 95 79 50 100 100 100 100 100 100 100 100 100 100 100 100 100 100 100 100 45 5 76 100 98 66 42
87 51 96 100 6 5 34 82 5 36 100 23 36 95 75 36 37 8 100 60 61 16 100 100 100 100 100 100 100 95 100 100 100 100 100 100 100 100 100 89 41 100 100 100 100
59 32 35 100 56 5 81 23 27 100 71 7 71 8 88 7 80 75 98 82 5 59 100 100 100 100 100 100 100 73 92 100 100 100 100 100 100 100 100 100 100 100 100 100 100
21 46 5 82 100 21 20 99 40 99 21 39 100 74 5 14 100 79 100 75 61 59 100 100 100 100 96 100 100 96 100 100 100 100 100 100 100 100 100 100 100 100 100 100 100
64 15 97 89 100 14 5 79 56 34 5 81 9 90 29 62 100 82 100 12 98 38 100 100 100 100 100 100 100 100 100 100 100 100 100 100 100 100 100 100 100 100 100 100 100
100 41 4 69 96 14 5 78 75 64 65 5 81 52 100 100 100 100 100 100 42 88 100 100 100 100 100 99 100 100 100 100 98 100 100 100 100 100 100 100 100 100 99 92 99
100 34 12 5 5 0 5 57 100 67 40 16 16 99 100 99 100 100 100 100 43 99 100 100 100 100 82 56 100 100 100 100 100 100 100 100 100 100 100 100 100 100 100 93 98
76 18 4 5 11 5 67 100 42 5 72 79 100 100 100 100 100 100 100 100 100 100 100 100 100 99 96 98 100 100 100 100 100 100 100 100 100 100 100 100 100 100 100 100 94
0 1 4 96 17 22 6 24 6 6 100 100 100 100 100 73 56 100 14 100 100 100 100 100 100 99 100 80 100 100 100 100 100 100 100 100 100 100 100 100 100 100 100 100 100
0 5 3 6 39 57 9 7 69 55 100 100 100 100 100 100 62 100 99 100 100 100 100 100 100 100 100 99 100 100 100 100 100 100 100 100 100 84 99 100 100 100 100 100 100
21 0 5 5 21 10 43 41 46 52 56 82 100 100 99 100 100 95 100 100 100 100 100 100 100 100 100 100 100 100 100 100 100 100 100 100 100 51 26 47 100 97 100 96 84
38 0 5 5 5 5 25 25 17 86 100 100 100 100 96 100 100 100 100 100 100 98 100 100 100 100 100 100 100 100 100 100 100 100 100 100 99 86 52 47 6 5 40 84 100
0 0 5 5 4 5 50 23 92 62 96 100 100 94 100 98 100 100 100 100 100 100 100 100 100 100 100 90 87 100 100 100 100 100 100 100 100 100 100 90 58 31 86 100 91
0 0 0 2 0 5 36 90 100 95 100 78 43 39 73 99 72 100 95 93 100 100 100 100 100 100 100 76 99 100 100 100 100 100 100 100 100 100 100 100 100 100 100 92 92
3 0 0 0 0 4 96 100 90 85 37 10 59 15 62 88 95 94 64 100 100 100 100 100 100 100 100 100 82 24 36 58 100 100 100 100 100 100 100 100 100 100 100 54 52
18 29 0 0 19 29 58 62 79 20 5 5 5 5 82 96 10 5 12 10 85 100 100 100 100 100 100 100 51 10 64 88 99 100 100 100 100 100 100 100 100 100 100 100 100
94 3 3 0 60 98 87 58 16 5 0 5 5 5 59 7 7 9 5 6 26 94 100 100 100 100 97 95 100 100 100 100 100 100 100 100 100 100 100 100 100 100 100 100 100
48 47 4 2 25 18 3 25 5 5 0 5 5 28 29 70 42 58 66 47 78 88 96 100 100 96 100 100 100 100 100 100 100 100 100 100 100 100 100 86 100 100 100 100 81
94 92 96 36 10 5 5 5 5 5 5 2 5 5 5 42 45 8 38 82 73 100 100 100 100 100 100 100 100 100 100 100 100 69 57 95 100 100 100 100 100 100 100 100 50
99 100 100 100 7 5 40 5 5 5 5 5 5 5 5 5 5 6 5 76 44 66 100 100 100 100 100 100 100 100 100 100 100 100 100 100 63 99 100 99 80 78 80 51 88
39 98 100 98 8 17 75 5 5 5 5 5 5 5 5 5 5 5 17 61 99 100 92 100 100 100 99 100 100 100 100 100 100 100 100 100 100 92 23 27 17 16 41 35 5

GFSSW_prec_cloud_057.txt.gz
Cloud_Cover
73 43 35 15 6 20 85 76 74 73 91 48 60 95 5 0 91 100 94 65 100 100 100 100 100 100 100 100 93 56 100 74 100 79 100 80 2 0 2 0 2 2 5 6 2
68 96 21 5 5 4 5 5 34 36 91 99 100 81 56 5 5 72 54 93 61 100 100 100 100 100 100 100 56 93 100 100 100 100 100 73 5 0 5 2 0 2 5 4 5
5 5 5 5 5 1 0 0 5 5 50 43 100 100 100 27 7 0 4 97 6 42 100 100 100 100 100 100 100 84 38 100 100 100 100 61 20 0 0 5 2 0 4 5 5
3 10 18 5 5 5 5 3 5 12 66 8 52 70 100 49 25 5 5 2 2 22 19 100 100 100 100 100 100 100 100 100 100 100 100 100 84 0 2 3 3 0 5 5 5
39 10 5 5 5 5 5 5 5 77 100 95 100 12 6 91 13 3 1 4 20 47 6 60 100 100 100 100 100 100 100 96 92 100 100 100 72 5 0 0 5 5 5 5 11
46 8 7 42 83 94 5 5 19 64 100 100 100 100 24 36 3 3 76 89 52 50 11 27 96 100 100 100 100 100 100 95 100 100 100 100 100 6 5 0 4 6 14 6 6
48 63 87 96 100 100 16 5 25 100 33 28 100 100 40 5 11 36 100 100 100 98 48 6 94 100 100 100 100 100 99 100 100 100 100 100 100 100 30 5 44 68 77 77 76
27 98 100 59 80 100 31 1 38 32 13 100 16 90 58 17 4 75 100 100 99 98 100 6 78 100 100 100 100 100 100 100 100 100 100 100 100 100 100 75 29 96 100 100 100
47 40 96 8 99 100 87 26 11 49 18 45 95 95 81 13 0 54 100 100 100 92 100 18 99 100 100 100 100 100 100 97 100 100 100 100 100 100 100 99 92 87 98 98 100
7 6 77 5 100 100 97 5 32 12 31 43 100 74 5 94 26 5 94 100 100 100 56 39 27 100 100 100 100 100 100 100 100 100 100 100 100 98 100 99 30 93 100 100 100
84 6 15 5 5 6 20 5 57 76 37 75 96 49 81 39 64 96 55 100 100 82 100 66 94 100 56 100 100 100 100 100 100 100 100 100 100 100 100 100 100 34 72 100 100
72 5 9 5 5 0 8 60 50 68 57 10 5 8 76 99 100 100 66 100 100 58 71 100 100 100 100 99 94 100 100 100 100 85 100 100 100 100 100 100 100 100 100 81 100
98 1 5 5 1 31 29 10 15 19 94 45 26 100 100 100 100 93 70 45 98 71 82 53 100 100 100 100 94 100 100 100 100 100 100 100 100 100 100 100 100 100 100 100 100
100 5 5 2 92 64 66 5 42 99 100 63 96 100 100 100 95 100 100 95 100 76 95 100 99 100 100 93 100 99 100 100 100 100 100 78 100 100 100 100 100 100 100 100 100
99 53 5 5 29 78 100 5 100 100 100 100 100 100 100 100 98 100 70 100 97 100 100 97 100 100 100 100 100 100 100 100 100 100 100 100 100 100 100 100 100 100 100 100 100
100 3 5 52 55 4 7 69 36 99 100 100 100 100 100 100 100 100 100 100 39 100 100 100 100 100 100 100 93 58 41 100 100 100 100 100 89 9 99 100 100 100 100 100 100
100 22 5 5 63 11 63 91 86 96 91 100 100 100 100 100 100 100 100 100 100 100 100 100 100 100 90 99 100 98 98 100 100 100 100 100 86 5 42 92 100 100 100 100 100
46 0 3 8 41 77 100 98 15 99 100 100 100 98 100 100 100 100 100 100 100 100 100 100 100 100 100 100 98 87 92 70 100 100 100 100 100 6 5 61 73 100 100 100 100
0 0 0 42 7 96 100 56 85 83 96 100 76 18 78 63 99 100 100 100 100 95 79 100 100 100 100 100 100 100 93 37 63 100 100 100 100 100 100 56 85 96 100 94 98
3 0 0 0 4 100 60 92 90 100 85 75 68 42 56 86 64 100 94 100 99 100 100 100 100 100 100 100 100 100 100 65 12 100 100 100 100 100 100 100 100 84 78 55 48
3 0 0 0 7 75 82 60 78 76 81 98 50 94 82 99 100 64 26 56 83 100 100 100 100 100 100 100 100 100 93 100 92 100 100 100 100 100 100 100 100 100 100 100 99
46 82 2 0 60 54 75 34 5 52 16 20 53 72 86 70 100 53 52 72 98 100 100 78 100 100 100 100 100 100 100 100 100 99 100 100 100 100 100 100 100 100 100 100 100
95 5 1 0 73 47 6 13 5 9 15 8 33 8 5 8 36 13 40 6 100 28 100 100 95 100 100 100 48 74 100 100 100 100 100 100 100 100 100 100 100 100 100 100 100
43 71 16 32 19 71 7 21 5 0 0 0 4 16 30 6 5 8 5 91 86 74 100 100 100 100 100 100 100 100 55 19 33 80 100 100 100 100 100 100 100 100 100 100 100
39 99 96 94 60 39 4 8 5 5 1 1 2 4 20 31 11 34 7 29 74 100 100 96 92 100 90 100 100 100 54 99 100 75 13 87 100 100 100 100 100 100 100 100 100
97 100 98 100 34 7 32 62 9 6 21 5 5 5 5 31 8 58 10 25 12 63 100 100 100 95 100 100 100 48 91 100 100 100 100 91 100 100 100 100 100 100 100 100 100
8 88 100 95 50 41 100 92 78 5 3 15 58 5 5 5 5 5 5 33 11 58 100 100 100 81 28 62 99 54 100 100 100 100 100 100 100 100 100 100 100 100 100 100 100

GFSSW_prec_cloud_060.txt.gz
Cloud_Cover
29 20 24 56 80 71 8 4 5 2 0 5 79 100 90 98 15 60 35 99 100 100 100 100 100 100 100 100 100 100 100 82 100 100 96 100 100 6 3 0 0 0 0 93 11
4 14 4 100 14 82 8 3 4 1 1 2 5 74 100 71 72 5 3 39 29 100 100 100 100 100 100 100 100 87 5 89 100 100 100 100 97 7 3 4 2 0 3 37 1
3 60 5 64 94 83 15 5 0 4 0 1 5 100 80 82 74 6 2 5 2 100 100 100 100 100 100 100 100 77 23 98 100 100 100 100 100 6 4 3 5 0 0 6 21
38 74 64 44 23 78 33 17 5 0 4 5 5 9 45 88 69 42 5 9 19 93 100 100 100 100 100 100 100 100 100 100 100 99 100 100 61 100 9 5 1 0 0 78 5
11 16 46 12 30 96 99 100 63 4 1 3 9 88 41 89 58 100 42 85 86 75 100 100 100 100 100 100 100 100 100 100 100 62 100 100 100 100 5 4 0 0 7 8 5
5 5 10 11 18 96 100 100 88 2 54 100 100 98 100 39 45 86 99 100 96 81 2 100 100 100 100 100 100 100 100 100 100 98 100 100 100 86 6 5 5 5 4 3 5
45 22 16 27 6 83 100 9 13 34 96 100 100 100 100 99 59 64 100 100 100 85 13 15 99 100 100 100 100 100 100 100 93 100 100 100 100 100 11 19 20 5 5 5 5
100 36 6 100 8 83 97 100 9 23 81 21 94 100 100 97 5 5 100 100 100 100 54 18 21 97 100 98 100 100 100 95 100 100 100 100 100 100 99 34 60 73 11 6 5
62 90 75 4 5 30 76 4 8 33 5 4 99 100 54 13 2 1 84 100 100 100 97 100 65 12 100 100 100 100 99 43 100 100 100 100 100 100 100 57 100 100 100 100 52
15 20 12 4 5 1 2 5 2 5 5 26 67 97 11 66 41 14 0 100 100 100 100 99 49 5 65 100 100 100 98 99 100 100 100 100 100 100 100 79 79 100 100 100 100
8 4 4 0 0 0 2 4 53 73 97 33 78 34 94 5 5 13 80 100 100 100 100 92 43 27 0 93 100 100 100 100 100 100 100 100 100 100 100 100 100 100 100 100 100
67 32 0 0 0 4 5 86 81 45 14 5 4 5 60 3 12 22 100 100 95 100 100 97 59 66 5 4 100 100 100 100 100 100 100 100 100 100 100 100 100 65 100 100 100
99 90 6 0 4 78 70 64 10 40 100 54 6 8 11 10 100 100 100 100 100 100 66 80 52 93 16 14 98 70 100 100 97 100 100 100 100 100 100 100 100 55 50 99 100
100 99 10 0 36 7 58 87 100 100 100 100 99 100 92 97 100 100 100 100 100 100 100 91 71 13 86 31 91 98 81 100 100 100 100 100 56 100 100 100 100 100 18 20 100
100 100 4 5 6 31 3 58 39 96 100 100 100 100 100 100 97 100 100 100 100 77 88 100 81 95 100 99 99 94 25 98 100 100 100 100 24 90 100 100 100 100 100 99 39
75 100 6 3 92 69 82 43 99 100 100 100 98 100 100 100 100 99 85 98 100 96 57 96 100 100 100 100 84 62 76 12 100 100 100 100 88 10 96 100 100 100 100 100 100
29 98 16 0 78 15 100 99 93 72 100 100 100 100 100 100 100 100 100 100 78 71 100 100 94 100 100 100 100 100 83 89 77 100 100 100 97 5 6 35 100 100 100 100 100
0 2 0 0 18 100 74 100 20 99 100 98 100 100 100 100 100 100 100 89 11 97 100 100 100 100 100 100 100 99 99 100 52 99 100 100 100 36 5 46 100 95 51 100 100
0 0 0 0 2 89 98 88 99 82 86 100 89 100 100 100 100 100 100 98 100 100 100 100 100 100 100 100 100 66 62 70 97 79 100 100 100 100 100 69 100 98 88 95 95
37 0 0 0 4 52 23 100 93 18 81 100 97 100 100 100 100 100 100 99 100 100 100 100 100 100 100 99 97 97 99 98 89 88 97 100 100 100 100 100 100 100 85 98 94
1 4 0 0 0 20 54 46 99 98 91 47 100 99 100 100 100 100 100 100 100 100 100 100 100 100 100 100 100 94 100 100 71 45 5 95 100 100 100 100 100 100 100 70 44
5 98 0 0 31 80 30 5 2 9 10 9 49 99 99 24 84 49 100 95 57 99 100 100 100 100 100 100 94 100 100 98 29 23 44 3 94 100 100 100 100 100 100 100 100
98 5 0 5 65 61 4 6 2 4 5 5 31 9 6 92 32 74 11 37 8 100 91 100 100 100 55 99 100 100 100 100 100 100 100 78 6 100 100 100 100 100 100 100 100
41 76 16 92 11 86 22 6 25 0 2 0 3 5 4 5 4 5 33 29 7 100 100 100 100 100 100 100 100 100 100 100 100 100 100 100 99 100 100 100 100 100 100 100 100
3 99 98 95 100 12 54 63 62 68 3 0 2 5 70 89 53 5 8 9 59 70 100 100 100 100 100 100 100 100 82 100 100 99 100 100 100 100 100 100 100 100 100 100 100
16 30 91 100 32 24 80 74 5 70 5 8 4 4 5 79 36 62 5 5 19 5 5 100 100 100 100 100 100 99 39 100 85 5 50 100 100 100 100 100 100 100 100 100 100
5 22 99 70 87 87 80 87 100 15 12 5 28 46 5 5 5 5 5 13 40 5 5 16 27 22 97 100 100 100 100 34 32 90 100 100 76 100 100 100 100 100 100 100 100

GFSSW_prec_cloud_063.txt.gz
Cloud_Cover
0 0 4 1 14 100 89 100 98 18 5 5 8 88 66 73 100 100 6 94 0 100 0 100 100 100 100 100 100 100 100 100 100 100 100 100 81 17 5 2 0 0 5 5 0
5 38 68 100 96 90 100 94 89 26 0 7 93 5 32 85 39 90 100 100 5 2 1 100 100 100 100 100 100 100 86 85 99 100 100 100 100 100 18 5 0 0 3 5 5
19 5 4 5 43 100 92 63 94 58 4 7 0 1 5 5 13 100 100 100 99 34 4 100 100 100 100 100 100 100 100 100 100 100 100 100 80 96 58 5 2 0 0 5 5
5 5 5 5 6 5 34 99 100 80 36 3 0 1 2 27 17 34 100 100 100 99 1 40 100 100 100 100 100 100 100 100 100 100 100 100 87 100 53 5 0 5 5 12 5
71 46 22 5 22 4 44 100 100 100 97 51 0 5 82 35 3 98 100 100 100 100 5 40 100 100 100 100 100 100 100 100 100 100 92 100 100 100 100 6 5 3 5 90 5
27 100 19 63 100 21 5 100 87 99 79 88 48 13 91 66 94 100 87 100 100 100 30 40 100 100 100 100 100 100 100 100 100 100 100 100 100 100 82 96 5 2 5 6 5
32 100 51 5 2 0 5 82 5 17 60 100 100 26 99 99 65 100 58 100 100 100 99 90 100 100 100 100 100 100 100 100 100 100 100 100 100 100 100 100 10 4 5 5 5
87 98 73 1 0 0 0 0 0 4 4 59 100 96 98 99 100 100 100 89 100 100 100 100 100 100 100 100 100 100 100 100 99 85 100 100 100 100 100 99 99 54 58 15 5
96 50 9 0 1 0 0 0 0 2 0 3 85 99 87 99 99 100 100 95 100 100 100 100 100 100 100 100 100 100 100 35 100 61 100 100 100 100 100 96 100 100 100 76 98
100 69 0 0 3 2 4 0 0 0 1 17 45 98 36 5 52 100 4 100 100 100 100 100 100 100 100 100 100 100 100 85 100 100 100 100 100 100 100 75 100 100 100 100 98
100 100 2 0 0 30 20 4 2 4 9 5 4 7 99 34 2 100 2 100 100 100 100 100 92 34 100 100 100 100 100 100 100 100 100 100 100 100 100 100 92 100 100 100 100
100 100 96 0 2 15 10 37 72 27 29 0 5 7 10 3 0 83 3 68 100 100 100 100 70 100 69 100 100 100 100 100 99 99 98 100 100 100 100 100 100 100 100 100 100
99 100 100 0 0 0 45 100 100 99 100 100 36 9 11 8 83 54 18 100 100 100 100 100 92 90 57 67 100 100 100 100 100 94 7 100 100 100 100 100 100 100 100 100 100
1 100 97 4 3 3 4 100 96 98 100 100 100 87 85 97 93 49 6 78 100 100 100 100 100 99 25 26 81 100 100 100 86 100 88 99 100 100 27 100 100 88 38 98 100
28 100 62 30 19 84 3 5 98 98 100 60 100 100 100 100 100 100 100 75 61 100 100 86 97 29 99 76 36 11 100 100 100 100 100 100 93 100 78 61 100 100 87 77 100
10 100 96 0 50 100 73 5 62 95 100 100 100 100 100 100 100 100 100 100 100 100 100 100 100 38 86 9 7 91 66 83 100 100 100 100 96 100 100 100 99 100 100 82 6
0 81 61 0 21 77 97 38 12 43 83 100 100 100 100 100 100 100 100 100 91 95 100 100 100 100 98 78 78 99 80 83 100 99 100 100 92 99 100 100 100 100 100 100 100
0 0 5 0 0 31 39 52 24 66 90 100 100 100 100 100 100 100 100 100 100 100 100 100 100 100 98 73 100 98 97 88 29 56 32 100 100 100 100 100 100 100 100 100 100
0 0 2 0 4 9 75 18 80 60 58 98 100 100 100 100 100 100 100 72 64 81 65 100 100 100 100 100 100 97 93 66 68 6 25 47 100 100 100 100 100 100 100 100 100
5 1 0 5 30 1 9 38 81 10 16 56 59 34 99 99 96 59 77 79 9 28 83 27 97 100 100 100 100 76 100 90 98 84 64 4 27 100 100 100 100 100 100 99 100
1 3 0 0 5 89 7 11 83 5 14 94 83 100 100 87 93 91 17 21 6 57 78 88 47 100 100 100 100 100 91 39 73 40 79 36 3 51 100 100 100 100 100 100 100
0 33 0 5 29 69 5 5 12 5 5 27 40 100 100 100 100 70 98 81 100 100 72 100 86 95 100 100 100 100 100 61 89 58 36 41 72 98 100 100 100 100 100 100 90
39 0 3 5 98 56 5 5 5 5 4 5 5 37 100 100 100 100 14 59 100 99 100 100 100 100 100 100 96 100 100 100 96 95 99 23 99 100 100 100 100 100 100 100 100
27 17 5 100 74 100 50 24 34 5 1 0 0 3 43 92 100 86 100 59 38 89 100 100 100 100 100 100 82 100 100 100 100 100 100 63 100 100 85 100 100 100 100 100 100
5 16 89 86 22 12 76 94 66 54 1 4 5 5 28 18 4 6 32 10 89 5 29 99 98 91 72 89 69 76 100 100 100 100 98 100 100 100 98 100 100 100 100 100 100
18 33 11 92 23 6 80 69 67 63 5 5 5 5 5 24 7 5 3 1 11 50 81 100 100 100 100 100 76 94 100 100 100 100 100 100 100 100 100 100 100 100 100 100 100
2 5 94 14 100 57 98 73 89 93 9 5 5 5 5 87 58 50 5 6 5 5 5 96 100 100 100 100 100 100 97 93 95 95 100 100 100 100 100 100 100 100 100 100 100

GFSSW_prec_cloud_066.txt.gz
Cloud_Cover
3 5 5 4 17 22 71 98 99 100 81 5 0 0 5 100 97 100 100 100 4 0 0 0 2 52 100 100 100 100 100 100 100 100 99 49 95 100 100 54 5 3 4 5 5
44 2 5 4 5 5 5 81 94 42 6 30 2 5 5 85 100 99 100 100 72 74 6 0 0 38 100 100 100 100 100 100 100 100 98 5 27 100 100 95 1 6 2 5 8
10 55 77 34 6 5 2 40 100 100 86 76 94 5 2 5 58 100 100 100 100 100 6 2 0 35 100 100 100 100 100 100 100 100 100 95 63 63 100 100 5 5 5 5 5
41 100 100 79 65 94 0 1 100 100 93 11 25 70 13 3 8 97 100 100 100 100 56 5 0 41 100 100 100 100 100 100 100 100 100 100 100 100 81 100 74 7 8 5 4
59 100 96 100 18 90 0 4 97 100 33 95 96 11 3 3 19 18 100 100 100 100 70 78 4 40 43 100 100 100 100 100 100 100 100 100 100 100 51 100 100 29 37 6 5
100 100 89 20 3 0 0 5 13 57 4 29 81 5 5 27 6 23 100 100 100 100 100 86 3 16 13 100 100 100 100 100 100 100 100 100 100 92 97 98 100 70 4 42 24
100 58 6 11 0 0 3 4 0 0 0 2 100 100 5 5 50 2 100 100 100 100 100 100 62 0 0 100 100 100 100 100 100 100 100 100 100 100 92 100 100 95 82 5 8
100 92 39 0 0 0 1 5 0 0 0 5 100 99 48 22 5 96 100 100 100 100 100 100 100 9 1 100 100 100 100 100 100 100 100 100 100 100 100 96 100 100 100 74 5
98 100 96 0 0 5 5 94 97 0 0 2 100 64 78 24 81 100 100 94 100 100 100 100 100 58 0 92 100 100 100 100 100 100 100 100 100 100 96 86 93 100 100 98 62
100 100 99 0 0 4 13 100 100 21 1 3 3 22 6 86 61 100 100 79 100 100 100 100 100 72 4 88 100 100 100 100 100 100 100 100 100 100 91 12 99 100 100 100 100
74 100 100 100 0 0 28 82 100 61 99 3 2 5 6 5 14 100 100 100 100 100 100 100 100 93 4 60 100 100 100 100 100 100 100 100 100 100 100 32 100 100 85 100 100
99 100 100 21 0 0 34 82 100 95 100 43 3 5 5 2 3 47 100 41 100 100 100 100 70 100 5 100 100 100 100 100 100 100 100 100 100 100 99 62 97 88 100 49 100
1 100 100 10 0 0 2 5 22 74 98 100 55 5 5 5 64 92 98 100 100 100 100 100 94 100 72 33 100 100 100 100 100 100 100 98 60 100 78 5 37 98 96 100 92
0 58 100 22 2 5 4 5 5 42 99 100 100 90 69 88 99 100 79 66 100 100 100 100 100 100 100 13 94 100 100 100 100 100 100 100 93 100 100 94 6 60 91 99 42
0 45 99 46 15 91 41 5 36 62 100 100 100 100 100 100 79 93 81 99 79 100 100 100 100 100 100 100 37 100 100 100 100 100 100 100 24 100 100 70 56 16 39 65 100
1 83 67 0 15 69 100 24 95 69 81 100 100 100 100 98 100 100 100 100 100 100 100 100 100 100 100 100 99 96 100 100 100 83 92 83 67 100 96 94 100 91 66 36 92
0 18 89 0 2 93 92 65 35 67 81 100 100 100 100 100 100 100 100 100 100 100 100 100 100 97 100 84 97 65 100 100 100 100 34 95 90 96 82 81 90 94 71 7 65
0 0 0 0 0 67 60 55 14 80 100 100 100 100 100 100 100 100 100 100 100 100 100 100 100 85 98 99 89 80 10 23 75 100 100 100 78 100 100 100 100 100 100 96 57
0 0 0 0 0 35 68 22 5 5 21 71 100 93 100 100 100 100 100 37 100 100 100 86 88 100 94 90 17 90 33 54 100 70 100 100 100 100 100 98 78 100 100 100 100
0 0 0 0 0 24 4 55 60 5 5 46 79 89 99 100 100 60 78 41 33 78 100 98 94 100 100 99 96 87 89 78 82 17 60 100 100 100 100 100 100 100 100 100 100
0 0 0 3 0 1 4 9 5 5 3 5 31 52 7 11 33 95 31 7 9 11 4 5 36 88 96 100 100 100 95 59 16 5 5 5 21 100 100 100 100 100 100 92 100
0 0 5 5 9 9 2 4 2 5 5 5 15 100 87 54 90 5 5 5 5 5 5 5 54 100 100 100 100 100 66 26 80 5 18 5 3 5 100 100 100 100 100 100 100
48 2 29 18 100 8 4 2 4 4 5 5 16 96 100 12 100 6 5 43 100 100 99 100 100 100 100 98 100 100 41 5 5 84 5 6 2 5 100 100 100 100 100 100 100
19 7 40 100 100 100 73 20 4 2 0 5 4 58 100 94 4 36 52 43 98 98 100 95 92 99 100 100 77 94 99 94 100 33 98 24 44 98 92 100 100 100 100 100 100
3 5 15 33 33 100 88 100 89 17 0 5 5 5 15 89 100 100 92 8 31 6 59 100 100 100 100 74 99 100 100 100 100 100 85 98 100 100 100 100 100 100 100 100 100
4 5 5 5 6 18 76 100 98 60 6 5 5 5 5 5 32 5 64 72 7 49 99 100 100 49 100 100 100 100 100 100 100 100 100 100 100 100 100 100 100 100 100 100 100
0 5 51 5 18 70 98 84 99 100 34 45 5 5 5 5 5 5 5 7 2 4 5 21 87 100 89 92 92 97 100 100 100 100 100 100 100 100 100 100 100 60 83 100 100

GFSSW_prec_cloud_069.txt.gz
Cloud_Cover
100 37 48 7 6 4 0 0 13 100 100 6 14 1 0 63 100 100 100 100 100 100 11 0 0 34 90 89 100 100 100 69 100 100 100 100 100 100 100 100 77 5 5 4 0
100 100 100 100 82 33 3 0 0 100 100 100 13 0 2 9 82 100 100 100 100 100 74 10 0 38 81 5 81 100 98 71 100 100 100 98 91 100 100 100 100 77 6 7 5
100 100 100 100 100 43 88 3 0 53 100 100 82 4 4 0 7 100 100 100 100 100 100 26 11 1 99 9 96 100 97 100 100 100 99 100 99 40 100 100 100 100 64 65 5
100 100 85 100 14 0 1 0 3 18 97 100 14 6 3 2 0 69 100 100 100 100 100 77 94 0 19 1 30 100 100 100 100 100 100 100 100 100 84 100 100 100 93 53 59
100 100 99 100 73 2 0 2 5 12 59 27 5 96 100 7 1 20 100 100 100 100 100 100 100 4 83 45 85 100 100 100 100 100 100 100 100 100 52 100 100 100 100 96 72
100 100 91 26 15 0 4 5 61 0 0 46 36 4 20 30 0 4 100 100 100 100 100 100 100 1 2 6 13 100 100 100 100 100 100 100 100 100 42 98 100 100 100 100 97
100 100 98 10 0 0 3 56 97 2 0 4 5 10 11 21 5 1 73 100 100 100 100 100 100 25 0 5 3 14 100 100 100 100 100 100 100 100 23 90 100 100 100 100 100
100 100 100 22 0 0 5 69 10 5 0 5 78 55 35 18 0 5 26 100 100 100 100 100 100 62 5 5 2 87 100 100 100 100 100 100 100 100 100 55 100 100 97 71 100
84 100 100 21 0 0 5 66 6 5 3 0 2 23 66 5 4 5 99 100 100 100 100 100 100 71 6 4 1 81 100 100 100 100 100 100 100 100 100 100 82 99 100 100 69
16 100 100 100 2 0 8 16 5 61 28 2 5 12 5 8 6 61 99 100 100 100 100 100 100 100 51 4 32 1 90 100 100 100 100 100 100 100 100 100 100 100 100 100 99
0 6 100 100 16 0 4 15 31 40 6 11 4 4 5 23 70 100 100 100 100 100 100 100 100 40 37 4 1 0 74 100 100 100 100 100 100 100 100 100 85 75 97 98 100
49 2 100 100 13 1 2 7 68 35 59 84 4 5 4 4 100 99 98 94 99 100 100 100 100 99 100 100 43 5 100 100 100 100 100 100 100 100 100 93 97 95 52 69 100
63 14 100 100 9 0 0 5 5 82 81 77 77 5 5 4 89 100 38 72 97 100 100 100 100 100 21 64 71 5 100 100 100 100 100 100 100 100 97 100 100 88 5 8 98
1 18 100 100 12 5 5 5 5 5 92 100 87 25 42 6 20 96 100 94 99 100 100 100 100 100 7 5 100 8 73 100 100 100 100 100 100 100 99 97 54 100 63 5 25
0 56 100 88 7 92 56 5 10 18 87 100 99 96 64 85 14 91 54 100 100 100 100 100 100 92 46 28 64 73 6 100 100 100 100 100 99 100 100 12 22 93 100 59 5
0 100 93 11 23 82 100 86 91 51 69 100 100 100 100 92 81 14 100 86 93 100 100 100 100 100 78 6 39 97 93 100 100 100 100 100 94 100 98 83 5 96 60 70 27
1 28 96 0 4 95 100 85 17 62 69 100 100 96 100 100 100 100 93 100 100 100 100 100 100 55 12 48 90 100 96 98 100 100 100 100 100 100 99 76 37 26 30 6 5
0 0 9 0 18 98 100 54 7 97 45 83 100 100 100 100 100 100 100 100 100 100 100 100 100 100 72 5 47 89 83 15 66 100 100 100 94 100 100 89 23 5 21 12 18
0 0 2 0 44 95 72 10 4 5 16 52 68 99 100 100 100 100 100 100 26 98 100 100 100 100 92 15 88 29 70 82 5 100 100 100 100 99 100 85 6 5 5 44 33
0 0 6 4 21 97 11 27 5 5 5 60 8 61 95 96 100 97 94 96 100 87 100 100 100 100 100 100 14 23 43 58 5 18 90 100 100 100 100 100 100 95 38 51 35
0 0 10 71 52 68 5 18 4 5 5 5 5 88 61 17 32 20 68 19 100 44 100 100 100 100 100 79 20 80 38 48 58 6 17 100 100 100 100 100 100 100 100 52 31
0 0 5 33 32 13 2 5 5 5 5 16 78 5 44 21 18 17 19 19 54 24 100 100 100 100 100 100 82 100 75 83 10 5 11 6 100 100 100 100 100 100 100 100 88
25 3 5 5 7 5 5 2 1 5 5 5 15 5 81 68 99 30 5 6 96 94 5 50 56 91 100 92 99 100 100 95 92 61 5 5 5 46 99 100 100 100 100 100 100
0 6 4 5 4 4 5 5 5 2 5 4 3 5 22 9 100 95 38 63 60 13 78 23 37 20 17 5 42 99 100 100 100 85 15 4 60 70 23 52 96 98 100 100 100
7 30 18 17 37 35 5 5 5 5 5 5 5 5 5 86 69 8 5 37 88 100 100 100 100 100 100 59 64 100 93 100 99 98 53 98 18 98 99 67 80 98 70 98 100
4 2 4 5 5 93 74 32 5 27 5 5 5 5 5 16 65 100 72 5 5 20 73 100 100 94 100 100 100 100 98 31 100 96 100 100 100 100 100 100 100 100 100 100 100
0 4 5 5 12 75 68 90 10 5 50 5 5 5 5 5 26 60 13 3 38 4 5 45 68 99 100 56 100 100 100 100 79 99 100 100 100 100 100 100 100 100 100 100 100

GFSSW_prec_cloud_072.txt.gz
Cloud_Cover
37 98 73 100 100 91 100 99 4 1 0 50 100 80 5 6 47 100 100 100 100 100 40 45 67 25 70 9 37 100 80 65 100 100 100 99 99 100 100 99 100 100 100 100 98
0 12 65 67 100 60 7 43 4 5 0 54 100 100 6 4 6 98 100 100 100 100 94 81 98 1 2 3 52 74 66 60 100 100 100 99 100 95 100 100 100 100 100 100 100
0 52 100 80 100 19 0 0 0 0 4 100 100 100 89 14 0 80 100 100 100 100 100 100 94 8 0 0 30 97 48 90 100 100 100 100 100 12 90 100 100 100 100 100 100
0 1 94 99 100 9 9 0 0 2 5 15 100 99 98 5 2 21 100 100 100 100 100 100 100 54 3 13 0 59 16 96 100 100 100 98 100 68 74 100 100 100 100 100 100
95 31 40 85 47 0 27 0 0 0 0 0 78 70 5 5 5 27 99 100 100 100 100 100 100 100 7 77 1 0 100 100 100 100 100 98 90 100 100 61 100 100 100 100 100
100 98 100 100 15 8 0 0 0 0 0 0 0 10 12 4 2 38 99 100 100 100 100 100 100 99 29 3 5 4 7 100 100 100 100 100 100 99 100 100 98 100 100 100 100
6 100 100 60 18 3 0 3 11 5 0 0 0 0 28 3 0 4 69 100 100 100 100 100 100 100 16 23 18 89 46 100 100 100 100 100 100 56 100 100 99 100 100 100 100
76 89 100 70 5 0 2 11 3 2 5 1 4 2 5 5 3 5 32 100 100 100 100 100 100 100 100 44 3 8 31 82 100 100 100 100 100 100 100 100 100 100 100 100 100
100 69 100 100 46 2 1 5 7 5 5 8 0 0 2 6 46 5 1 60 100 100 100 100 100 90 100 100 28 38 38 8 89 100 100 100 100 100 100 85 100 100 100 100 100
100 100 100 100 100 4 2 5 24 5 40 12 3 0 5 5 5 5 5 82 100 100 100 100 100 100 95 100 36 13 62 15 100 100 100 100 100 100 100 100 100 100 100 100 97
100 100 100 100 100 8 1 5 14 50 46 10 4 4 4 5 4 5 96 100 99 100 100 100 100 78 75 100 29 5 5 7 99 100 100 100 100 100 100 100 100 100 100 100 100
100 100 100 100 100 11 2 5 7 21 43 50 4 5 4 10 43 70 100 100 100 100 100 100 100 100 100 100 100 7 5 4 5 99 100 100 100 100 100 100 100 100 100 100 96
100 100 100 100 86 2 4 2 5 79 43 25 11 5 5 63 64 100 100 100 100 100 100 100 100 99 100 72 100 11 1 0 4 99 100 100 100 100 100 100 100 88 78 100 100
100 60 100 100 24 5 5 4 5 29 88 95 81 36 30 7 99 64 98 100 96 83 100 100 100 100 100 98 100 86 1 3 5 5 100 100 100 100 100 100 100 100 94 73 100
99 100 100 100 4 79 60 6 8 7 96 100 80 99 32 65 7 82 46 46 38 100 100 100 100 100 99 100 100 100 10 5 5 77 100 100 100 100 100 100 100 100 100 62 39
40 100 97 10 26 70 100 100 85 22 57 100 100 99 75 52 67 5 47 74 99 92 100 100 100 100 100 89 100 100 93 31 98 99 100 100 100 100 100 100 99 100 100 100 74
35 8 62 0 53 100 100 93 14 32 56 100 100 100 87 100 91 98 43 8 66 100 100 100 100 100 100 100 64 73 73 91 99 98 100 100 100 100 100 100 100 100 100 100 74
0 0 5 0 100 100 100 54 36 30 82 100 100 100 100 100 100 100 100 100 100 100 100 100 100 100 100 100 96 75 92 21 13 59 20 100 100 100 100 100 100 100 100 100 100
0 0 34 5 100 100 71 10 5 5 5 48 93 98 100 100 100 100 100 100 100 100 100 100 100 100 100 100 70 54 69 46 5 5 5 14 88 100 100 100 100 77 100 95 97
0 0 5 100 100 100 50 27 5 5 5 56 39 54 86 100 93 100 99 97 100 100 100 100 100 100 100 100 99 33 92 50 69 12 5 3 100 100 100 100 100 100 100 100 67
0 2 12 100 97 77 5 24 5 5 5 5 15 61 15 70 11 5 12 63 13 100 100 100 100 100 97 95 100 96 24 6 41 5 5 3 85 100 100 100 100 100 100 100 100
0 0 4 91 78 31 5 5 5 5 5 38 5 5 33 5 5 5 5 5 5 80 99 93 100 100 100 100 68 52 15 5 5 7 12 5 1 100 100 100 100 100 100 100 100
0 2 4 76 5 5 5 5 5 5 5 44 15 5 44 92 34 5 5 85 49 19 85 100 100 100 100 100 94 28 48 42 41 5 6 77 4 36 12 100 100 100 100 100 92
0 3 4 5 5 4 5 5 5 5 5 5 5 5 5 5 90 94 12 26 100 100 100 99 99 100 100 100 100 100 100 96 69 82 80 5 62 5 5 5 58 100 100 100 100
8 13 14 5 5 5 5 5 5 5 5 5 5 5 5 5 1 17 5 27 81 76 75 100 92 41 35 35 64 96 100 100 100 91 65 36 4 94 39 8 5 16 87 100 100
5 5 4 5 5 5 5 13 5 5 5 5 5 5 5 5 5 5 5 5 5 53 100 100 100 99 100 95 91 92 62 10 69 100 98 98 100 100 64 60 24 94 72 50 42
26 5 5 5 5 37 34 7 75 5 21 5 5 5 5 5 5 10 76 14 5 5 55 22 97 100 100 100 100 74 100 95 100 100 100 100 100 100 66 100 81 73 89 34 53

GFSSW_prec_cloud_075.txt.gz
Cloud_Cover
71 61 100 98 100 78 7 2 3 0 2 1 0 87 100 96 38 2 100 96 100 100 89 100 95 100 84 6 21 10 66 58 43 100 100 100 100 100 100 99 86 31 76 100 100
100 94 76 100 87 55 0 0 0 0 0 0 4 100 100 99 5 4 97 100 100 100 96 100 100 97 93 20 64 83 83 4 5 100 100 100 100 100 100 96 81 70 71 100 100
100 100 76 56 9 19 34 24 0 0 2 9 5 93 100 95 5 0 5 100 100 100 100 100 100 100 84 98 84 44 20 5 89 98 100 100 100 100 100 100 52 94 84 100 100
100 100 74 1 4 0 32 5 0 0 2 30 9 63 100 93 8 5 2 100 100 100 100 100 100 100 90 33 100 90 2 50 100 100 100 100 100 100 100 100 100 92 100 100 100
9 100 14 0 20 3 0 0 0 0 0 1 0 3 96 100 16 41 78 100 100 100 100 100 100 100 93 4 21 100 70 100 94 82 99 100 89 100 100 100 92 100 100 100 100
99 88 100 19 12 0 4 0 4 0 0 0 0 0 15 93 5 4 100 100 100 100 100 100 100 100 97 4 5 22 100 100 100 100 100 100 100 100 94 100 100 100 100 100 100
100 94 60 100 45 9 0 26 2 5 2 2 0 0 2 68 2 3 89 100 100 100 100 100 100 100 8 5 57 57 4 66 100 99 100 100 96 26 93 100 100 100 100 100 100
100 100 100 93 100 0 4 2 14 5 0 1 0 0 3 66 4 5 91 100 100 100 100 100 100 100 100 5 46 82 31 19 78 100 100 100 81 97 100 85 100 100 100 100 100
100 100 100 100 100 15 4 1 5 5 2 0 0 0 2 5 4 2 5 88 100 100 100 100 100 100 100 28 66 96 12 52 95 48 100 100 95 100 100 75 96 100 100 100 100
100 100 100 81 97 31 5 0 5 5 4 0 0 0 4 5 4 0 3 100 100 100 100 100 100 100 100 6 45 56 87 89 83 100 94 100 97 100 100 100 100 100 100 100 100
100 100 100 100 100 70 3 0 5 5 5 4 4 0 3 5 5 0 5 57 80 100 100 100 100 100 100 15 80 19 31 56 100 31 94 100 100 100 96 99 100 99 100 100 100
100 100 100 100 100 39 0 1 5 15 8 35 10 5 2 4 5 21 73 59 85 100 96 100 100 100 100 100 100 100 93 33 27 5 88 100 100 100 99 92 100 99 100 100 100
100 100 100 100 100 1 5 5 5 34 7 49 9 5 5 5 26 100 100 67 100 100 100 100 100 100 21 79 95 100 100 100 31 4 67 100 100 37 100 100 100 100 78 100 100
100 100 100 100 34 5 5 5 5 5 42 69 79 34 3 15 99 100 100 62 100 100 100 100 100 100 100 80 86 100 100 96 5 4 65 10 100 95 100 100 97 84 100 100 100
100 100 100 100 5 12 37 5 5 5 52 100 99 36 5 55 67 100 54 41 100 100 100 100 100 100 97 92 100 100 100 100 21 11 5 5 8 100 100 99 100 100 100 100 100
100 100 98 19 23 66 100 100 12 15 75 100 100 58 41 6 38 86 100 56 57 100 100 100 100 100 95 100 100 100 100 91 77 100 50 5 24 100 100 100 100 100 100 100 100
73 25 38 0 48 100 100 63 26 33 74 99 100 100 64 77 44 95 100 56 71 100 100 100 100 100 100 89 100 100 99 81 65 87 60 5 24 100 100 100 100 100 100 100 100
5 28 4 0 100 100 84 41 7 44 95 100 100 100 100 100 91 100 46 62 96 97 100 100 100 100 100 100 100 100 97 100 44 45 5 36 5 50 100 100 100 99 73 100 100
5 24 10 69 100 100 57 10 4 5 11 99 96 100 100 100 100 100 98 50 98 100 100 100 100 100 100 100 11 95 79 96 74 62 5 5 66 100 66 100 100 96 100 100 100
5 3 36 100 100 100 57 27 5 5 5 63 100 100 100 72 98 100 100 99 100 100 100 100 100 100 100 74 80 8 91 87 74 98 18 5 7 100 100 98 100 100 100 100 89
5 5 47 100 100 100 12 50 5 5 5 41 97 100 100 100 77 67 100 98 100 100 100 100 100 100 100 100 100 100 15 65 17 59 28 3 0 2 35 100 100 100 100 100 100
5 5 50 100 98 86 5 5 5 5 5 40 6 78 76 51 86 5 21 9 55 100 100 100 100 100 100 100 100 99 99 7 6 5 68 81 26 5 0 0 89 100 100 100 100
13 22 45 100 13 5 5 5 5 5 6 69 5 5 5 33 10 24 15 5 5 56 86 100 100 100 100 100 100 94 100 96 98 100 34 10 28 14 5 0 0 100 100 100 100
5 5 4 13 5 5 5 5 5 5 5 26 5 5 5 8 64 5 5 5 6 6 60 100 98 91 92 100 100 99 96 15 11 47 50 5 57 100 11 3 11 2 94 99 98
5 5 5 4 5 5 5 5 5 5 5 5 5 5 5 5 6 38 5 27 31 39 29 57 100 100 100 100 100 94 88 83 26 95 49 93 81 100 80 4 5 5 3 5 4
54 5 5 5 5 5 5 6 5 5 5 5 5 5 5 5 5 5 5 5 27 70 100 61 34 63 91 47 89 73 98 100 100 100 56 100 99 100 100 5 4 5 5 5 5
43 5 5 5 5 5 5 16 91 34 39 5 5 5 5 5 5 5 5 5 5 5 12 91 95 98 50 58 28 55 98 72 11 8 6 72 82 100 21 17 5 5 6 10 6

GFSSW_prec_cloud_078.txt.gz
Cloud_Cover
100 100 98 100 94 71 97 26 10 0 1 11 0 0 1 5 100 100 6 54 100 95 55 98 100 100 100 84 47 32 93 14 5 100 100 100 100 100 98 88 95 99 100 100 100
100 100 100 98 88 26 75 72 1 0 0 0 0 5 86 100 100 100 22 5 100 100 100 100 100 100 97 84 100 93 5 4 0 99 100 100 100 100 100 98 100 100 100 100 100
19 100 100 87 100 12 1 3 0 0 0 0 1 5 48 100 93 100 70 4 100 100 97 100 100 100 100 100 98 75 4 7 58 82 100 100 100 100 100 100 66 100 100 100 100
100 20 100 63 90 6 0 0 7 1 0 0 4 4 5 72 92 31 100 2 100 100 100 100 100 100 100 100 99 49 84 100 74 8 100 100 100 100 100 100 90 5 34 100 100
100 100 41 100 85 62 4 0 2 3 0 0 0 0 0 23 97 47 93 5 77 100 100 100 100 100 100 99 100 98 82 65 83 56 61 100 100 100 100 100 100 71 5 92 100
100 100 100 16 99 35 0 54 4 0 4 0 0 0 0 37 91 22 36 6 98 100 100 100 100 100 87 100 100 100 81 50 11 29 16 100 100 100 100 100 100 100 41 90 100
100 100 100 98 88 35 5 3 18 3 5 0 0 0 0 0 83 62 5 6 100 100 100 100 100 100 68 51 100 98 100 42 7 75 91 100 100 100 100 100 100 100 100 100 100
100 100 100 100 93 92 0 16 11 5 28 1 0 0 0 0 68 5 5 76 100 100 100 100 100 90 100 100 100 100 100 98 32 38 90 92 94 99 100 100 100 100 100 100 100
100 100 100 100 96 100 0 0 4 5 44 5 0 0 4 2 43 4 5 100 100 100 84 99 100 100 100 100 100 100 100 5 86 46 100 59 70 100 96 100 100 100 100 100 100
100 78 100 100 100 100 2 4 18 5 87 5 0 1 3 3 0 5 64 100 100 100 81 100 100 100 100 81 74 100 98 87 49 89 100 73 97 82 95 99 100 100 100 100 100
100 100 98 100 100 100 6 2 1 13 70 5 19 1 3 1 0 0 68 100 100 100 100 100 100 71 70 91 100 100 87 100 100 19 100 100 100 100 100 100 100 91 97 100 100
100 100 100 100 100 75 0 0 5 5 38 55 77 2 0 4 3 22 46 100 100 100 100 100 100 100 95 100 100 59 96 85 100 9 26 57 97 61 87 48 98 100 87 100 100
100 94 100 100 100 13 4 2 4 5 32 22 71 4 43 6 100 58 57 100 100 100 100 100 100 100 100 98 100 32 57 97 100 100 95 60 26 15 96 100 97 97 99 100 100
100 100 100 100 40 5 5 5 0 5 36 42 57 17 94 33 72 100 97 100 100 100 100 100 100 100 100 95 100 100 97 100 100 67 15 2 2 72 100 96 24 94 100 65 98
100 100 100 100 4 14 8 5 0 6 92 100 69 8 5 96 79 100 100 94 100 100 91 100 100 100 50 100 100 100 100 100 100 38 31 7 43 75 99 100 100 99 100 99 100
100 100 99 16 5 48 31 5 5 32 76 100 100 60 34 32 75 100 100 100 100 100 100 100 100 100 100 100 98 100 100 100 100 99 76 26 38 5 95 100 52 95 74 57 83
99 36 23 10 19 100 95 10 68 61 54 100 100 92 35 55 79 100 100 94 100 100 100 100 100 100 100 100 99 86 100 100 97 99 38 7 42 60 1 95 85 90 100 75 100
97 5 5 53 100 100 31 21 46 29 73 99 100 100 97 64 100 100 100 57 100 100 100 100 100 100 77 94 100 74 85 46 42 69 100 5 14 94 20 5 94 100 56 99 100
66 5 80 96 100 91 28 15 23 5 10 84 100 100 99 100 75 87 95 86 100 100 100 99 96 100 58 81 91 97 62 31 32 83 100 21 84 14 5 14 5 70 95 96 100
23 10 77 100 100 90 36 27 5 5 63 89 93 53 71 94 100 89 22 19 100 100 100 89 98 100 97 100 78 40 65 79 100 100 94 10 48 0 4 89 93 8 100 100 100
21 52 96 100 99 79 61 24 5 5 5 100 100 77 30 72 81 68 98 52 100 100 100 100 99 100 73 96 62 42 100 100 94 74 59 39 76 5 0 7 99 95 8 100 100
21 72 100 100 98 100 5 5 5 5 52 87 100 88 99 71 20 61 91 100 100 100 100 100 100 100 100 61 58 94 17 22 32 74 85 99 35 5 3 2 90 100 91 94 100
30 94 100 100 86 10 5 5 5 5 56 87 57 73 52 69 47 10 5 30 37 84 100 100 100 100 99 99 89 86 100 79 5 10 34 44 73 25 9 4 0 53 100 63 100
6 33 97 96 8 19 5 5 5 5 37 6 5 5 5 5 5 13 5 26 5 50 100 100 100 100 45 27 22 20 11 8 5 32 47 57 76 100 94 12 4 0 4 97 95
60 68 50 42 5 5 5 5 5 5 5 5 5 5 5 5 4 5 5 12 5 48 73 99 100 98 100 100 100 100 100 99 65 96 64 100 100 100 100 8 1 5 0 0 8
79 94 46 5 48 5 5 5 5 5 5 5 5 5 5 1 0 5 5 5 5 16 28 5 5 63 34 100 100 100 86 100 100 99 54 82 43 100 100 5 0 0 3 0 0
100 90 83 5 51 5 5 7 74 7 18 5 5 5 5 5 2 4 5 5 5 5 5 6 15 33 31 5 10 46 44 5 5 10 5 5 96 99 100 20 4 0 0 0 5

GFSSW_prec_cloud_081.txt.gz
Cloud_Cover
100 6 62 100 100 100 0 82 0 0 0 0 0 0 0 0 1 5 92 55 72 100 100 97 100 100 100 99 99 96 100 76 70 85 100 100 100 100 100 99 100 100 97 100 100
88 95 5 100 72 68 0 10 0 0 0 0 0 0 0 5 8 62 77 72 5 97 100 100 100 100 100 91 100 100 96 89 62 83 100 100 100 100 100 100 100 100 100 100 100
100 100 68 19 62 100 0 1 3 1 0 0 0 0 5 5 40 98 100 89 5 47 100 98 100 100 100 100 100 100 73 62 100 100 100 67 100 100 100 100 78 100 100 100 100
60 100 96 9 93 83 2 0 2 1 0 0 0 0 0 46 71 100 100 88 5 6 100 100 100 100 100 98 100 100 100 100 100 100 88 75 83 100 100 80 100 67 100 100 100
100 100 100 93 20 69 14 20 4 0 0 5 4 0 2 15 57 100 100 81 27 95 100 100 100 98 100 100 100 100 100 100 100 94 96 100 6 100 100 100 100 100 59 100 100
100 99 94 100 14 89 1 6 18 0 0 6 5 2 4 58 3 100 98 58 86 100 100 100 95 100 100 100 100 78 100 100 85 98 100 99 13 99 100 100 100 100 88 100 100
100 100 90 100 84 32 32 22 4 0 5 83 40 5 4 8 1 100 77 94 77 100 100 100 100 100 100 100 100 100 100 100 90 100 100 100 49 36 100 100 100 100 100 78 100
100 100 100 100 100 15 94 3 59 1 20 98 18 5 5 0 2 100 100 54 71 100 100 100 100 98 100 100 100 100 100 100 100 100 100 80 12 5 100 100 100 100 100 100 100
100 100 100 100 100 99 75 2 0 5 67 42 3 4 78 1 29 100 15 73 100 100 100 100 100 100 100 100 100 100 100 100 100 100 71 100 5 58 100 100 100 100 100 100 100
100 100 100 100 100 99 64 10 0 8 41 5 2 21 18 68 6 1 0 100 100 100 100 100 100 100 100 100 53 96 100 100 100 100 100 39 95 78 100 100 100 100 100 100 100
94 100 100 100 71 100 35 70 70 86 16 7 33 11 5 6 0 5 76 100 92 100 100 100 100 100 12 100 100 100 100 100 100 98 96 29 100 7 50 73 100 100 100 100 100
91 56 100 100 100 97 57 46 10 5 41 5 5 5 3 5 10 61 100 100 99 100 100 100 100 100 100 100 100 100 96 74 95 93 100 100 67 100 84 64 100 100 100 100 100
68 66 100 100 100 60 54 4 5 5 94 45 8 47 14 27 60 34 100 84 100 100 100 100 100 100 98 97 86 87 90 100 100 100 100 87 22 28 67 99 100 92 100 100 100
78 85 76 100 49 46 86 5 1 4 96 93 93 74 80 17 100 85 99 96 91 100 100 100 100 100 100 100 97 100 100 100 100 100 100 99 42 100 81 60 34 95 98 100 100
100 93 89 61 85 88 64 3 1 8 100 84 92 4 7 49 95 100 100 100 100 100 100 100 100 64 97 100 100 100 96 100 100 100 99 99 42 4 5 56 88 95 10 37 99
99 94 79 12 48 39 5 1 42 98 86 91 41 46 84 93 82 100 100 100 100 100 100 96 100 100 100 100 100 100 100 100 100 93 86 92 96 5 48 3 98 92 9 58 16
100 52 96 8 99 54 6 93 93 90 36 88 79 99 51 45 87 100 100 100 96 100 100 100 100 100 100 100 100 99 100 100 95 89 35 19 63 10 12 1 9 74 56 5 6
100 70 100 24 95 5 69 92 81 38 97 97 100 99 96 54 84 28 87 86 100 100 100 100 100 100 100 100 100 100 100 100 92 36 100 89 50 95 4 0 0 0 99 11 5
100 100 100 94 100 20 95 100 55 58 55 99 80 93 88 76 52 72 54 99 100 100 100 100 97 71 98 100 100 99 100 82 62 65 56 100 100 47 1 0 3 0 0 68 99
100 100 100 96 95 43 99 62 32 5 8 55 96 70 62 78 12 68 40 100 97 75 84 100 100 100 99 88 100 100 94 96 96 100 100 95 100 8 0 0 0 2 4 34 100
100 100 99 100 46 84 100 63 14 5 69 20 93 9 14 27 30 5 78 100 72 71 94 92 98 100 90 100 77 100 100 66 74 100 100 94 97 89 2 0 0 2 5 5 96
100 100 98 100 96 98 99 30 17 8 5 5 16 65 66 34 68 89 98 100 75 100 96 5 100 100 96 89 66 98 100 94 80 97 100 100 67 6 5 0 0 5 5 5 6
100 99 100 100 99 86 8 17 44 13 5 42 5 5 5 41 79 41 59 5 100 100 74 100 95 100 84 84 64 24 24 7 100 69 22 94 96 14 5 5 5 2 4 10 92
100 92 96 100 88 92 52 61 16 5 5 5 5 5 4 5 6 66 23 6 40 99 100 100 92 100 92 66 10 10 5 12 52 63 89 68 94 100 55 5 4 5 4 14 97
100 82 9 100 78 25 12 26 58 6 5 5 25 17 50 54 5 16 29 6 5 5 63 100 100 100 98 52 44 98 94 27 84 77 72 100 88 90 87 15 1 5 5 5 3
100 65 19 100 100 18 5 33 100 6 8 6 31 5 5 81 24 71 25 92 50 7 61 52 98 99 100 100 100 98 56 58 87 100 37 30 38 28 20 6 4 57 3 5 16
100 98 68 67 86 41 9 78 69 22 13 4 2 5 7 5 5 1 5 5 25 67 46 61 64 63 81 94 100 100 100 100 100 100 100 100 100 97 100 100 64 5 4 4 5

GFSSW_prec_cloud_084.txt.gz
Cloud_Cover
33 100 89 100 86 83 10 0 98 0 0 0 0 0 0 0 0 0 0 1 99 53 100 50 100 100 100 100 100 100 96 65 8 99 100 96 100 100 100 100 100 100 100 100 100
6 98 100 100 23 28 32 0 8 0 0 0 0 0 0 0 3 16 32 100 40 100 70 71 100 100 100 100 94 100 100 53 100 100 100 34 100 100 100 50 100 71 100 100 100
78 100 100 100 16 19 31 0 0 0 0 0 0 0 2 1 63 51 73 100 53 100 10 100 100 100 100 100 84 100 89 100 100 100 100 66 100 100 100 100 100 42 99 100 100
99 100 100 100 99 7 20 4 0 2 0 0 0 5 5 13 88 74 98 100 100 100 8 100 100 100 57 100 74 100 78 100 100 100 98 100 84 100 100 100 100 100 100 100 100
100 100 93 70 97 5 60 67 3 0 0 0 5 5 3 21 88 22 99 100 100 98 72 100 100 100 100 84 100 98 100 100 100 100 98 67 55 92 100 100 100 100 100 100 100
100 99 98 91 100 18 9 3 9 0 0 4 21 5 4 70 5 3 99 100 100 60 100 100 100 100 100 100 100 94 100 96 100 100 100 100 100 6 79 100 100 100 100 100 100
100 96 99 100 100 100 5 11 8 5 1 5 5 0 2 53 3 5 100 100 85 96 99 100 100 100 100 100 100 100 100 91 100 100 99 100 100 5 4 100 100 100 100 100 100
100 89 97 100 100 100 1 0 5 4 5 5 0 0 5 2 0 47 100 100 100 100 100 100 100 100 100 100 100 100 100 100 100 100 100 100 31 92 68 5 100 100 100 100 100
100 48 100 100 98 100 16 0 1 2 5 4 0 17 75 4 45 16 100 47 100 100 100 100 100 100 100 95 100 100 100 97 100 100 100 100 96 100 63 60 76 100 100 100 60
100 82 100 100 100 100 98 0 0 5 0 3 8 30 21 81 4 96 37 13 100 100 100 100 100 100 100 95 100 96 100 98 100 100 100 100 100 100 91 59 99 8 100 100 69
100 100 100 100 85 95 14 32 27 59 4 26 29 6 88 17 2 9 8 86 100 100 100 100 100 100 95 3 100 100 100 100 100 100 100 100 100 100 5 37 24 5 28 100 100
100 100 100 100 100 81 74 66 86 5 74 5 5 13 3 70 14 29 2 100 100 100 100 100 100 100 98 91 100 100 100 100 100 100 100 100 99 6 28 5 5 27 6 82 100
100 100 100 100 93 12 45 60 2 1 94 99 31 13 3 56 90 35 46 100 100 100 100 100 100 100 65 40 100 100 100 100 100 100 100 100 44 23 14 5 0 41 8 58 100
100 100 100 100 62 52 84 3 0 2 86 75 100 35 48 72 96 42 54 100 100 100 100 100 100 100 96 66 94 100 100 100 100 100 100 99 100 79 62 5 2 5 5 6 100
100 100 100 100 97 100 86 0 0 8 49 99 69 2 11 72 85 97 84 100 100 100 100 100 100 100 100 100 99 100 100 100 100 100 100 99 52 5 5 5 0 20 98 14 64
100 100 100 100 89 64 4 0 30 98 75 60 45 77 99 30 99 100 100 100 100 100 96 100 98 28 7 91 92 100 100 86 100 100 62 20 61 100 21 5 8 30 22 8 5
100 100 100 100 88 5 36 93 100 67 16 88 52 98 35 82 99 100 100 100 100 100 100 83 99 20 9 32 81 92 99 75 96 17 42 11 12 88 7 5 14 55 5 6 18
100 100 100 100 6 5 35 85 63 47 72 46 45 51 59 40 87 9 9 100 18 100 100 72 99 54 15 93 100 100 92 97 92 100 98 100 96 99 40 57 16 0 0 0 0
100 100 100 100 6 5 49 87 92 40 24 50 48 54 41 4 5 38 6 63 21 53 53 71 84 100 93 85 100 100 100 100 100 100 100 100 12 16 86 5 5 5 0 0 0
100 100 100 100 40 83 63 56 38 5 48 19 86 53 5 2 4 5 5 93 78 97 6 85 100 100 80 100 100 100 100 100 100 94 80 94 100 95 100 73 75 5 0 0 0
100 100 100 100 56 96 65 94 5 5 15 63 26 5 4 5 2 5 53 5 5 5 5 76 9 70 100 100 100 100 100 100 100 100 85 51 23 5 100 88 8 3 0 0 4
100 100 100 100 86 75 58 5 5 5 5 5 5 5 29 4 5 95 98 11 17 6 5 5 58 100 100 35 70 100 100 100 100 100 99 97 100 98 99 96 35 5 0 0 0
100 100 100 99 74 59 10 5 92 5 8 5 12 6 8 12 79 6 5 5 6 9 12 39 85 71 90 100 34 90 95 100 100 100 100 100 94 79 100 55 5 5 0 0 0
100 100 100 100 61 64 15 5 5 5 9 5 7 5 5 5 5 60 6 6 68 98 22 29 43 6 41 16 57 53 61 62 84 100 100 63 25 17 77 76 45 5 0 0 0
100 100 100 91 100 26 33 14 6 5 5 5 5 5 5 5 9 91 57 5 5 11 100 95 79 59 50 17 32 9 31 7 31 100 32 99 100 98 52 100 58 5 5 5 5
100 100 100 99 100 17 11 5 84 5 5 21 37 2 4 63 14 81 16 6 10 5 5 52 100 100 100 84 14 5 49 25 13 66 68 99 92 100 6 43 99 42 6 7 5
100 100 100 100 100 5 6 97 100 51 5 86 15 5 5 0 4 3 5 15 66 38 5 5 5 5 9 76 100 100 100 96 14 72 99 62 100 100 47 41 9 5 5 1 4

GFSSW_prec_cloud_087.txt.gz
Cloud_Cover
30 98 96 100 49 5 46 0 0 0 21 4 0 5 0 0 0 0 0 0 25 9 5 41 99 2 100 82 100 100 100 11 5 35 100 100 100 100 56 100 100 100 100 86 100
69 13 86 100 29 7 5 94 0 0 0 0 1 0 0 0 2 5 0 39 76 94 5 6 100 5 99 59 100 100 100 93 76 100 100 59 100 100 99 100 100 100 100 100 92
46 98 84 98 95 72 11 72 4 0 0 0 0 0 1 5 4 4 5 43 5 93 5 68 87 35 96 64 100 100 100 98 100 100 100 16 100 100 100 100 100 100 100 100 100
99 100 99 100 99 70 7 64 6 0 0 0 0 1 5 4 15 5 5 7 10 100 8 97 97 99 83 28 100 100 93 100 100 100 100 61 99 100 100 100 100 100 100 100 100
100 78 100 100 94 100 12 7 4 3 0 1 0 5 2 3 14 6 5 78 100 100 100 100 100 100 100 9 100 100 100 88 100 100 100 100 45 94 100 100 100 100 100 100 100
100 87 100 100 44 100 59 6 3 49 0 0 3 2 0 19 5 5 0 99 100 100 100 100 100 100 100 100 100 100 81 100 100 100 100 100 100 93 100 100 100 100 100 100 100
100 100 82 100 100 100 57 5 4 10 2 0 0 0 0 0 5 5 74 98 100 100 100 100 100 100 100 100 95 100 100 100 100 100 100 100 85 33 100 100 100 100 100 61 100
100 100 98 99 100 98 40 5 1 0 2 0 0 0 0 7 5 1 49 100 100 98 97 100 100 100 100 100 99 100 100 100 100 100 100 100 100 88 74 100 100 100 100 100 100
96 100 100 100 100 100 20 5 0 0 0 0 0 6 12 34 80 2 5 93 100 80 100 100 100 100 100 99 100 100 100 100 100 100 100 90 100 100 100 100 100 100 100 100 100
99 100 100 100 100 93 7 5 0 0 0 5 4 44 24 60 5 0 85 70 100 100 100 100 100 98 100 100 100 82 100 100 100 100 100 100 100 100 100 99 31 100 100 100 100
100 100 100 100 100 100 82 5 3 8 3 5 4 5 5 38 87 5 4 100 100 100 100 100 100 100 100 100 100 100 100 100 100 100 100 100 100 100 100 61 8 0 0 100 100
100 100 100 100 100 100 69 16 34 4 44 14 0 6 5 100 68 8 6 100 100 100 100 100 100 100 100 100 100 100 100 100 100 100 100 100 100 100 100 89 68 21 94 20 75
100 100 100 100 100 98 33 58 4 0 56 55 26 5 5 95 68 5 99 100 100 100 100 100 100 100 100 85 100 100 100 100 100 100 100 100 100 93 45 71 5 5 5 3 31
100 100 100 100 100 92 86 7 0 0 63 92 20 35 67 100 36 92 100 100 100 100 100 100 100 100 94 99 100 100 100 100 100 100 100 100 100 84 100 62 5 1 2 5 0
100 100 100 100 100 98 39 0 0 5 9 53 5 5 50 34 54 67 78 100 100 100 100 100 96 47 70 22 100 100 100 100 100 100 100 100 100 100 8 22 5 1 0 0 0
100 100 100 100 100 93 6 0 1 8 66 30 5 58 97 92 100 91 99 100 100 97 100 100 100 85 98 66 43 100 96 100 100 100 100 100 100 100 68 92 80 3 0 0 0
100 100 100 100 100 56 5 4 33 21 39 11 6 97 75 93 93 97 82 84 100 100 100 100 100 100 77 30 94 100 100 100 100 100 100 84 100 100 99 98 38 4 0 0 0
100 100 100 100 100 56 17 18 13 21 62 8 3 5 5 16 16 7 66 79 100 62 63 100 59 38 62 19 85 100 84 100 11 61 100 100 100 100 43 65 6 0 0 0 0
100 100 100 100 100 18 86 39 5 5 5 9 5 5 5 3 5 44 97 16 29 97 92 70 96 100 51 5 98 96 22 46 64 31 100 46 89 100 5 1 3 2 1 0 0
100 100 100 100 100 26 42 57 16 5 14 92 31 3 0 0 4 5 1 27 91 100 30 16 93 72 5 4 74 54 6 4 5 89 14 89 18 99 31 5 5 5 4 0 0
100 100 100 100 100 74 73 9 5 5 5 98 5 2 0 1 5 5 5 0 5 5 38 100 100 98 46 46 100 100 100 57 85 7 5 5 34 46 100 7 5 5 4 3 1
100 100 100 100 92 85 95 5 5 5 5 5 5 5 5 0 5 8 5 11 5 5 24 48 95 95 94 76 88 100 100 100 100 100 100 100 100 100 100 33 5 6 5 8 9
100 100 100 100 67 92 100 5 5 5 5 5 5 5 77 53 93 74 5 3 5 5 5 5 6 67 100 100 29 59 92 100 100 100 100 100 97 100 91 84 12 35 9 6 5
100 100 100 100 84 100 72 5 5 5 5 5 5 5 5 5 5 26 5 16 5 5 27 26 4 4 5 49 100 84 29 100 100 100 100 100 100 100 100 92 100 46 5 21 25
100 100 100 92 58 100 15 50 5 5 5 4 0 5 11 7 6 83 43 5 5 5 47 30 44 5 5 29 11 63 84 100 100 100 100 100 100 100 100 100 100 97 31 69 81
100 100 100 100 97 100 36 86 5 5 5 0 0 3 5 5 5 5 5 5 22 18 5 48 80 66 59 83 62 11 45 99 100 100 100 31 55 80 51 53 76 57 55 83 99
100 100 100 100 100 96 37 100 6 5 5 3 5 5 5 5 5 5 5 8 55 29 56 62 51 28 5 5 94 100 100 88 17 58 21 52 99 23 29 5 61 91 83 97 100

GFSSW_prec_cloud_090.txt.gz
Cloud_Cover
100 100 100 100 100 57 7 54 7 5 0 37 33 1 8 0 0 0 0 0 0 0 10 2 3 16 4 19 30 100 100 71 18 26 52 89 100 100 99 100 100 100 100 100 100
100 100 100 99 100 79 45 5 96 5 2 0 0 0 0 0 0 0 0 0 40 52 81 1 4 51 4 3 56 98 100 98 95 37 100 15 74 100 48 100 100 100 100 100 100
100 100 100 100 100 71 31 5 54 13 6 0 0 0 0 0 0 0 0 0 1 3 60 88 19 3 5 11 25 100 100 100 100 100 100 80 78 100 34 100 100 100 100 100 100
100 100 100 100 98 97 100 5 13 82 10 0 0 0 0 0 1 0 0 0 1 3 5 100 62 27 50 9 16 100 100 100 87 100 100 99 95 97 77 76 100 100 100 100 95
70 100 100 100 100 92 100 5 18 5 35 0 0 0 0 0 0 2 4 0 1 39 100 100 78 12 98 5 84 84 100 99 100 100 100 58 77 5 100 98 100 100 100 100 100
71 100 100 100 100 100 98 41 5 26 100 0 2 0 0 0 0 5 3 2 41 100 100 96 76 28 96 17 22 15 41 100 100 100 100 100 66 5 79 100 100 100 100 100 100
85 100 100 100 89 98 100 53 5 12 47 0 0 0 0 0 5 5 0 41 98 100 100 98 80 100 100 9 3 15 93 100 100 100 100 100 90 47 20 100 100 100 100 100 100
93 100 100 100 85 100 73 98 5 5 1 0 0 0 9 5 5 3 3 100 100 100 100 100 100 100 100 47 9 75 100 100 100 100 100 100 93 100 10 96 100 100 100 100 100
100 100 100 100 100 100 68 100 12 8 4 0 0 3 1 4 54 20 27 100 71 96 100 100 100 100 100 100 36 97 100 100 100 100 100 100 100 100 55 5 99 100 100 73 100
100 100 100 100 100 100 60 65 5 5 2 5 4 3 1 19 63 37 17 96 99 54 100 100 100 100 100 100 88 97 100 100 100 100 100 100 95 97 96 5 23 100 100 91 100
100 100 100 100 100 100 92 45 5 11 5 5 0 2 4 36 14 1 5 12 84 98 100 100 100 95 100 100 78 100 100 100 91 73 100 100 98 100 100 70 8 38 100 100 90
100 100 100 100 100 100 75 77 33 5 18 3 1 2 5 10 40 21 30 67 100 99 100 100 100 100 100 100 93 100 100 100 100 100 100 100 100 100 54 86 92 55 10 100 100
100 100 100 100 100 100 92 72 38 5 4 5 3 6 54 46 41 77 99 99 100 100 100 99 100 100 100 100 67 100 100 100 100 100 100 100 98 89 100 100 60 5 34 34 100
100 100 100 100 100 100 99 90 8 5 5 4 3 42 69 92 6 99 100 100 100 100 100 100 100 100 100 58 74 100 70 100 100 100 100 100 100 100 94 100 16 90 9 0 21
100 100 100 100 100 100 98 100 5 6 0 1 4 5 46 49 5 100 100 100 100 100 100 100 72 92 100 100 59 100 100 100 100 100 100 100 100 100 99 100 100 2 3 4 2
100 100 100 100 100 100 100 93 5 5 29 4 5 5 18 79 42 100 100 100 100 100 100 100 96 85 35 28 100 100 100 100 100 100 100 100 100 100 100 100 94 33 42 13 66
100 100 100 100 100 97 100 67 5 7 4 2 6 63 39 19 25 100 93 100 99 86 82 73 99 87 29 38 100 100 100 100 100 100 91 100 100 100 100 62 40 74 38 5 5
100 100 100 100 100 100 97 17 15 5 5 5 2 5 5 5 8 30 21 99 84 72 87 100 100 100 100 79 100 100 100 100 100 100 100 100 89 88 100 100 100 98 97 5 5
100 100 100 100 100 100 56 27 5 5 2 3 5 5 0 3 5 5 91 87 41 11 92 76 57 98 100 95 100 100 100 100 100 58 100 100 100 100 100 100 100 99 86 98 7
100 100 100 100 100 100 24 5 5 0 0 0 10 4 0 0 4 5 0 6 37 26 40 25 69 5 56 98 87 100 100 100 100 100 62 88 67 51 43 99 100 100 100 100 92
100 100 100 100 100 100 38 7 5 5 0 3 6 1 3 5 5 5 5 2 4 5 22 37 48 45 75 6 14 63 96 85 90 100 94 52 100 100 100 100 100 100 72 13 7
100 100 100 100 100 67 9 5 5 5 5 5 4 0 0 5 5 5 4 5 4 1 5 5 5 33 78 27 99 100 66 12 5 34 5 32 94 100 90 94 17 22 70 6 5
100 100 100 100 100 54 20 5 5 4 0 5 5 5 5 5 5 5 5 4 5 1 5 4 5 59 67 31 66 100 100 91 61 6 5 31 46 46 60 80 84 70 61 28 16
100 100 100 100 95 100 37 5 5 5 4 0 0 5 5 5 5 5 5 5 5 4 5 2 5 4 5 5 6 5 96 100 100 100 100 94 100 100 99 87 68 67 67 64 15
100 100 100 100 96 100 98 5 5 5 5 4 0 4 5 5 5 5 5 5 5 5 5 5 4 5 5 5 5 5 5 45 100 100 100 100 100 100 100 100 100 100 99 18 22
100 100 100 99 99 100 100 5 8 5 4 5 3 5 5 2 3 5 4 2 5 5 5 5 5 3 4 0 0 2 5 7 54 26 100 100 100 100 100 100 100 100 99 52 42
100 100 100 99 100 100 100 54 64 5 5 0 5 1 5 5 5 4 5 5 5 5 5 5 5 5 5 5 4 45 37 6 5 98 99 100 100 100 100 100 100 100 100 100 45

GFSSW_prec_cloud_093.txt.gz
Cloud_Cover
71 58 100 100 100 46 46 5 84 59 99 88 4 3 2 1 0 0 0 0 0 0 0 5 0 0 0 0 25 0 100 100 38 5 2 100 100 100 100 100 100 100 100 100 100
100 100 100 100 100 70 65 7 100 100 100 83 4 0 2 0 0 0 0 0 32 23 4 1 2 18 5 0 11 92 99 100 34 9 22 100 100 100 100 100 100 100 100 100 100
100 100 100 100 100 95 51 58 84 15 100 58 1 1 0 0 0 0 0 0 0 0 0 0 6 6 1 5 1 26 81 98 99 91 39 100 100 100 100 100 100 100 100 100 100
100 100 100 100 100 100 100 100 97 46 100 44 0 0 0 0 0 0 0 0 5 1 0 2 3 32 46 4 3 11 4 100 100 100 100 100 78 100 100 100 100 100 100 100 100
100 100 100 100 100 100 100 91 75 62 100 99 0 0 0 0 0 0 0 0 1 2 5 12 14 95 62 5 5 5 5 100 100 100 100 100 63 98 100 100 100 100 100 100 100
100 100 100 100 100 100 100 87 68 100 92 100 0 0 0 0 0 0 0 0 4 38 21 64 10 95 91 7 5 5 5 100 81 100 100 100 73 63 100 100 100 100 100 100 92
100 100 100 100 100 100 98 61 97 72 45 50 0 0 0 5 0 0 5 0 7 99 100 100 97 98 7 20 5 7 12 100 100 100 100 100 80 60 100 100 100 100 100 100 100
100 100 100 100 100 100 84 99 100 93 11 8 0 0 29 3 0 7 46 11 100 83 100 100 100 100 86 19 6 5 95 100 100 100 100 100 88 36 32 100 100 100 100 100 100
100 100 100 100 100 100 67 100 100 100 11 0 0 5 10 3 14 61 35 49 90 99 98 94 100 100 82 100 56 8 84 91 100 100 100 100 100 8 5 69 100 94 100 100 100
100 100 100 100 100 100 100 100 100 98 0 5 5 28 3 4 6 46 5 57 44 97 100 100 100 100 100 100 100 8 97 100 100 100 100 100 100 100 44 5 70 100 99 100 100
100 100 100 100 100 100 100 100 100 9 0 0 0 0 1 5 0 1 2 4 24 98 100 100 100 100 100 100 64 3 86 100 100 100 100 100 100 100 100 5 2 100 100 100 100
100 100 100 100 100 100 100 100 99 5 1 3 4 5 5 8 2 23 100 19 99 100 100 100 100 100 100 100 27 5 97 100 100 100 100 100 100 100 97 13 5 34 100 100 100
100 100 100 100 100 100 100 100 65 2 3 5 3 5 5 5 34 100 100 100 100 100 100 100 100 77 34 98 100 5 26 95 100 100 100 100 100 95 99 97 7 5 43 100 99
100 100 100 100 100 100 100 100 13 5 5 0 0 5 5 5 32 96 100 100 100 100 100 99 100 100 100 100 12 0 61 100 100 100 100 100 100 100 100 100 9 5 5 43 100
100 100 100 100 100 100 100 96 5 5 0 0 1 5 5 37 75 100 100 100 100 100 100 100 100 100 100 14 58 40 76 92 100 97 100 100 100 100 77 100 28 7 6 4 62
100 100 100 100 100 100 100 64 5 5 0 4 1 5 46 76 100 100 100 100 100 100 100 100 100 100 97 100 95 100 100 100 100 100 100 100 100 100 84 100 100 20 56 41 5
100 100 100 100 100 100 98 10 13 9 3 0 3 5 5 24 16 98 100 100 100 87 100 94 95 100 82 63 71 100 100 100 100 100 82 100 100 100 100 99 57 96 19 5 4
100 100 100 100 100 100 34 61 5 5 5 0 0 5 5 5 17 65 54 94 86 89 46 100 95 99 100 99 100 100 100 100 100 99 100 100 100 100 97 100 99 21 97 46 3
100 100 100 100 100 100 100 17 4 5 3 2 1 5 0 2 4 5 5 9 29 75 59 62 94 99 80 33 100 96 98 100 100 100 96 100 100 76 100 100 100 88 100 100 100
100 100 100 100 100 100 81 5 5 5 2 0 2 1 0 0 3 0 0 14 67 43 10 6 66 67 73 98 89 94 100 100 100 100 100 100 90 100 100 100 100 93 45 72 89
100 100 100 100 100 97 69 5 5 5 2 0 3 0 5 5 5 5 4 15 5 5 15 6 4 65 35 34 28 25 81 22 36 87 63 11 57 100 100 100 100 100 100 95 81
100 100 100 100 100 68 77 5 5 5 2 3 0 0 4 5 5 5 3 5 0 1 1 0 5 22 14 89 100 97 95 64 100 83 52 100 62 100 100 100 100 100 100 100 100
100 100 100 100 100 76 38 5 5 5 5 2 0 0 0 5 3 4 5 5 1 0 0 0 4 5 5 3 12 71 6 5 5 8 5 5 46 100 100 96 100 100 100 100 100
100 100 100 100 100 75 30 22 5 5 5 5 0 0 2 5 4 3 5 5 5 0 0 0 3 0 5 1 1 4 8 5 9 30 98 90 45 7 63 26 21 8 81 21 46
100 100 100 100 100 81 27 5 5 5 5 4 0 0 0 5 5 2 4 5 5 0 2 3 4 5 5 5 5 2 5 4 5 6 5 97 56 100 96 32 6 5 5 71 88
100 100 100 100 100 96 17 5 5 5 4 0 0 3 0 0 0 0 0 0 0 5 5 5 5 2 4 0 0 0 0 0 1 5 64 59 97 100 91 7 36 100 100 98 100
100 100 100 100 100 70 26 5 5 4 4 0 0 0 0 0 0 0 0 4 2 5 1 5 5 5 5 4 0 1 0 0 0 0 4 20 89 100 100 100 100 100 100 100 100

GFSSW_prec_cloud_096.txt.gz
Cloud_Cover
100 100 100 100 100 100 100 100 100 100 100 100 100 18 5 3 0 0 0 0 0 0 2 0 0 0 0 0 2 56 91 86 47 100 4 98 100 100 100 100 100 100 100 100 99
100 100 100 100 100 100 100 100 100 100 100 100 100 6 0 4 0 0 0 0 0 49 1 1 0 1 3 8 0 39 100 26 70 80 72 100 100 100 100 100 100 100 100 100 100
100 100 100 100 100 100 100 100 100 100 100 100 72 6 4 0 0 0 0 0 0 0 0 0 0 2 18 5 4 3 67 0 23 99 88 100 100 100 100 100 100 100 100 100 100
100 100 100 100 100 100 100 100 100 100 100 99 92 5 5 0 0 0 0 0 5 2 0 0 0 0 5 6 4 8 0 16 5 98 100 100 100 100 88 100 100 100 100 100 100
100 100 100 100 100 100 92 100 100 100 100 93 100 5 1 0 0 0 0 0 0 0 4 5 5 10 20 5 5 5 4 4 1 85 100 100 100 100 8 100 100 100 100 100 100
100 100 100 100 100 100 96 100 100 100 100 100 40 5 0 0 0 0 0 1 5 4 5 44 32 22 73 17 27 3 2 4 31 100 100 100 87 100 100 100 100 100 100 100 100
100 100 100 100 100 100 100 100 100 100 100 84 38 0 0 0 0 0 3 48 4 34 17 99 100 96 16 16 5 5 54 0 100 100 100 100 100 55 100 100 100 100 100 100 100
100 97 100 100 100 100 100 100 100 100 100 100 13 0 7 0 0 0 40 91 3 94 89 100 100 100 100 60 30 79 100 47 99 100 100 100 97 12 100 100 100 100 100 100 100
100 100 100 100 100 100 100 100 100 100 100 73 0 0 13 0 0 5 50 18 42 100 100 100 100 100 88 100 100 98 24 32 100 100 100 100 100 81 100 100 100 100 100 100 100
100 100 100 100 100 100 100 100 100 100 100 6 0 12 0 1 0 5 1 1 38 83 95 99 100 100 100 100 58 73 5 8 100 100 100 100 100 100 100 100 100 100 100 100 100
100 100 100 100 100 100 100 100 100 100 90 4 0 0 5 5 5 5 4 3 5 97 91 100 100 100 100 82 72 87 5 14 100 100 100 100 100 100 100 100 100 100 100 100 100
100 100 100 100 100 100 100 100 100 100 12 0 1 5 5 9 50 52 51 5 11 99 86 100 100 100 100 100 93 49 10 86 100 100 100 100 100 100 94 72 100 100 100 100 100
100 100 100 100 100 100 100 100 100 86 4 1 5 5 5 5 48 94 50 18 60 100 100 100 100 94 100 100 100 14 56 91 100 100 100 100 100 100 100 21 100 100 100 100 100
100 100 100 100 100 100 100 100 100 49 5 0 0 3 26 9 78 38 98 100 100 100 100 100 97 100 100 100 93 9 26 100 100 100 100 100 100 100 100 99 98 100 100 100 100
100 100 100 100 100 100 100 100 100 4 0 0 0 5 22 94 100 100 100 100 100 100 100 100 100 100 100 73 16 100 100 100 100 100 100 100 100 100 84 95 57 100 100 100 100
100 100 100 100 100 100 100 100 84 4 0 0 0 4 5 69 100 100 100 100 100 100 100 100 100 100 98 51 26 100 100 100 100 100 100 100 98 100 98 100 100 97 100 100 100
100 100 100 100 100 100 100 99 88 3 1 0 0 5 5 68 100 98 100 94 98 91 89 97 98 92 73 21 38 98 100 97 100 100 100 100 100 100 100 100 100 100 99 100 100
100 100 100 100 100 100 100 100 48 1 4 0 0 3 5 5 17 80 84 12 8 10 46 26 100 98 98 64 100 71 10 9 100 100 100 95 100 100 100 100 100 59 70 9 50
100 100 100 100 100 100 100 100 5 4 2 3 0 0 0 5 7 5 5 60 39 6 5 79 100 100 100 64 100 100 86 100 100 100 100 100 100 99 100 100 100 100 100 45 40
100 100 100 100 100 100 100 64 5 0 0 0 0 0 0 0 1 2 2 16 73 14 5 18 100 100 97 98 98 100 86 94 100 100 100 100 100 100 100 100 98 88 100 95 76
100 100 100 100 100 100 79 42 5 5 0 0 0 3 1 5 5 5 7 3 5 5 5 0 8 88 11 100 98 96 100 5 92 98 100 100 100 100 100 100 100 100 100 100 99
100 100 100 100 100 100 92 14 5 5 0 0 0 0 1 4 1 5 5 5 5 5 1 4 5 77 74 52 100 5 7 87 6 100 98 81 33 100 100 100 100 100 97 85 38
100 100 100 100 100 98 50 7 5 3 0 0 0 0 0 0 1 2 5 5 0 1 5 0 5 5 12 5 4 2 12 20 23 5 8 10 5 36 94 26 6 65 100 94 65
100 100 100 100 100 47 55 6 8 5 3 3 1 0 0 4 0 2 5 4 4 0 1 0 3 0 5 2 1 0 0 1 2 5 5 4 4 2 7 62 96 60 100 82 100
100 100 100 100 100 47 32 36 36 5 4 4 2 0 0 3 0 3 5 3 0 0 0 0 5 5 4 5 4 1 2 0 0 0 5 5 4 0 29 26 82 100 100 100 100
100 100 100 100 100 99 65 23 28 5 5 3 0 0 0 0 0 0 0 0 0 3 0 0 5 2 4 0 0 1 1 0 0 0 0 0 2 1 5 4 2 5 52 26 100
100 100 100 100 67 98 46 29 9 5 5 0 0 0 0 0 0 0 0 0 3 2 0 0 4 5 5 4 4 0 5 0 0 0 0 0 0 0 0 3 6 8 9 12 44

GFSSW_prec_cloud_099.txt.gz
Cloud_Cover
100 100 100 100 100 100 100 100 90 100 100 100 100 100 100 100 63 5 66 4 0 0 28 0 0 0 0 0 0 27 28 15 45 11 26 5 14 95 94 94 100 100 100 100 100
100 100 100 100 100 100 100 100 100 100 99 100 100 100 100 62 10 36 8 1 0 54 0 0 0 0 2 19 1 8 42 5 2 5 16 98 99 74 100 98 99 100 100 100 100
100 100 100 100 100 100 100 100 100 100 42 51 100 100 100 19 46 48 5 3 5 0 0 0 0 0 0 3 3 5 4 0 0 2 85 100 100 94 52 50 97 100 100 100 100
88 100 100 100 100 100 100 100 100 100 12 99 100 100 89 9 72 2 0 0 1 0 0 0 0 1 12 3 1 6 0 0 3 57 39 100 100 99 100 66 100 100 100 100 100
36 85 100 100 100 100 100 100 100 85 100 100 100 100 81 80 20 5 0 0 0 0 0 2 4 5 5 5 5 3 0 5 1 5 100 100 100 100 98 68 100 100 100 100 100
94 93 100 100 100 100 100 100 100 100 100 100 100 100 68 14 4 0 0 0 0 2 4 3 2 5 25 5 7 5 16 0 8 2 100 100 100 100 100 100 100 100 100 100 100
20 50 100 100 100 100 100 100 100 100 100 100 100 44 16 2 0 0 0 0 5 3 0 5 5 21 41 26 1 2 74 5 2 7 40 100 100 92 100 100 100 100 100 100 100
6 99 100 100 100 100 100 100 100 100 100 100 99 5 5 0 0 0 0 0 0 1 4 5 60 94 100 80 11 5 74 70 2 32 42 86 100 100 100 100 100 100 100 100 100
9 94 100 100 100 100 100 100 100 100 100 100 42 4 0 0 0 0 0 3 5 4 15 17 90 100 100 100 91 99 42 93 4 2 73 34 100 95 100 100 94 100 100 100 100
37 94 92 100 100 100 100 100 100 100 100 98 1 2 0 0 2 2 0 0 3 5 5 64 100 100 100 100 42 98 31 5 59 28 10 98 100 98 100 100 100 100 100 100 100
27 99 100 100 100 100 100 100 100 100 78 5 4 0 4 5 5 1 2 5 0 5 80 99 100 100 100 90 98 100 5 5 3 5 100 100 100 100 100 100 100 100 100 100 100
61 98 100 100 100 100 100 100 100 100 48 4 0 5 5 5 6 9 8 5 18 100 99 100 100 99 100 8 81 100 26 13 38 100 100 100 100 100 100 100 100 100 100 100 100
100 76 100 100 100 100 100 100 100 100 7 0 0 5 5 4 8 23 66 92 57 100 94 100 100 100 100 96 100 100 69 100 100 100 100 97 100 100 100 100 100 100 100 100 100
100 100 100 100 100 100 100 100 100 5 5 0 0 5 5 5 52 100 100 100 100 100 100 100 100 100 100 68 94 97 100 100 100 100 100 100 100 100 93 100 100 100 100 100 100
100 96 100 100 100 100 100 100 88 4 0 0 1 3 5 65 100 100 100 100 100 100 100 100 100 100 100 81 63 100 100 100 100 100 100 100 100 100 100 100 100 100 100 100 100
84 100 100 100 100 100 100 100 64 3 0 0 0 5 20 93 100 97 91 100 100 100 100 100 100 99 98 17 25 99 100 100 100 100 100 100 100 100 100 100 100 100 100 100 100
100 100 100 100 100 100 100 89 5 0 0 0 0 5 5 52 84 77 54 98 92 100 100 100 100 100 99 99 78 100 100 100 100 100 100 100 100 100 100 100 100 100 46 100 100
100 100 100 100 100 100 100 34 2 0 3 0 0 5 68 76 12 14 7 41 28 84 100 100 100 100 80 64 88 100 89 100 100 100 100 100 100 100 100 100 98 100 100 100 100
100 100 100 100 100 100 100 5 3 2 0 3 0 4 5 5 28 5 22 25 12 7 70 99 100 100 100 90 22 64 5 99 100 100 100 100 100 99 100 100 93 100 100 100 42
100 100 100 100 100 100 53 7 5 0 0 0 0 0 0 1 0 2 5 5 5 5 6 61 100 100 100 100 32 90 63 93 100 83 17 100 82 52 94 100 99 100 100 100 100
100 100 100 100 100 71 44 19 5 0 0 0 0 2 0 1 1 5 15 5 5 5 3 6 81 99 98 100 80 100 58 95 100 93 16 26 22 5 9 100 100 92 100 100 100
100 100 100 100 100 37 56 5 3 0 0 0 0 0 0 0 3 5 6 5 3 4 2 5 5 90 70 100 100 42 6 6 10 61 5 53 34 44 72 100 100 100 98 94 33
100 100 100 100 92 79 67 5 3 0 0 0 0 0 0 0 3 5 5 5 0 0 0 0 5 21 24 5 5 73 5 5 25 27 97 98 6 3 100 6 5 9 97 22 9
100 100 100 100 96 74 66 10 5 0 0 0 0 0 0 0 0 3 5 3 0 0 0 0 4 0 4 3 4 1 0 0 0 5 20 6 9 3 33 7 40 5 5 25 17
100 100 100 100 100 43 16 5 5 2 0 0 0 0 0 0 0 3 5 1 0 0 0 0 5 4 5 0 0 5 4 0 2 0 4 0 0 3 7 77 13 5 7 60 52
100 100 100 99 97 85 69 5 5 2 0 0 0 0 0 0 0 0 0 0 0 0 0 0 4 2 5 0 0 0 0 0 0 0 0 0 0 0 0 0 0 0 0 0 42
100 100 46 95 100 75 79 51 22 3 1 0 0 0 0 0 0 0 0 0 0 0 0 0 4 5 5 3 0 0 0 0 0 0 0 0 0 0 0 0 0 0 0 0 5

GFSSW_prec_cloud_102.txt.gz
Cloud_Cover
28 52 100 100 100 100 100 96 100 42 62 100 95 87 98 76 90 96 94 100 75 89 15 5 1 1 0 1 8 17 58 5 5 5 5 5 86 16 40 41 17 3 96 100 100
41 42 94 100 100 100 99 88 100 98 69 57 100 100 100 99 93 100 72 6 5 27 6 5 0 0 4 8 20 72 5 5 1 5 5 3 44 16 71 99 67 43 94 100 100
98 61 47 100 100 100 100 100 95 100 100 98 98 70 100 89 24 98 98 15 17 21 0 0 0 0 5 6 6 7 5 3 5 20 13 85 100 27 26 91 16 15 89 100 99
100 84 18 100 100 95 100 100 100 100 100 97 99 87 87 100 100 99 5 6 96 5 0 0 0 1 4 5 8 39 5 5 5 85 71 18 26 32 27 11 100 100 97 80 100
70 100 64 92 100 100 100 100 100 100 100 99 100 100 100 100 99 69 4 19 4 0 0 1 2 3 0 1 5 5 1 4 47 5 1 5 54 53 87 67 100 100 99 100 100
9 100 99 2 100 100 100 100 100 100 100 100 100 100 100 100 26 4 3 0 0 0 0 0 0 5 9 4 5 4 5 3 24 5 5 8 4 51 81 33 88 24 100 100 100
99 82 100 56 100 100 100 100 100 100 100 100 100 100 99 92 5 0 0 0 0 0 2 2 4 39 63 66 63 5 5 35 5 0 5 5 38 97 100 95 98 37 100 100 100
10 12 83 100 100 100 100 100 100 100 100 100 100 96 93 4 0 0 0 0 0 0 0 0 4 61 100 52 48 26 25 5 61 5 6 2 38 100 100 100 100 100 100 100 100
0 8 10 93 100 100 100 100 100 100 100 100 100 82 79 0 0 0 0 1 5 5 3 4 33 35 94 100 100 81 38 5 41 6 5 78 100 100 100 100 100 100 100 100 100
0 3 8 98 100 100 100 100 100 100 100 100 85 84 20 2 0 0 1 0 3 5 13 80 84 100 100 100 100 94 100 67 48 18 5 84 100 100 100 100 100 100 100 100 100
0 3 100 100 100 100 100 100 100 100 100 100 100 99 0 2 3 5 0 1 5 3 16 97 100 100 93 89 100 100 99 96 92 45 5 9 100 100 100 100 100 100 100 100 100
27 90 93 100 100 100 100 100 100 100 100 100 100 0 5 5 5 5 5 18 58 65 100 100 100 100 98 100 100 100 99 99 100 35 23 100 100 100 100 100 100 100 100 100 100
2 30 46 100 100 100 100 100 100 100 100 100 12 5 9 5 9 38 70 100 100 100 100 100 100 100 100 100 100 59 90 98 100 74 81 100 100 100 100 100 100 100 100 100 100
3 16 100 100 100 100 100 100 100 100 100 18 3 5 43 62 39 74 100 93 100 100 100 100 99 100 100 100 47 100 57 100 100 7 100 100 100 100 100 100 71 68 100 100 100
12 95 100 100 100 100 100 100 100 100 92 0 3 5 5 28 27 40 76 100 100 100 100 100 100 100 98 99 52 100 71 98 99 96 91 100 100 100 100 100 100 100 100 100 100
61 99 100 100 100 100 100 100 100 68 0 4 3 5 5 8 92 30 82 100 100 100 100 100 100 100 86 94 100 100 100 100 100 100 100 100 100 100 100 100 100 100 100 100 100
42 11 100 100 100 100 100 100 34 2 0 2 4 5 5 27 96 89 42 93 100 100 100 100 100 99 63 100 100 100 100 100 100 100 100 100 100 100 100 100 100 100 100 100 100
7 99 100 100 100 100 100 94 5 0 0 0 3 4 4 5 42 5 10 71 75 100 100 94 96 100 100 95 100 100 100 100 100 100 100 100 100 100 100 99 96 100 100 100 100
100 100 100 100 100 100 86 8 4 0 0 0 4 0 5 5 5 5 5 36 23 7 64 98 100 100 74 28 99 99 100 100 100 100 100 100 100 100 100 100 100 100 100 100 100
100 100 100 100 100 100 66 9 5 0 0 0 0 0 0 0 4 4 5 5 70 92 79 78 100 100 100 13 41 100 100 100 99 100 100 100 100 100 100 99 100 100 100 100 100
100 100 100 100 100 98 5 5 5 0 0 0 0 0 0 1 3 5 5 4 5 96 88 97 100 100 37 47 98 100 100 97 39 26 100 98 95 100 100 100 100 100 100 100 100
100 100 100 100 93 49 5 5 3 0 0 0 0 0 0 0 5 5 5 7 0 6 51 8 79 98 100 90 87 93 31 99 5 4 68 6 10 0 3 79 79 100 100 100 100
100 100 100 96 88 11 11 14 3 0 0 0 0 0 0 0 4 5 5 4 4 0 4 4 52 36 83 88 95 100 100 6 2 9 0 2 3 0 0 0 3 4 4 73 82
100 100 100 100 26 17 96 48 3 0 0 0 0 0 0 3 0 5 5 0 0 0 0 0 4 3 0 5 4 74 51 4 4 4 70 84 71 49 5 4 1 1 21 3 0
98 96 79 98 70 28 92 14 4 2 0 0 0 0 0 0 0 5 0 0 0 0 0 1 5 5 5 2 3 5 5 4 77 52 15 5 6 5 9 57 6 3 2 40 100
97 66 5 94 30 84 76 14 5 2 0 0 0 0 0 0 0 0 0 0 0 0 0 0 4 1 4 0 0 0 0 0 0 2 2 5 3 0 0 0 0 0 1 10 5
12 44 30 95 66 96 54 6 3 0 0 0 0 0 0 0 0 0 0 0 0 0 0 0 0 0 4 0 0 0 0 0 0 0 0 0 0 0 0 0 0 0 0 0 0

GFSSW_prec_cloud_105.txt.gz
Cloud_Cover
66 59 100 62 100 100 100 87 100 100 83 68 68 32 5 5 33 74 89 42 38 5 13 5 19 42 69 79 10 78 93 5 5 5 5 4 99 98 27 73 55 96 100 52 68
100 50 86 19 100 100 100 100 25 100 100 21 76 5 5 19 56 24 59 99 87 65 37 59 12 42 22 5 5 90 28 5 5 44 5 5 14 49 80 99 77 99 58 29 90
94 83 100 12 71 100 100 100 100 100 52 62 98 29 56 7 15 97 100 96 52 90 7 23 79 79 47 8 50 72 14 29 5 5 7 13 99 96 89 26 52 38 98 77 52
15 100 100 96 80 100 100 100 100 100 100 92 52 15 93 43 77 90 55 93 48 94 37 74 78 8 4 4 69 92 75 97 14 57 92 25 7 96 11 28 98 5 100 90 100
4 97 100 100 76 100 100 100 100 100 100 52 47 34 13 100 98 17 5 91 46 5 5 5 5 5 0 1 4 44 48 38 89 67 81 57 93 6 14 6 10 42 99 63 75
29 61 31 100 91 100 100 100 100 100 100 72 48 95 98 100 37 32 91 22 5 3 5 4 4 5 4 5 5 2 5 5 32 92 99 91 15 56 18 82 7 52 6 99 52
100 80 100 100 55 100 100 100 100 100 32 23 97 100 100 40 98 100 22 4 5 5 5 6 5 27 16 34 54 64 61 4 4 37 69 97 36 47 26 94 5 43 66 67 11
100 88 99 67 97 100 100 100 100 100 74 89 97 100 100 100 100 95 5 5 8 10 5 66 60 59 75 51 57 99 75 99 0 15 81 35 17 0 4 34 2 24 28 50 100
100 100 81 1 58 100 100 100 98 98 93 100 100 100 100 100 98 32 5 17 100 100 17 56 16 52 93 76 97 84 45 87 90 6 100 65 5 5 52 3 5 43 21 83 100
75 18 69 5 97 100 100 100 98 100 96 100 100 95 100 99 87 90 4 5 5 95 97 35 82 97 97 100 74 100 100 94 100 44 100 88 5 29 0 0 5 76 96 100 100
0 3 93 100 100 100 100 100 100 92 100 100 92 100 100 100 77 16 36 24 17 79 87 100 96 77 99 99 94 94 66 99 100 27 99 41 56 66 5 10 100 57 100 65 100
100 30 100 100 100 100 100 86 100 100 100 100 100 100 100 100 82 8 64 99 100 100 100 100 100 90 98 72 97 94 10 9 74 100 99 100 47 5 3 74 99 100 100 77 100
17 5 14 100 100 100 100 100 100 100 100 100 100 100 100 41 87 100 89 98 98 100 100 100 99 72 100 38 66 22 78 100 100 100 100 83 55 5 13 100 100 100 100 96 100
0 27 15 98 100 100 100 100 100 100 100 98 100 98 6 98 86 54 100 97 100 100 100 100 99 100 100 49 70 100 100 100 100 96 81 7 43 62 100 100 100 100 100 82 100
0 72 100 100 100 100 100 100 100 100 100 100 94 5 5 96 57 92 99 100 100 100 100 98 100 100 100 76 85 57 99 100 100 100 60 40 100 100 100 100 100 100 100 100 100
5 48 100 89 100 100 100 100 100 98 100 27 8 7 50 54 53 80 87 100 100 100 100 100 98 100 100 98 100 100 100 100 100 100 100 100 100 100 100 100 100 100 100 100 100
2 51 100 100 100 100 100 100 88 69 1 3 5 6 89 5 5 32 100 100 95 100 100 100 100 100 100 100 100 100 100 100 100 100 100 100 100 100 100 100 100 100 100 100 100
0 43 100 100 100 100 100 100 37 1 2 2 5 5 28 84 5 10 100 100 98 30 98 100 93 100 100 100 100 100 99 100 100 100 100 100 100 100 100 100 100 100 100 100 100
100 100 100 100 100 100 94 67 5 2 0 5 2 5 5 5 4 61 83 80 83 100 100 100 98 96 72 100 100 100 100 100 100 100 100 100 100 100 100 100 100 100 100 100 100
100 100 100 100 100 100 40 52 5 0 3 2 5 2 5 3 4 5 72 100 82 100 100 65 92 44 100 100 100 100 100 100 100 100 100 100 100 100 100 100 100 100 100 100 100
100 100 100 100 100 95 46 36 5 0 2 4 0 0 0 1 4 12 86 91 100 100 100 100 38 30 94 100 100 100 100 100 100 51 100 100 100 100 100 100 100 100 100 100 100
100 100 100 100 87 55 12 5 4 2 1 2 2 0 0 2 5 5 86 31 86 100 94 89 92 54 100 100 100 13 13 19 7 10 100 100 99 100 100 100 100 100 100 100 100
100 100 100 84 100 65 4 13 5 4 5 5 4 0 0 3 4 5 4 5 57 62 100 100 21 99 98 67 17 4 5 5 5 68 54 24 89 99 89 100 93 100 100 100 100
59 100 100 54 29 59 8 10 1 0 2 0 1 0 0 1 2 5 5 1 0 2 3 14 39 17 100 44 16 5 5 68 84 100 100 100 80 96 5 3 51 65 100 100 100
23 88 33 80 57 5 91 15 5 3 0 0 0 3 0 0 0 0 4 4 0 0 0 5 5 5 5 5 15 5 14 26 23 48 21 80 24 7 24 25 17 97 100 100 100
6 5 38 85 7 5 12 28 5 2 3 0 1 0 0 0 1 5 2 3 4 1 0 0 4 0 0 0 0 0 0 0 0 3 4 3 2 0 1 2 0 100 100 100 100
5 3 5 60 5 5 9 7 4 3 0 0 2 4 0 0 0 0 0 0 0 2 0 0 0 4 3 0 0 1 0 0 0 0 1 5 2 0 0 0 0 0 3 24 96

GFSSW_prec_cloud_108.txt.gz
Cloud_Cover
100 85 58 9 97 96 100 100 100 32 59 25 8 47 18 54 97 35 0 2 4 5 5 14 5 5 5 5 5 97 12 7 5 5 91 4 2 21 100 21 2 75 14 59 12
100 100 100 57 77 85 100 100 99 95 66 60 5 6 5 1 5 4 6 2 4 5 5 22 5 15 15 5 5 15 61 5 4 5 5 5 4 5 94 94 58 0 45 95 5
100 100 100 100 100 84 100 100 100 100 38 40 8 5 5 5 2 2 4 2 5 5 48 5 1 5 4 5 10 48 5 51 5 39 3 22 89 5 47 53 97 88 1 60 6
100 100 100 100 100 100 100 100 100 100 85 12 12 5 5 5 0 2 0 0 10 5 0 2 0 7 84 68 16 5 41 81 17 5 28 7 5 5 8 5 90 80 17 49 27
100 100 100 100 100 100 100 100 89 100 86 100 5 5 4 5 2 0 0 32 21 7 3 1 1 50 100 94 16 5 18 5 5 5 5 92 16 5 5 10 35 45 49 5 22
100 100 100 100 100 100 100 100 95 100 71 9 5 5 5 4 0 3 34 30 8 5 5 4 5 12 10 0 0 0 4 4 2 2 34 4 41 88 0 3 17 68 27 2 19
100 100 100 100 100 100 100 100 96 100 33 6 8 5 4 3 5 2 11 18 11 5 5 2 5 5 12 5 17 7 5 5 0 0 0 1 4 0 1 0 5 4 0 5 4
100 100 100 100 100 100 100 100 100 95 85 5 5 19 32 2 16 31 50 59 5 4 0 4 6 5 5 5 5 77 33 15 0 0 0 2 4 4 0 0 0 0 5 7 6
100 100 100 100 100 100 100 100 100 61 6 80 35 52 5 13 77 25 56 46 22 5 60 60 93 49 78 6 60 10 35 5 2 17 1 4 0 0 0 5 0 32 0 0 0
100 100 100 100 100 100 100 100 98 52 28 48 86 3 82 99 75 100 46 93 7 43 95 100 55 100 100 100 27 5 99 94 6 14 96 4 5 0 8 4 0 2 0 0 0
100 100 100 100 100 100 100 100 100 100 99 37 36 99 100 99 98 100 84 5 5 16 98 100 96 81 95 37 72 98 100 94 5 68 100 19 85 1 100 59 0 0 0 0 0
60 3 97 100 100 95 100 100 99 98 100 88 100 100 100 100 99 80 6 33 90 95 100 100 90 83 78 100 100 74 56 39 78 11 53 6 100 16 80 100 4 3 0 0 0
6 100 69 100 100 100 100 100 100 100 100 100 100 100 100 98 97 65 45 95 100 100 100 100 94 60 79 77 91 100 94 16 22 84 68 90 100 28 95 100 18 2 0 62 95
3 47 99 85 100 100 100 100 100 100 100 100 100 100 100 73 26 65 98 100 100 100 100 100 90 95 100 100 65 98 100 100 90 100 97 91 9 80 81 67 12 1 83 70 100
2 100 100 89 100 100 100 100 100 100 100 100 100 100 74 8 68 100 100 100 100 100 100 100 100 99 100 51 95 98 100 100 88 100 100 100 100 100 77 84 10 84 100 74 96
94 79 100 100 100 100 100 100 100 100 100 100 55 8 16 5 97 75 100 100 100 100 100 100 100 100 100 92 100 100 100 100 100 100 100 100 100 100 100 100 100 100 94 78 99
71 8 100 100 100 100 100 100 100 100 34 13 4 5 53 36 86 90 100 95 100 100 100 100 98 100 99 100 100 100 100 100 100 100 100 100 100 100 100 100 100 100 100 100 100
98 91 100 100 100 100 100 100 89 0 5 3 2 5 75 13 5 91 60 92 94 47 78 92 89 32 91 100 100 100 100 100 100 100 100 100 100 100 100 100 100 100 100 100 100
71 100 100 100 100 97 24 86 29 2 1 4 5 82 9 5 74 87 24 52 12 19 87 100 74 47 100 100 100 100 100 100 100 100 99 100 100 100 100 100 100 100 100 100 100
100 100 100 100 59 5 23 42 3 1 2 5 10 48 61 5 79 100 65 75 5 5 70 100 100 100 100 100 100 100 97 100 100 100 100 100 100 100 100 100 100 100 100 100 100
100 100 100 100 69 5 52 5 5 0 0 3 5 5 81 17 83 96 10 9 5 58 99 100 100 100 100 100 100 100 100 97 100 100 100 98 100 100 100 100 100 100 100 100 100
100 100 98 6 66 5 5 3 0 0 2 4 2 0 5 76 89 100 18 5 5 98 100 98 90 33 100 100 100 5 83 100 100 99 99 100 100 100 100 100 100 100 100 100 100
100 100 31 92 15 5 2 3 4 5 4 4 3 0 0 0 27 100 17 96 4 5 84 44 37 35 26 70 47 77 81 94 100 100 100 100 100 100 100 100 100 100 100 100 100
58 100 68 60 5 5 4 1 0 0 2 2 0 2 4 0 0 3 4 4 4 5 3 33 100 87 31 36 64 98 96 96 100 98 100 38 66 100 100 90 100 100 100 100 100
82 44 12 12 4 5 4 4 0 1 0 0 0 0 0 0 0 2 0 2 0 4 4 5 10 6 5 5 4 19 50 10 13 0 2 32 5 3 1 2 96 100 100 100 100
91 5 5 5 1 4 1 3 0 0 0 0 0 0 0 0 4 1 0 0 0 0 2 0 0 0 0 0 0 0 0 0 0 5 3 0 1 0 0 0 5 100 100 100 100
44 5 5 4 5 4 1 5 2 0 0 0 0 3 0 0 0 0 0 0 0 0 0 0 0 2 2 0 0 1 0 0 0 0 1 2 0 0 0 0 97 68 100 100 100

GFSSW_prec_cloud_111.txt.gz
Cloud_Cover
100 100 100 71 40 56 94 100 100 100 100 5 13 23 19 49 4 5 4 2 1 0 0 0 0 0 1 5 5 4 89 96 11 5 1 0 0 0 5 4 5 94 98 89 7
95 100 100 100 94 96 73 100 100 100 97 73 5 8 5 1 2 4 2 3 0 1 1 1 2 0 0 5 5 21 26 5 2 1 2 0 0 0 4 75 4 5 96 82 97
100 100 100 100 100 100 100 100 100 100 76 37 23 5 4 1 0 0 0 3 4 3 0 0 3 5 8 16 4 3 5 5 2 0 0 0 0 0 5 25 52 4 4 0 24
100 100 100 100 100 100 100 100 100 100 100 95 95 79 5 2 0 0 0 0 0 0 0 0 0 1 0 11 4 4 5 5 5 7 3 4 4 0 0 3 64 22 5 23 1
100 100 100 100 100 100 100 100 100 100 100 100 100 79 5 2 0 0 0 0 0 0 0 0 0 5 5 0 0 0 0 2 5 5 17 1 3 5 2 1 5 67 5 4 6
100 100 100 100 100 100 100 100 100 90 100 100 100 100 98 15 0 0 0 0 3 0 0 0 0 0 1 0 0 0 0 2 5 4 0 0 0 4 0 4 5 6 22 0 3
100 100 100 100 100 100 100 100 100 100 100 99 41 5 85 2 0 0 2 0 0 0 0 0 0 0 0 0 0 0 1 0 2 0 0 0 0 0 0 1 3 5 19 9 5
100 100 100 100 100 100 100 100 100 100 100 100 74 5 5 3 2 0 0 0 1 5 5 0 4 0 0 0 0 0 0 5 0 0 0 0 0 0 0 4 5 5 6 5 5
56 100 100 100 100 100 100 100 100 100 100 100 42 5 1 0 0 0 0 3 11 5 5 5 2 0 1 5 5 6 7 5 9 0 3 33 2 0 0 0 1 4 4 4 3
91 100 100 100 100 100 100 100 100 100 100 48 10 4 3 1 2 0 4 34 42 5 5 1 5 5 6 38 31 6 90 77 32 1 5 13 6 0 0 0 0 0 0 0 0
100 100 100 100 100 100 100 100 100 100 56 5 5 5 10 3 3 100 100 84 5 5 5 5 69 66 16 76 74 89 87 27 5 3 5 4 14 0 0 33 0 0 0 0 0
70 100 100 100 100 100 100 100 84 99 80 39 38 96 90 99 100 100 17 5 5 5 9 60 99 9 72 76 98 93 95 54 4 0 62 76 4 3 46 45 50 48 0 0 0
98 100 100 100 100 100 100 100 94 57 90 100 100 100 100 100 100 76 21 6 18 96 87 86 54 80 99 98 95 43 25 11 5 4 5 24 61 100 100 100 100 81 3 0 0
100 5 100 100 100 100 100 99 99 100 100 100 100 99 100 98 87 30 83 46 99 100 98 100 85 73 100 78 78 64 15 95 93 97 47 10 37 54 4 26 36 33 3 0 0
100 99 68 96 93 100 100 57 100 100 100 100 100 100 100 55 70 88 83 56 100 100 100 84 94 72 100 99 99 99 100 97 100 100 94 44 100 100 65 18 60 5 5 2 0
100 100 86 27 69 100 100 100 100 100 100 100 94 48 8 31 76 100 100 100 100 100 100 94 87 75 98 98 100 100 100 99 100 100 100 96 100 100 100 100 36 48 20 7 17
100 100 100 100 100 100 100 100 100 100 35 17 5 5 5 38 40 100 100 100 100 88 48 83 52 68 100 100 100 100 100 100 100 100 100 100 100 100 100 100 88 100 93 65 97
100 100 100 100 100 100 93 52 53 6 15 5 5 5 5 5 75 100 66 97 92 100 94 98 83 48 100 100 100 100 100 100 100 100 100 100 100 100 100 100 100 100 100 100 100
100 99 88 95 27 5 1 10 5 5 5 5 5 5 5 5 30 55 82 5 85 73 53 84 99 100 100 100 100 100 100 100 100 100 97 100 100 100 100 100 100 100 100 100 100
56 89 71 4 4 0 0 8 1 5 5 21 26 5 4 5 5 99 22 92 100 100 66 44 90 100 100 100 100 100 100 100 100 100 100 100 98 100 100 100 100 100 100 100 100
5 45 41 0 0 0 5 5 1 0 0 29 4 3 5 5 5 5 60 56 70 7 6 19 95 100 100 100 88 81 100 100 100 100 100 100 100 100 100 100 100 100 100 100 100
28 39 5 0 7 2 1 0 0 0 0 0 5 2 4 5 0 5 5 3 82 78 42 44 85 100 100 94 100 100 98 86 100 95 100 100 100 100 100 100 100 100 100 100 100
37 52 5 9 0 5 1 0 0 0 0 0 0 0 0 1 2 5 5 36 92 83 94 100 100 92 33 5 35 100 100 100 100 93 99 79 100 100 100 100 100 100 100 100 100
4 31 8 0 0 4 0 0 0 0 0 0 1 0 0 0 0 1 3 6 34 46 15 5 6 16 11 5 84 100 100 95 40 63 5 73 80 100 100 100 100 100 100 100 100
11 5 6 4 0 0 0 0 0 0 0 0 0 0 0 0 0 0 0 1 3 5 4 0 0 0 1 0 0 1 0 0 0 0 2 5 5 0 10 18 25 100 100 100 100
96 44 5 5 0 0 0 0 0 0 0 0 0 0 0 0 0 0 0 0 0 0 0 0 2 0 0 0 0 0 0 0 0 0 0 0 0 0 0 0 0 1 100 100 100
54 66 13 2 0 1 1 0 0 0 0 0 0 0 0 0 0 0 0 0 0 0 0 0 0 1 2 0 0 1 0 0 0 0 0 0 0 0 0 0 0 0 93 100 100

GFSSW_prec_cloud_114.txt.gz
Cloud_Cover
100 100 100 100 100 67 100 100 100 100 59 73 5 5 5 0 37 8 16 32 5 4 4 3 4 0 0 0 0 0 1 1 0 0 0 2 0 0 0 0 3 3 4 22 50
100 100 100 100 100 100 100 83 96 100 100 100 45 1 2 5 0 0 0 4 5 4 2 0 0 0 0 0 0 0 14 4 4 4 0 0 0 0 0 0 2 5 5 5 41
100 100 100 100 100 100 100 100 100 100 100 93 73 6 5 5 2 0 0 0 0 0 0 1 0 0 0 0 0 0 5 4 3 1 1 4 0 0 0 0 0 5 5 5 7
100 100 100 100 100 100 100 100 100 100 100 98 99 100 7 5 4 5 0 0 0 0 0 0 0 0 0 0 0 0 0 0 0 0 0 0 0 5 0 0 3 0 5 5 5
100 100 100 100 100 100 100 100 100 100 91 100 100 100 17 5 5 8 5 1 0 0 0 0 0 0 0 0 0 0 0 0 0 0 0 0 0 0 0 0 5 4 0 2 5
100 100 100 100 100 100 100 100 100 100 80 100 96 48 5 39 43 61 27 5 0 1 0 0 0 0 0 0 0 0 0 0 0 0 0 0 0 0 0 0 0 2 4 0 1
100 68 100 100 100 100 100 100 100 100 100 100 87 25 73 74 49 6 8 5 5 5 0 0 0 0 0 0 0 0 0 0 0 0 0 0 0 0 0 0 4 0 5 11 0
99 31 100 100 100 100 100 100 100 100 100 100 100 92 72 5 4 4 5 10 5 4 0 0 0 0 0 0 0 0 0 5 0 0 0 0 0 0 0 0 0 0 0 62 5
100 88 94 100 100 100 100 100 100 100 100 100 100 74 6 5 5 5 5 4 0 1 0 2 2 2 2 2 5 5 5 5 1 0 0 5 3 0 0 0 0 0 0 0 60
6 100 100 100 100 100 100 100 100 100 100 100 74 39 5 5 5 5 1 5 5 8 5 5 5 9 5 10 5 5 19 5 5 0 0 0 5 0 0 0 0 0 0 0 3
100 100 100 100 100 100 100 100 100 100 100 38 45 88 42 5 5 2 3 5 5 5 14 5 22 89 10 5 5 5 23 21 5 3 14 5 5 0 0 0 0 0 0 0 0
100 100 100 100 100 100 100 75 55 88 42 59 100 100 96 5 55 28 5 5 6 49 5 19 95 22 6 5 7 74 71 78 7 3 27 5 4 0 1 0 0 0 0 0 0
100 100 100 100 100 100 100 92 97 78 98 97 90 81 7 59 18 28 44 94 63 87 100 100 11 63 69 99 98 95 100 97 58 66 13 5 4 76 68 3 0 0 0 0 0
63 100 100 100 97 94 96 98 7 62 40 24 5 60 49 95 95 71 100 51 97 96 100 87 40 98 27 53 75 100 100 100 93 100 92 84 49 5 7 3 2 5 5 0 0
5 68 90 94 61 100 32 4 4 3 7 26 100 98 100 90 28 91 51 91 100 98 83 74 5 97 61 79 92 100 100 100 100 100 100 100 92 100 100 74 5 2 3 5 4
5 5 5 16 22 77 97 97 82 100 100 90 100 99 95 87 94 96 100 100 98 100 100 99 69 24 32 76 100 100 100 100 100 97 100 100 97 100 100 100 100 5 5 5 5
100 100 100 100 100 100 100 100 100 100 81 74 33 26 20 70 96 100 100 100 97 79 64 91 44 5 18 74 98 100 100 94 100 100 100 100 100 100 100 100 100 86 95 84 91
87 65 23 49 14 34 16 21 5 5 5 5 5 5 5 5 84 100 91 100 100 100 88 98 79 47 98 100 100 100 100 100 100 100 100 100 100 100 100 100 100 100 100 100 100
5 4 0 1 5 1 2 8 5 5 5 5 5 5 5 10 81 93 84 84 15 7 25 57 74 31 74 100 99 100 100 100 100 100 100 100 100 100 100 100 100 100 100 100 100
5 4 0 2 0 0 2 5 5 4 4 3 5 4 5 5 17 43 48 36 96 83 44 51 99 99 100 100 100 100 100 100 100 99 91 100 100 100 100 100 100 100 100 100 100
4 0 0 0 0 0 0 1 5 4 4 3 0 1 0 5 3 5 7 6 100 100 52 100 100 54 100 100 62 100 56 100 100 100 100 100 100 100 100 100 100 100 100 100 100
0 31 0 0 0 0 0 0 0 0 0 0 0 0 3 5 5 19 5 5 5 6 28 21 99 88 5 5 83 9 40 95 59 100 100 94 100 100 100 100 100 100 100 100 100
0 2 0 0 0 0 0 0 0 0 0 0 0 0 3 12 56 14 98 100 96 95 100 50 5 5 86 89 68 23 50 100 100 100 100 93 100 100 100 100 100 100 100 100 100
0 4 0 0 0 0 0 0 0 0 0 0 0 0 2 2 1 4 6 2 1 0 0 0 1 3 1 0 0 0 8 7 8 41 17 98 76 98 100 100 100 100 100 100 100
5 4 6 1 0 0 0 0 0 0 0 0 0 0 0 0 0 0 0 0 0 0 0 0 0 0 0 0 0 0 0 0 0 1 2 12 8 5 16 82 100 100 100 100 100
9 12 5 1 1 5 0 0 0 0 0 0 0 0 0 0 0 0 0 0 0 0 0 0 0 0 0 0 0 0 0 0 0 0 0 0 0 0 0 0 5 99 98 100 100
6 5 5 3 1 0 2 0 0 0 0 0 0 0 0 0 0 0 0 0 0 0 0 0 0 0 4 0 0 0 0 0 0 0 0 0 0 0 0 2 2 25 40 96 98

GFSSW_prec_cloud_117.txt.gz
Cloud_Cover
100 100 100 100 100 100 98 100 100 100 75 98 5 5 5 3 0 8 4 4 5 2 0 5 5 4 3 3 0 0 0 14 1 0 0 4 1 0 0 0 0 0 0 0 96
100 100 100 100 100 100 66 100 94 100 100 100 45 55 73 33 1 3 0 0 0 3 2 1 4 5 0 0 0 0 1 0 0 0 0 4 5 4 0 0 0 0 0 0 31
100 100 100 100 100 100 100 100 100 100 100 100 72 98 70 100 96 7 0 0 0 0 0 0 0 0 3 1 0 0 2 0 0 0 0 0 0 0 0 0 2 0 0 0 0
100 100 100 100 100 100 100 100 100 100 98 100 100 19 64 7 88 5 3 0 0 0 0 0 0 0 0 0 0 0 0 0 0 0 0 0 0 0 0 0 1 0 0 3 5
100 100 100 100 100 100 100 100 100 100 100 100 100 97 100 79 92 49 1 2 0 0 0 0 0 0 0 0 0 0 0 0 0 0 0 0 0 0 0 0 0 0 0 2 4
100 100 100 100 100 100 100 100 100 100 100 100 100 100 100 100 68 52 5 5 0 0 0 0 0 0 0 0 0 0 0 0 0 0 0 0 0 0 0 0 0 0 0 2 5
100 89 18 100 100 100 100 100 100 100 100 100 100 100 95 97 12 5 5 5 0 0 0 0 0 0 0 0 0 0 0 0 0 0 0 0 0 0 0 0 0 0 0 0 5
89 44 50 99 100 100 100 100 100 100 100 100 100 99 92 38 72 16 5 0 0 0 0 0 0 0 0 0 0 0 0 5 0 0 0 0 1 0 0 0 0 0 0 0 0
32 5 0 99 100 100 100 100 100 100 100 100 100 100 100 91 31 79 5 3 1 0 0 0 0 0 0 2 3 4 4 4 2 0 0 1 1 0 0 0 0 0 0 0 0
5 5 52 100 100 100 100 100 100 100 91 97 100 100 78 100 22 5 5 5 5 5 3 1 2 5 5 5 5 5 5 5 5 0 0 3 4 0 0 0 0 0 0 0 0
100 100 100 100 100 100 100 100 100 100 100 100 100 100 100 63 30 5 3 5 5 5 5 5 32 72 5 5 5 5 5 71 5 1 28 4 4 0 0 0 0 0 0 0 0
100 100 100 100 100 100 100 100 98 100 100 100 100 94 8 8 17 5 5 5 5 5 16 58 59 4 5 5 7 41 100 88 9 2 5 4 2 0 3 5 0 0 0 0 0
100 100 100 100 100 100 100 97 26 40 95 79 42 6 100 60 5 68 71 96 68 98 100 99 5 6 10 33 80 58 72 97 74 100 92 89 39 41 5 4 0 0 0 0 0
100 100 100 100 100 100 100 59 26 5 5 6 5 28 6 5 6 10 96 50 38 87 90 69 5 22 5 69 33 99 97 99 100 100 96 100 95 92 81 2 2 3 4 5 4
13 69 82 95 97 99 98 87 68 5 43 5 5 5 5 5 10 17 70 6 11 54 100 7 6 81 94 26 93 38 100 76 100 100 100 100 100 100 96 28 11 2 69 99 79
22 3 5 9 14 36 0 0 0 4 5 5 9 43 73 84 96 24 92 97 68 84 95 95 37 98 60 35 100 100 100 100 90 100 99 100 100 100 100 100 88 14 9 96 23
9 5 11 32 67 100 100 100 82 96 47 92 100 99 58 94 100 99 86 97 99 88 100 100 94 100 99 85 85 100 100 100 100 100 100 100 100 100 100 100 100 100 100 100 94
59 0 0 0 0 2 1 25 58 32 6 7 5 5 5 33 74 100 100 100 100 100 100 100 100 100 100 81 100 100 100 100 100 100 100 100 100 100 100 100 100 100 100 100 100
4 0 0 0 0 2 4 5 5 5 4 5 5 5 5 5 30 78 100 100 28 100 100 100 90 100 100 100 98 100 100 100 100 100 100 100 100 100 100 100 100 100 100 100 100
0 0 0 0 0 1 5 2 5 3 5 0 0 12 73 28 52 90 100 100 100 94 96 100 98 25 100 60 79 71 99 100 100 100 100 100 100 100 100 100 100 100 100 100 100
0 0 0 0 0 0 2 12 0 0 0 0 1 3 5 30 68 94 100 100 83 28 56 61 44 97 54 51 6 95 100 91 99 100 100 100 100 100 100 100 100 100 100 100 100
0 0 0 0 0 0 0 0 0 0 0 2 0 5 4 0 5 43 99 86 7 5 5 5 5 9 5 89 92 11 100 67 64 100 100 92 100 100 100 100 100 100 100 100 100
0 0 0 0 0 0 0 0 0 0 0 3 4 4 5 26 29 5 4 1 0 0 2 2 4 5 1 60 93 60 5 57 95 97 100 92 100 100 93 100 100 100 100 100 100
0 1 0 2 0 0 0 0 0 0 0 0 0 0 0 0 0 0 0 0 0 0 0 0 0 0 3 0 2 2 0 0 2 8 40 97 100 100 91 35 100 98 97 100 100
0 4 1 0 0 4 0 0 0 0 0 0 0 0 0 0 0 0 0 0 0 0 0 0 0 0 0 0 0 0 0 0 3 0 2 33 71 98 100 100 83 97 98 96 100
0 0 0 0 0 0 5 5 0 0 0 0 0 0 0 0 0 0 0 0 0 0 0 0 0 0 0 0 0 0 0 0 0 0 0 0 1 48 69 94 92 62 96 100 100
5 2 5 0 5 4 0 0 4 0 0 2 1 0 0 0 0 0 0 0 0 0 0 0 0 2 2 0 0 0 0 0 0 0 0 0 0 0 44 100 100 100 100 100 57

GFSSW_prec_cloud_120.txt.gz
Cloud_Cover
100 100 100 100 100 100 100 100 100 100 97 100 98 6 4 5 0 5 8 5 4 4 4 1 0 2 0 0 1 0 0 4 0 0 5 5 4 0 0 0 0 0 0 0 0
100 100 98 100 100 100 100 100 100 100 100 100 95 75 27 24 2 0 5 5 5 1 0 0 0 0 0 0 0 0 1 0 0 0 0 0 1 3 1 0 0 0 0 0 0
100 100 100 100 100 100 100 100 100 100 100 100 100 6 99 100 87 9 4 4 5 4 0 0 0 0 0 0 0 0 0 0 0 0 0 0 0 0 0 0 0 0 0 0 0
100 100 100 100 100 100 100 100 100 100 100 100 100 100 76 44 100 100 72 11 1 6 8 0 0 0 0 0 0 0 0 0 0 0 0 0 0 0 0 0 0 0 0 0 0
100 100 100 100 100 100 100 100 100 100 100 100 100 100 100 77 100 100 96 100 30 8 65 2 0 0 0 0 0 0 0 0 0 0 0 0 0 0 0 0 0 0 0 0 0
78 100 100 100 100 100 100 100 100 100 100 100 100 100 100 100 100 100 97 76 62 64 2 0 0 0 0 0 0 0 0 0 0 0 0 0 0 0 0 0 0 0 0 0 0
100 100 92 90 100 100 100 100 100 100 100 100 100 100 100 100 100 100 100 100 97 5 0 0 0 0 0 0 0 0 0 0 0 0 0 0 0 0 0 0 0 0 0 0 0
100 100 96 93 100 100 100 100 100 100 100 100 100 100 100 100 99 100 99 91 4 0 5 4 0 0 0 0 0 1 0 0 0 0 0 0 0 0 0 0 0 0 0 0 0
93 39 14 100 100 100 100 100 100 100 100 100 100 100 100 100 99 91 6 4 1 3 0 0 0 0 0 2 1 0 4 4 1 0 0 0 1 0 0 0 0 0 0 0 0
5 3 36 100 100 100 100 100 100 100 100 100 100 100 95 77 26 10 30 5 5 5 1 0 0 4 5 5 5 5 4 5 5 0 0 0 2 0 0 0 0 0 0 0 0
3 84 100 100 100 100 100 100 100 100 100 100 100 100 100 99 11 26 11 5 5 5 4 5 32 48 5 5 5 5 26 38 5 1 5 4 4 0 0 0 0 0 0 0 0
100 100 100 100 100 100 100 98 100 98 100 100 100 56 11 5 5 5 5 5 5 6 58 10 9 5 5 5 6 29 99 42 2 3 5 3 5 1 1 1 2 0 0 0 0
64 60 70 100 100 100 100 99 100 100 100 99 54 45 12 67 54 5 5 6 9 41 74 28 4 5 5 45 100 43 61 5 39 45 5 12 63 4 5 4 0 0 0 0 0
100 100 59 100 100 100 100 100 100 96 43 13 19 44 12 5 5 5 11 24 8 37 5 11 4 5 5 70 83 94 32 98 100 100 100 94 66 98 96 98 10 5 4 20 4
39 100 88 98 100 100 100 100 100 43 56 5 7 21 5 5 5 5 59 8 5 49 38 4 5 37 76 99 100 98 99 100 100 100 100 87 100 100 100 94 98 83 36 100 97
10 5 4 73 94 81 55 5 0 4 57 5 5 5 5 5 5 5 90 98 98 86 99 100 81 75 100 93 100 100 100 100 100 100 100 100 100 100 100 100 100 100 100 100 100
4 4 5 0 2 1 3 3 5 5 5 5 5 5 5 5 5 5 50 97 79 98 100 100 56 6 68 95 100 100 100 100 100 100 100 99 100 100 100 100 100 100 100 100 100
0 0 0 0 0 0 0 3 12 5 25 5 5 5 10 9 22 37 100 100 100 100 100 100 100 100 100 100 100 100 100 100 100 100 100 100 100 100 100 100 100 100 100 100 100
0 0 0 0 0 0 0 5 4 5 4 5 5 5 5 5 100 100 100 100 100 100 100 99 100 100 100 100 100 100 100 100 100 100 100 100 100 100 100 100 100 100 100 100 100
0 0 0 0 0 0 1 2 1 0 2 6 5 6 32 57 99 82 100 100 72 100 100 92 100 100 100 100 100 100 100 100 100 100 100 100 100 100 100 100 100 100 100 100 100
0 0 0 0 0 0 4 1 0 0 0 2 2 6 50 30 22 62 100 100 67 85 69 8 47 100 93 66 91 64 16 49 21 100 100 100 100 100 100 100 100 100 100 100 100
0 0 0 0 0 0 0 0 0 0 0 0 0 0 4 5 5 0 0 0 0 1 2 5 42 16 31 6 22 10 68 5 89 59 95 100 100 100 100 100 100 100 100 100 100
0 0 0 0 0 0 0 0 0 0 0 0 0 0 0 0 0 0 0 0 0 0 2 3 4 5 0 2 0 4 53 92 44 33 96 21 98 100 100 100 100 100 100 85 100
0 0 0 0 0 0 0 0 0 0 0 0 0 0 0 0 0 0 0 0 0 0 0 2 0 0 3 0 0 0 1 64 70 99 76 16 25 96 100 100 100 71 16 100 100
0 0 0 0 0 0 0 0 0 0 0 0 0 0 0 0 0 0 0 0 0 0 0 0 2 0 1 0 0 0 0 0 1 2 12 80 36 100 100 100 100 39 39 100 100
7 4 0 0 0 0 0 0 0 0 0 0 0 0 0 0 0 0 0 0 0 0 0 0 0 0 4 0 0 0 0 0 0 0 3 5 12 99 100 100 100 100 100 63 100
5 5 7 0 0 0 0 0 0 0 0 0 1 0 0 0 0 0 0 0 0 0 0 0 5 5 1 3 3 0 0 0 0 0 0 1 11 73 94 100 100 100 100 100 100